<?xml version="1.0" encoding="UTF-8" standalone="no" ?>
<gpx xmlns="http://www.topografix.com/GPX/1/1" xmlns:xsi="http://www.w3.org/2001/XMLSchema-instance" xsi:schemaLocation="http://www.topografix.com/GPX/1/1 http://www.topografix.com/GPX/1/1/gpx.xsd" version="1.1" creator="VisuGPX - https://www.visugpx.com">
  <metadata>
    <name>Sortie vélo dans l'après-midi</name>
  </metadata>
  <trk>
    <name><![CDATA[Sortie vélo dans l'après-midi_1]]></name>
    <trkseg>
      <trkpt lat="47.57876" lon="-3.052">
        <ele>14.6</ele>
        <time>2024-05-07T12:57:27Z</time>
      </trkpt>
      <trkpt lat="47.57876" lon="-3.052">
        <ele>8.8</ele>
        <time>2024-05-07T12:57:28Z</time>
      </trkpt>
      <trkpt lat="47.57876" lon="-3.052">
        <ele>8.6</ele>
        <time>2024-05-07T12:57:29Z</time>
      </trkpt>
      <trkpt lat="47.57876" lon="-3.052">
        <ele>8</ele>
        <time>2024-05-07T12:57:30Z</time>
      </trkpt>
      <trkpt lat="47.57876" lon="-3.052">
        <ele>7.8</ele>
        <time>2024-05-07T12:57:31Z</time>
      </trkpt>
      <trkpt lat="47.57876" lon="-3.052">
        <ele>7.6</ele>
        <time>2024-05-07T12:57:32Z</time>
      </trkpt>
      <trkpt lat="47.57876" lon="-3.052">
        <ele>7.6</ele>
        <time>2024-05-07T12:57:33Z</time>
      </trkpt>
      <trkpt lat="47.57876" lon="-3.052">
        <ele>7.6</ele>
        <time>2024-05-07T12:57:34Z</time>
      </trkpt>
      <trkpt lat="47.57876" lon="-3.052">
        <ele>6.8</ele>
        <time>2024-05-07T12:57:35Z</time>
      </trkpt>
      <trkpt lat="47.57876" lon="-3.052">
        <ele>7</ele>
        <time>2024-05-07T12:57:36Z</time>
      </trkpt>
      <trkpt lat="47.57876" lon="-3.052">
        <ele>7</ele>
        <time>2024-05-07T12:57:37Z</time>
      </trkpt>
      <trkpt lat="47.57876" lon="-3.052">
        <ele>7.2</ele>
        <time>2024-05-07T12:57:38Z</time>
      </trkpt>
      <trkpt lat="47.57875" lon="-3.052">
        <ele>7.2</ele>
        <time>2024-05-07T12:57:39Z</time>
      </trkpt>
      <trkpt lat="47.57875" lon="-3.05201">
        <ele>7.2</ele>
        <time>2024-05-07T12:57:40Z</time>
      </trkpt>
      <trkpt lat="47.57875" lon="-3.05201">
        <ele>7.2</ele>
        <time>2024-05-07T12:57:41Z</time>
      </trkpt>
      <trkpt lat="47.57875" lon="-3.05201">
        <ele>7.2</ele>
        <time>2024-05-07T12:57:42Z</time>
      </trkpt>
      <trkpt lat="47.57875" lon="-3.05201">
        <ele>7.2</ele>
        <time>2024-05-07T12:57:43Z</time>
      </trkpt>
      <trkpt lat="47.57875" lon="-3.05201">
        <ele>7.2</ele>
        <time>2024-05-07T12:57:44Z</time>
      </trkpt>
      <trkpt lat="47.57875" lon="-3.05202">
        <ele>7.2</ele>
        <time>2024-05-07T12:57:45Z</time>
      </trkpt>
      <trkpt lat="47.57875" lon="-3.05202">
        <ele>7.2</ele>
        <time>2024-05-07T12:57:46Z</time>
      </trkpt>
      <trkpt lat="47.57874" lon="-3.05202">
        <ele>7.2</ele>
        <time>2024-05-07T12:57:47Z</time>
      </trkpt>
      <trkpt lat="47.57874" lon="-3.05202">
        <ele>7.2</ele>
        <time>2024-05-07T12:57:48Z</time>
      </trkpt>
      <trkpt lat="47.57874" lon="-3.05202">
        <ele>7.2</ele>
        <time>2024-05-07T12:57:49Z</time>
      </trkpt>
      <trkpt lat="47.57874" lon="-3.05202">
        <ele>7.2</ele>
        <time>2024-05-07T12:57:50Z</time>
      </trkpt>
      <trkpt lat="47.57873" lon="-3.05202">
        <ele>7.2</ele>
        <time>2024-05-07T12:57:51Z</time>
      </trkpt>
      <trkpt lat="47.57873" lon="-3.05203">
        <ele>7.2</ele>
        <time>2024-05-07T12:57:52Z</time>
      </trkpt>
      <trkpt lat="47.57873" lon="-3.05203">
        <ele>7.2</ele>
        <time>2024-05-07T12:57:53Z</time>
      </trkpt>
      <trkpt lat="47.57873" lon="-3.05203">
        <ele>7.2</ele>
        <time>2024-05-07T12:57:54Z</time>
      </trkpt>
      <trkpt lat="47.57873" lon="-3.05203">
        <ele>7.2</ele>
        <time>2024-05-07T12:57:55Z</time>
      </trkpt>
      <trkpt lat="47.57873" lon="-3.05203">
        <ele>7.2</ele>
        <time>2024-05-07T12:57:56Z</time>
      </trkpt>
      <trkpt lat="47.57873" lon="-3.05203">
        <ele>7.2</ele>
        <time>2024-05-07T12:57:57Z</time>
      </trkpt>
      <trkpt lat="47.57873" lon="-3.05203">
        <ele>7.2</ele>
        <time>2024-05-07T12:57:58Z</time>
      </trkpt>
      <trkpt lat="47.57873" lon="-3.05203">
        <ele>7.2</ele>
        <time>2024-05-07T12:57:59Z</time>
      </trkpt>
      <trkpt lat="47.57873" lon="-3.05203">
        <ele>7</ele>
        <time>2024-05-07T12:58:00Z</time>
      </trkpt>
      <trkpt lat="47.57873" lon="-3.05203">
        <ele>7</ele>
        <time>2024-05-07T12:58:01Z</time>
      </trkpt>
      <trkpt lat="47.57873" lon="-3.05203">
        <ele>7</ele>
        <time>2024-05-07T12:58:02Z</time>
      </trkpt>
      <trkpt lat="47.57873" lon="-3.05203">
        <ele>7</ele>
        <time>2024-05-07T12:58:03Z</time>
      </trkpt>
      <trkpt lat="47.57873" lon="-3.05203">
        <ele>7</ele>
        <time>2024-05-07T12:58:04Z</time>
      </trkpt>
      <trkpt lat="47.57873" lon="-3.05203">
        <ele>7</ele>
        <time>2024-05-07T12:58:05Z</time>
      </trkpt>
      <trkpt lat="47.57873" lon="-3.05203">
        <ele>7.2</ele>
        <time>2024-05-07T12:58:06Z</time>
      </trkpt>
      <trkpt lat="47.57873" lon="-3.05203">
        <ele>7.2</ele>
        <time>2024-05-07T12:58:07Z</time>
      </trkpt>
      <trkpt lat="47.57873" lon="-3.05203">
        <ele>7.2</ele>
        <time>2024-05-07T12:58:08Z</time>
      </trkpt>
      <trkpt lat="47.57873" lon="-3.05203">
        <ele>7</ele>
        <time>2024-05-07T12:58:09Z</time>
      </trkpt>
      <trkpt lat="47.57873" lon="-3.05204">
        <ele>7</ele>
        <time>2024-05-07T12:58:10Z</time>
      </trkpt>
      <trkpt lat="47.57873" lon="-3.05204">
        <ele>7</ele>
        <time>2024-05-07T12:58:11Z</time>
      </trkpt>
      <trkpt lat="47.57874" lon="-3.05204">
        <ele>7</ele>
        <time>2024-05-07T12:58:12Z</time>
      </trkpt>
      <trkpt lat="47.57874" lon="-3.05204">
        <ele>7</ele>
        <time>2024-05-07T12:58:13Z</time>
      </trkpt>
      <trkpt lat="47.57874" lon="-3.05205">
        <ele>6.8</ele>
        <time>2024-05-07T12:58:14Z</time>
      </trkpt>
      <trkpt lat="47.57874" lon="-3.05205">
        <ele>6.8</ele>
        <time>2024-05-07T12:58:15Z</time>
      </trkpt>
      <trkpt lat="47.57874" lon="-3.05205">
        <ele>6.8</ele>
        <time>2024-05-07T12:58:16Z</time>
      </trkpt>
      <trkpt lat="47.57874" lon="-3.05205">
        <ele>6.8</ele>
        <time>2024-05-07T12:58:17Z</time>
      </trkpt>
      <trkpt lat="47.57874" lon="-3.05205">
        <ele>6.8</ele>
        <time>2024-05-07T12:58:18Z</time>
      </trkpt>
      <trkpt lat="47.57874" lon="-3.05205">
        <ele>6.8</ele>
        <time>2024-05-07T12:58:19Z</time>
      </trkpt>
      <trkpt lat="47.57874" lon="-3.05205">
        <ele>7</ele>
        <time>2024-05-07T12:58:20Z</time>
      </trkpt>
      <trkpt lat="47.57874" lon="-3.05205">
        <ele>7</ele>
        <time>2024-05-07T12:58:21Z</time>
      </trkpt>
      <trkpt lat="47.57874" lon="-3.05205">
        <ele>7</ele>
        <time>2024-05-07T12:58:22Z</time>
      </trkpt>
      <trkpt lat="47.57874" lon="-3.05205">
        <ele>7</ele>
        <time>2024-05-07T12:58:23Z</time>
      </trkpt>
      <trkpt lat="47.57874" lon="-3.05206">
        <ele>7</ele>
        <time>2024-05-07T12:58:24Z</time>
      </trkpt>
      <trkpt lat="47.57874" lon="-3.05206">
        <ele>7</ele>
        <time>2024-05-07T12:58:25Z</time>
      </trkpt>
      <trkpt lat="47.57875" lon="-3.05206">
        <ele>7</ele>
        <time>2024-05-07T12:58:26Z</time>
      </trkpt>
      <trkpt lat="47.57875" lon="-3.05206">
        <ele>7</ele>
        <time>2024-05-07T12:58:27Z</time>
      </trkpt>
      <trkpt lat="47.57875" lon="-3.05206">
        <ele>7</ele>
        <time>2024-05-07T12:58:28Z</time>
      </trkpt>
      <trkpt lat="47.57875" lon="-3.05206">
        <ele>7</ele>
        <time>2024-05-07T12:58:29Z</time>
      </trkpt>
      <trkpt lat="47.57875" lon="-3.05206">
        <ele>7</ele>
        <time>2024-05-07T12:58:30Z</time>
      </trkpt>
      <trkpt lat="47.57875" lon="-3.05206">
        <ele>7</ele>
        <time>2024-05-07T12:58:31Z</time>
      </trkpt>
      <trkpt lat="47.57875" lon="-3.05206">
        <ele>6.8</ele>
        <time>2024-05-07T12:58:32Z</time>
      </trkpt>
      <trkpt lat="47.57875" lon="-3.05206">
        <ele>6.8</ele>
        <time>2024-05-07T12:58:33Z</time>
      </trkpt>
      <trkpt lat="47.57875" lon="-3.05206">
        <ele>6.8</ele>
        <time>2024-05-07T12:58:34Z</time>
      </trkpt>
      <trkpt lat="47.57875" lon="-3.05206">
        <ele>6.8</ele>
        <time>2024-05-07T12:58:35Z</time>
      </trkpt>
      <trkpt lat="47.57875" lon="-3.05206">
        <ele>6.8</ele>
        <time>2024-05-07T12:58:36Z</time>
      </trkpt>
      <trkpt lat="47.57875" lon="-3.05207">
        <ele>6.8</ele>
        <time>2024-05-07T12:58:37Z</time>
      </trkpt>
      <trkpt lat="47.57875" lon="-3.05207">
        <ele>6.8</ele>
        <time>2024-05-07T12:58:38Z</time>
      </trkpt>
      <trkpt lat="47.57876" lon="-3.05207">
        <ele>6.8</ele>
        <time>2024-05-07T12:58:39Z</time>
      </trkpt>
      <trkpt lat="47.57876" lon="-3.05207">
        <ele>6.8</ele>
        <time>2024-05-07T12:58:40Z</time>
      </trkpt>
      <trkpt lat="47.57876" lon="-3.05208">
        <ele>6.8</ele>
        <time>2024-05-07T12:58:41Z</time>
      </trkpt>
      <trkpt lat="47.57876" lon="-3.05208">
        <ele>6.8</ele>
        <time>2024-05-07T12:58:42Z</time>
      </trkpt>
      <trkpt lat="47.57876" lon="-3.05208">
        <ele>6.8</ele>
        <time>2024-05-07T12:58:43Z</time>
      </trkpt>
      <trkpt lat="47.57876" lon="-3.05208">
        <ele>6.8</ele>
        <time>2024-05-07T12:58:44Z</time>
      </trkpt>
      <trkpt lat="47.57876" lon="-3.05208">
        <ele>7</ele>
        <time>2024-05-07T12:58:45Z</time>
      </trkpt>
      <trkpt lat="47.57876" lon="-3.05208">
        <ele>6.8</ele>
        <time>2024-05-07T12:58:46Z</time>
      </trkpt>
      <trkpt lat="47.57876" lon="-3.05208">
        <ele>7</ele>
        <time>2024-05-07T12:58:47Z</time>
      </trkpt>
      <trkpt lat="47.57876" lon="-3.05208">
        <ele>7</ele>
        <time>2024-05-07T12:58:48Z</time>
      </trkpt>
      <trkpt lat="47.57876" lon="-3.05208">
        <ele>7</ele>
        <time>2024-05-07T12:58:49Z</time>
      </trkpt>
      <trkpt lat="47.57876" lon="-3.05208">
        <ele>7</ele>
        <time>2024-05-07T12:58:50Z</time>
      </trkpt>
      <trkpt lat="47.57876" lon="-3.05208">
        <ele>7</ele>
        <time>2024-05-07T12:58:51Z</time>
      </trkpt>
      <trkpt lat="47.57876" lon="-3.05208">
        <ele>7</ele>
        <time>2024-05-07T12:58:52Z</time>
      </trkpt>
      <trkpt lat="47.57876" lon="-3.05208">
        <ele>7</ele>
        <time>2024-05-07T12:58:53Z</time>
      </trkpt>
      <trkpt lat="47.57876" lon="-3.05208">
        <ele>6.8</ele>
        <time>2024-05-07T12:58:54Z</time>
      </trkpt>
      <trkpt lat="47.57876" lon="-3.05208">
        <ele>6.6</ele>
        <time>2024-05-07T12:58:55Z</time>
      </trkpt>
      <trkpt lat="47.57876" lon="-3.05208">
        <ele>6.6</ele>
        <time>2024-05-07T12:58:56Z</time>
      </trkpt>
      <trkpt lat="47.57876" lon="-3.05208">
        <ele>6.6</ele>
        <time>2024-05-07T12:58:57Z</time>
      </trkpt>
      <trkpt lat="47.57876" lon="-3.05208">
        <ele>6.6</ele>
        <time>2024-05-07T12:58:58Z</time>
      </trkpt>
      <trkpt lat="47.57875" lon="-3.05208">
        <ele>6.6</ele>
        <time>2024-05-07T12:58:59Z</time>
      </trkpt>
      <trkpt lat="47.57875" lon="-3.05207">
        <ele>6.6</ele>
        <time>2024-05-07T12:59:00Z</time>
      </trkpt>
      <trkpt lat="47.57874" lon="-3.05207">
        <ele>6.6</ele>
        <time>2024-05-07T12:59:01Z</time>
      </trkpt>
      <trkpt lat="47.57874" lon="-3.05207">
        <ele>6.6</ele>
        <time>2024-05-07T12:59:02Z</time>
      </trkpt>
      <trkpt lat="47.57873" lon="-3.05207">
        <ele>6.6</ele>
        <time>2024-05-07T12:59:03Z</time>
      </trkpt>
      <trkpt lat="47.57873" lon="-3.05207">
        <ele>6.6</ele>
        <time>2024-05-07T12:59:04Z</time>
      </trkpt>
      <trkpt lat="47.57872" lon="-3.05207">
        <ele>6.6</ele>
        <time>2024-05-07T12:59:05Z</time>
      </trkpt>
      <trkpt lat="47.57872" lon="-3.05207">
        <ele>6.6</ele>
        <time>2024-05-07T12:59:06Z</time>
      </trkpt>
      <trkpt lat="47.57872" lon="-3.05207">
        <ele>6.6</ele>
        <time>2024-05-07T12:59:07Z</time>
      </trkpt>
      <trkpt lat="47.57872" lon="-3.05207">
        <ele>6.6</ele>
        <time>2024-05-07T12:59:08Z</time>
      </trkpt>
      <trkpt lat="47.57872" lon="-3.05207">
        <ele>6.6</ele>
        <time>2024-05-07T12:59:09Z</time>
      </trkpt>
      <trkpt lat="47.57872" lon="-3.05207">
        <ele>6.6</ele>
        <time>2024-05-07T12:59:10Z</time>
      </trkpt>
      <trkpt lat="47.57872" lon="-3.05207">
        <ele>6.6</ele>
        <time>2024-05-07T12:59:11Z</time>
      </trkpt>
      <trkpt lat="47.57872" lon="-3.05207">
        <ele>6.6</ele>
        <time>2024-05-07T12:59:12Z</time>
      </trkpt>
      <trkpt lat="47.57872" lon="-3.05207">
        <ele>6.6</ele>
        <time>2024-05-07T12:59:13Z</time>
      </trkpt>
      <trkpt lat="47.57872" lon="-3.05207">
        <ele>6.6</ele>
        <time>2024-05-07T12:59:14Z</time>
      </trkpt>
      <trkpt lat="47.57872" lon="-3.05207">
        <ele>6.6</ele>
        <time>2024-05-07T12:59:15Z</time>
      </trkpt>
      <trkpt lat="47.57872" lon="-3.05207">
        <ele>6.6</ele>
        <time>2024-05-07T12:59:16Z</time>
      </trkpt>
      <trkpt lat="47.57872" lon="-3.05207">
        <ele>6.6</ele>
        <time>2024-05-07T12:59:17Z</time>
      </trkpt>
      <trkpt lat="47.57872" lon="-3.05207">
        <ele>6.6</ele>
        <time>2024-05-07T12:59:18Z</time>
      </trkpt>
      <trkpt lat="47.57871" lon="-3.05207">
        <ele>6.6</ele>
        <time>2024-05-07T12:59:19Z</time>
      </trkpt>
      <trkpt lat="47.57871" lon="-3.05208">
        <ele>6.6</ele>
        <time>2024-05-07T12:59:20Z</time>
      </trkpt>
      <trkpt lat="47.57871" lon="-3.05208">
        <ele>6.6</ele>
        <time>2024-05-07T12:59:21Z</time>
      </trkpt>
      <trkpt lat="47.57871" lon="-3.05208">
        <ele>6.6</ele>
        <time>2024-05-07T12:59:22Z</time>
      </trkpt>
      <trkpt lat="47.57871" lon="-3.05208">
        <ele>6.6</ele>
        <time>2024-05-07T12:59:23Z</time>
      </trkpt>
      <trkpt lat="47.57871" lon="-3.05208">
        <ele>6.6</ele>
        <time>2024-05-07T12:59:24Z</time>
      </trkpt>
      <trkpt lat="47.57871" lon="-3.05208">
        <ele>6.6</ele>
        <time>2024-05-07T12:59:25Z</time>
      </trkpt>
      <trkpt lat="47.57871" lon="-3.05208">
        <ele>6.4</ele>
        <time>2024-05-07T12:59:26Z</time>
      </trkpt>
      <trkpt lat="47.57871" lon="-3.05208">
        <ele>6.4</ele>
        <time>2024-05-07T12:59:27Z</time>
      </trkpt>
      <trkpt lat="47.57871" lon="-3.05208">
        <ele>6.4</ele>
        <time>2024-05-07T12:59:28Z</time>
      </trkpt>
      <trkpt lat="47.57871" lon="-3.05208">
        <ele>6.4</ele>
        <time>2024-05-07T12:59:29Z</time>
      </trkpt>
      <trkpt lat="47.57871" lon="-3.05208">
        <ele>6.4</ele>
        <time>2024-05-07T12:59:30Z</time>
      </trkpt>
      <trkpt lat="47.57871" lon="-3.05208">
        <ele>6.4</ele>
        <time>2024-05-07T12:59:31Z</time>
      </trkpt>
      <trkpt lat="47.57871" lon="-3.05208">
        <ele>6.4</ele>
        <time>2024-05-07T12:59:32Z</time>
      </trkpt>
      <trkpt lat="47.57871" lon="-3.05209">
        <ele>6.6</ele>
        <time>2024-05-07T12:59:33Z</time>
      </trkpt>
      <trkpt lat="47.57871" lon="-3.05209">
        <ele>6.6</ele>
        <time>2024-05-07T12:59:34Z</time>
      </trkpt>
      <trkpt lat="47.57871" lon="-3.05209">
        <ele>6.6</ele>
        <time>2024-05-07T12:59:35Z</time>
      </trkpt>
      <trkpt lat="47.57871" lon="-3.05209">
        <ele>6.6</ele>
        <time>2024-05-07T12:59:36Z</time>
      </trkpt>
      <trkpt lat="47.57871" lon="-3.05209">
        <ele>6.6</ele>
        <time>2024-05-07T12:59:37Z</time>
      </trkpt>
      <trkpt lat="47.5787" lon="-3.05209">
        <ele>6.6</ele>
        <time>2024-05-07T12:59:38Z</time>
      </trkpt>
      <trkpt lat="47.5787" lon="-3.05209">
        <ele>6.6</ele>
        <time>2024-05-07T12:59:39Z</time>
      </trkpt>
      <trkpt lat="47.57871" lon="-3.05209">
        <ele>6.6</ele>
        <time>2024-05-07T12:59:40Z</time>
      </trkpt>
      <trkpt lat="47.57871" lon="-3.05208">
        <ele>6.4</ele>
        <time>2024-05-07T12:59:41Z</time>
      </trkpt>
      <trkpt lat="47.57871" lon="-3.05208">
        <ele>6.4</ele>
        <time>2024-05-07T12:59:42Z</time>
      </trkpt>
      <trkpt lat="47.57872" lon="-3.05207">
        <ele>6.4</ele>
        <time>2024-05-07T12:59:43Z</time>
      </trkpt>
      <trkpt lat="47.57872" lon="-3.05207">
        <ele>6.4</ele>
        <time>2024-05-07T12:59:44Z</time>
      </trkpt>
      <trkpt lat="47.57872" lon="-3.05208">
        <ele>6.4</ele>
        <time>2024-05-07T12:59:45Z</time>
      </trkpt>
      <trkpt lat="47.57871" lon="-3.05209">
        <ele>6.2</ele>
        <time>2024-05-07T12:59:46Z</time>
      </trkpt>
      <trkpt lat="47.57871" lon="-3.05209">
        <ele>6.2</ele>
        <time>2024-05-07T12:59:47Z</time>
      </trkpt>
      <trkpt lat="47.57871" lon="-3.0521">
        <ele>6.2</ele>
        <time>2024-05-07T12:59:48Z</time>
      </trkpt>
      <trkpt lat="47.57871" lon="-3.0521">
        <ele>6.2</ele>
        <time>2024-05-07T12:59:49Z</time>
      </trkpt>
      <trkpt lat="47.57871" lon="-3.05209">
        <ele>6.2</ele>
        <time>2024-05-07T12:59:50Z</time>
      </trkpt>
      <trkpt lat="47.57871" lon="-3.05209">
        <ele>6.2</ele>
        <time>2024-05-07T12:59:51Z</time>
      </trkpt>
      <trkpt lat="47.57872" lon="-3.05209">
        <ele>6.2</ele>
        <time>2024-05-07T12:59:52Z</time>
      </trkpt>
      <trkpt lat="47.57872" lon="-3.0521">
        <ele>6.2</ele>
        <time>2024-05-07T12:59:53Z</time>
      </trkpt>
      <trkpt lat="47.57872" lon="-3.0521">
        <ele>6.2</ele>
        <time>2024-05-07T12:59:54Z</time>
      </trkpt>
      <trkpt lat="47.57871" lon="-3.05211">
        <ele>6.4</ele>
        <time>2024-05-07T12:59:55Z</time>
      </trkpt>
      <trkpt lat="47.5787" lon="-3.05211">
        <ele>6.4</ele>
        <time>2024-05-07T12:59:56Z</time>
      </trkpt>
      <trkpt lat="47.57869" lon="-3.05211">
        <ele>6.4</ele>
        <time>2024-05-07T12:59:57Z</time>
      </trkpt>
      <trkpt lat="47.57869" lon="-3.0521">
        <ele>6.4</ele>
        <time>2024-05-07T12:59:58Z</time>
      </trkpt>
      <trkpt lat="47.57869" lon="-3.0521">
        <ele>6.4</ele>
        <time>2024-05-07T12:59:59Z</time>
      </trkpt>
      <trkpt lat="47.57869" lon="-3.0521">
        <ele>6.4</ele>
        <time>2024-05-07T13:00:00Z</time>
      </trkpt>
      <trkpt lat="47.57869" lon="-3.0521">
        <ele>6.4</ele>
        <time>2024-05-07T13:00:01Z</time>
      </trkpt>
      <trkpt lat="47.57869" lon="-3.0521">
        <ele>6.4</ele>
        <time>2024-05-07T13:00:02Z</time>
      </trkpt>
      <trkpt lat="47.57869" lon="-3.0521">
        <ele>6.6</ele>
        <time>2024-05-07T13:00:03Z</time>
      </trkpt>
      <trkpt lat="47.57869" lon="-3.0521">
        <ele>6.6</ele>
        <time>2024-05-07T13:00:04Z</time>
      </trkpt>
      <trkpt lat="47.57869" lon="-3.0521">
        <ele>6.6</ele>
        <time>2024-05-07T13:00:05Z</time>
      </trkpt>
      <trkpt lat="47.57869" lon="-3.0521">
        <ele>6.6</ele>
        <time>2024-05-07T13:00:06Z</time>
      </trkpt>
      <trkpt lat="47.57869" lon="-3.0521">
        <ele>6.6</ele>
        <time>2024-05-07T13:00:07Z</time>
      </trkpt>
      <trkpt lat="47.57869" lon="-3.0521">
        <ele>6.6</ele>
        <time>2024-05-07T13:00:08Z</time>
      </trkpt>
      <trkpt lat="47.57869" lon="-3.0521">
        <ele>6.6</ele>
        <time>2024-05-07T13:00:09Z</time>
      </trkpt>
      <trkpt lat="47.57869" lon="-3.0521">
        <ele>6.6</ele>
        <time>2024-05-07T13:00:10Z</time>
      </trkpt>
      <trkpt lat="47.57869" lon="-3.0521">
        <ele>6.6</ele>
        <time>2024-05-07T13:00:11Z</time>
      </trkpt>
      <trkpt lat="47.57869" lon="-3.0521">
        <ele>6.6</ele>
        <time>2024-05-07T13:00:12Z</time>
      </trkpt>
      <trkpt lat="47.57869" lon="-3.0521">
        <ele>6.6</ele>
        <time>2024-05-07T13:00:13Z</time>
      </trkpt>
      <trkpt lat="47.57869" lon="-3.0521">
        <ele>6.6</ele>
        <time>2024-05-07T13:00:14Z</time>
      </trkpt>
      <trkpt lat="47.57869" lon="-3.0521">
        <ele>6.6</ele>
        <time>2024-05-07T13:00:15Z</time>
      </trkpt>
      <trkpt lat="47.57869" lon="-3.05211">
        <ele>6.6</ele>
        <time>2024-05-07T13:00:16Z</time>
      </trkpt>
      <trkpt lat="47.57869" lon="-3.05211">
        <ele>6.6</ele>
        <time>2024-05-07T13:00:17Z</time>
      </trkpt>
      <trkpt lat="47.57869" lon="-3.05211">
        <ele>6.6</ele>
        <time>2024-05-07T13:00:18Z</time>
      </trkpt>
      <trkpt lat="47.57869" lon="-3.05212">
        <ele>6.6</ele>
        <time>2024-05-07T13:00:19Z</time>
      </trkpt>
      <trkpt lat="47.57869" lon="-3.05212">
        <ele>6.6</ele>
        <time>2024-05-07T13:00:20Z</time>
      </trkpt>
      <trkpt lat="47.57869" lon="-3.05212">
        <ele>6.4</ele>
        <time>2024-05-07T13:00:21Z</time>
      </trkpt>
      <trkpt lat="47.57869" lon="-3.05212">
        <ele>6.4</ele>
        <time>2024-05-07T13:00:22Z</time>
      </trkpt>
      <trkpt lat="47.57869" lon="-3.05212">
        <ele>6.4</ele>
        <time>2024-05-07T13:00:23Z</time>
      </trkpt>
      <trkpt lat="47.57869" lon="-3.05212">
        <ele>6.4</ele>
        <time>2024-05-07T13:00:24Z</time>
      </trkpt>
      <trkpt lat="47.57869" lon="-3.05211">
        <ele>6.4</ele>
        <time>2024-05-07T13:00:25Z</time>
      </trkpt>
      <trkpt lat="47.5787" lon="-3.0521">
        <ele>6.4</ele>
        <time>2024-05-07T13:00:26Z</time>
      </trkpt>
      <trkpt lat="47.57871" lon="-3.05209">
        <ele>6.4</ele>
        <time>2024-05-07T13:00:27Z</time>
      </trkpt>
      <trkpt lat="47.57871" lon="-3.0521">
        <ele>6.4</ele>
        <time>2024-05-07T13:00:28Z</time>
      </trkpt>
      <trkpt lat="47.57872" lon="-3.05212">
        <ele>6.4</ele>
        <time>2024-05-07T13:00:29Z</time>
      </trkpt>
      <trkpt lat="47.57872" lon="-3.05212">
        <ele>6.4</ele>
        <time>2024-05-07T13:00:30Z</time>
      </trkpt>
      <trkpt lat="47.57872" lon="-3.05211">
        <ele>6.4</ele>
        <time>2024-05-07T13:00:31Z</time>
      </trkpt>
      <trkpt lat="47.57871" lon="-3.0521">
        <ele>6.4</ele>
        <time>2024-05-07T13:00:32Z</time>
      </trkpt>
      <trkpt lat="47.57871" lon="-3.0521">
        <ele>6.4</ele>
        <time>2024-05-07T13:00:33Z</time>
      </trkpt>
      <trkpt lat="47.5787" lon="-3.05209">
        <ele>6.4</ele>
        <time>2024-05-07T13:00:34Z</time>
      </trkpt>
      <trkpt lat="47.5787" lon="-3.05209">
        <ele>6.4</ele>
        <time>2024-05-07T13:00:35Z</time>
      </trkpt>
      <trkpt lat="47.5787" lon="-3.05209">
        <ele>6.4</ele>
        <time>2024-05-07T13:00:36Z</time>
      </trkpt>
      <trkpt lat="47.57871" lon="-3.05209">
        <ele>6.4</ele>
        <time>2024-05-07T13:00:37Z</time>
      </trkpt>
      <trkpt lat="47.57871" lon="-3.05209">
        <ele>6.4</ele>
        <time>2024-05-07T13:00:38Z</time>
      </trkpt>
      <trkpt lat="47.57871" lon="-3.05209">
        <ele>6.4</ele>
        <time>2024-05-07T13:00:39Z</time>
      </trkpt>
      <trkpt lat="47.57871" lon="-3.05209">
        <ele>6.4</ele>
        <time>2024-05-07T13:00:40Z</time>
      </trkpt>
      <trkpt lat="47.57871" lon="-3.05209">
        <ele>6.4</ele>
        <time>2024-05-07T13:00:41Z</time>
      </trkpt>
      <trkpt lat="47.57871" lon="-3.05209">
        <ele>6.4</ele>
        <time>2024-05-07T13:00:42Z</time>
      </trkpt>
      <trkpt lat="47.57871" lon="-3.05209">
        <ele>6.4</ele>
        <time>2024-05-07T13:00:43Z</time>
      </trkpt>
      <trkpt lat="47.57871" lon="-3.05209">
        <ele>6.4</ele>
        <time>2024-05-07T13:00:44Z</time>
      </trkpt>
      <trkpt lat="47.57871" lon="-3.05209">
        <ele>6.4</ele>
        <time>2024-05-07T13:00:45Z</time>
      </trkpt>
      <trkpt lat="47.57871" lon="-3.05209">
        <ele>6.4</ele>
        <time>2024-05-07T13:00:46Z</time>
      </trkpt>
      <trkpt lat="47.57871" lon="-3.05209">
        <ele>6.4</ele>
        <time>2024-05-07T13:00:47Z</time>
      </trkpt>
      <trkpt lat="47.57871" lon="-3.05209">
        <ele>6.4</ele>
        <time>2024-05-07T13:00:48Z</time>
      </trkpt>
      <trkpt lat="47.57871" lon="-3.05209">
        <ele>6.4</ele>
        <time>2024-05-07T13:00:49Z</time>
      </trkpt>
      <trkpt lat="47.57871" lon="-3.05209">
        <ele>6.4</ele>
        <time>2024-05-07T13:00:50Z</time>
      </trkpt>
      <trkpt lat="47.57871" lon="-3.05209">
        <ele>6.6</ele>
        <time>2024-05-07T13:00:51Z</time>
      </trkpt>
      <trkpt lat="47.57871" lon="-3.05209">
        <ele>6.6</ele>
        <time>2024-05-07T13:00:52Z</time>
      </trkpt>
      <trkpt lat="47.57871" lon="-3.05209">
        <ele>6.6</ele>
        <time>2024-05-07T13:00:53Z</time>
      </trkpt>
      <trkpt lat="47.57871" lon="-3.05209">
        <ele>6.6</ele>
        <time>2024-05-07T13:00:54Z</time>
      </trkpt>
      <trkpt lat="47.57871" lon="-3.05209">
        <ele>6.6</ele>
        <time>2024-05-07T13:00:55Z</time>
      </trkpt>
      <trkpt lat="47.57871" lon="-3.05209">
        <ele>6.6</ele>
        <time>2024-05-07T13:00:56Z</time>
      </trkpt>
      <trkpt lat="47.57871" lon="-3.05209">
        <ele>6.6</ele>
        <time>2024-05-07T13:00:57Z</time>
      </trkpt>
      <trkpt lat="47.57871" lon="-3.05209">
        <ele>6.6</ele>
        <time>2024-05-07T13:00:58Z</time>
      </trkpt>
      <trkpt lat="47.57871" lon="-3.05209">
        <ele>6.6</ele>
        <time>2024-05-07T13:00:59Z</time>
      </trkpt>
      <trkpt lat="47.57871" lon="-3.05209">
        <ele>6.6</ele>
        <time>2024-05-07T13:01:00Z</time>
      </trkpt>
      <trkpt lat="47.57871" lon="-3.05209">
        <ele>6.6</ele>
        <time>2024-05-07T13:01:01Z</time>
      </trkpt>
      <trkpt lat="47.57871" lon="-3.05209">
        <ele>6.6</ele>
        <time>2024-05-07T13:01:02Z</time>
      </trkpt>
      <trkpt lat="47.57871" lon="-3.05209">
        <ele>6.4</ele>
        <time>2024-05-07T13:01:03Z</time>
      </trkpt>
      <trkpt lat="47.57871" lon="-3.05209">
        <ele>6.4</ele>
        <time>2024-05-07T13:01:04Z</time>
      </trkpt>
      <trkpt lat="47.57871" lon="-3.05209">
        <ele>6.6</ele>
        <time>2024-05-07T13:01:05Z</time>
      </trkpt>
      <trkpt lat="47.57871" lon="-3.05209">
        <ele>6.6</ele>
        <time>2024-05-07T13:01:06Z</time>
      </trkpt>
      <trkpt lat="47.57871" lon="-3.05209">
        <ele>6.4</ele>
        <time>2024-05-07T13:01:07Z</time>
      </trkpt>
      <trkpt lat="47.57871" lon="-3.05209">
        <ele>6.4</ele>
        <time>2024-05-07T13:01:08Z</time>
      </trkpt>
      <trkpt lat="47.57871" lon="-3.05209">
        <ele>6.2</ele>
        <time>2024-05-07T13:01:09Z</time>
      </trkpt>
      <trkpt lat="47.57871" lon="-3.05209">
        <ele>6.4</ele>
        <time>2024-05-07T13:01:10Z</time>
      </trkpt>
      <trkpt lat="47.57871" lon="-3.05209">
        <ele>6.4</ele>
        <time>2024-05-07T13:01:11Z</time>
      </trkpt>
      <trkpt lat="47.57871" lon="-3.05209">
        <ele>6.4</ele>
        <time>2024-05-07T13:01:12Z</time>
      </trkpt>
      <trkpt lat="47.57871" lon="-3.05209">
        <ele>6.4</ele>
        <time>2024-05-07T13:01:13Z</time>
      </trkpt>
      <trkpt lat="47.57871" lon="-3.05209">
        <ele>6.6</ele>
        <time>2024-05-07T13:01:14Z</time>
      </trkpt>
      <trkpt lat="47.57871" lon="-3.05209">
        <ele>6.6</ele>
        <time>2024-05-07T13:01:15Z</time>
      </trkpt>
      <trkpt lat="47.57871" lon="-3.05209">
        <ele>6.6</ele>
        <time>2024-05-07T13:01:16Z</time>
      </trkpt>
      <trkpt lat="47.57871" lon="-3.05209">
        <ele>6.6</ele>
        <time>2024-05-07T13:01:17Z</time>
      </trkpt>
      <trkpt lat="47.57871" lon="-3.05209">
        <ele>6.6</ele>
        <time>2024-05-07T13:01:18Z</time>
      </trkpt>
      <trkpt lat="47.57871" lon="-3.05209">
        <ele>6.6</ele>
        <time>2024-05-07T13:01:19Z</time>
      </trkpt>
      <trkpt lat="47.57871" lon="-3.05209">
        <ele>6.6</ele>
        <time>2024-05-07T13:01:20Z</time>
      </trkpt>
      <trkpt lat="47.57871" lon="-3.05209">
        <ele>6.6</ele>
        <time>2024-05-07T13:01:21Z</time>
      </trkpt>
      <trkpt lat="47.57871" lon="-3.05209">
        <ele>6.6</ele>
        <time>2024-05-07T13:01:22Z</time>
      </trkpt>
      <trkpt lat="47.57871" lon="-3.05209">
        <ele>6.6</ele>
        <time>2024-05-07T13:01:23Z</time>
      </trkpt>
      <trkpt lat="47.57871" lon="-3.05209">
        <ele>6.6</ele>
        <time>2024-05-07T13:01:24Z</time>
      </trkpt>
      <trkpt lat="47.57871" lon="-3.05209">
        <ele>6.6</ele>
        <time>2024-05-07T13:01:25Z</time>
      </trkpt>
      <trkpt lat="47.57871" lon="-3.0521">
        <ele>6.6</ele>
        <time>2024-05-07T13:01:26Z</time>
      </trkpt>
      <trkpt lat="47.57871" lon="-3.0521">
        <ele>6.8</ele>
        <time>2024-05-07T13:01:27Z</time>
      </trkpt>
      <trkpt lat="47.57871" lon="-3.0521">
        <ele>6.8</ele>
        <time>2024-05-07T13:01:28Z</time>
      </trkpt>
      <trkpt lat="47.57871" lon="-3.0521">
        <ele>6.8</ele>
        <time>2024-05-07T13:01:29Z</time>
      </trkpt>
      <trkpt lat="47.57871" lon="-3.0521">
        <ele>6.8</ele>
        <time>2024-05-07T13:01:30Z</time>
      </trkpt>
      <trkpt lat="47.57871" lon="-3.0521">
        <ele>6.8</ele>
        <time>2024-05-07T13:01:31Z</time>
      </trkpt>
      <trkpt lat="47.57871" lon="-3.0521">
        <ele>6.8</ele>
        <time>2024-05-07T13:01:32Z</time>
      </trkpt>
      <trkpt lat="47.57871" lon="-3.05211">
        <ele>6.8</ele>
        <time>2024-05-07T13:01:33Z</time>
      </trkpt>
      <trkpt lat="47.57871" lon="-3.05211">
        <ele>6.8</ele>
        <time>2024-05-07T13:01:34Z</time>
      </trkpt>
      <trkpt lat="47.57871" lon="-3.05211">
        <ele>6.8</ele>
        <time>2024-05-07T13:01:35Z</time>
      </trkpt>
      <trkpt lat="47.57871" lon="-3.05211">
        <ele>6.8</ele>
        <time>2024-05-07T13:01:36Z</time>
      </trkpt>
      <trkpt lat="47.57871" lon="-3.05211">
        <ele>6.6</ele>
        <time>2024-05-07T13:01:37Z</time>
      </trkpt>
      <trkpt lat="47.57871" lon="-3.05211">
        <ele>6.8</ele>
        <time>2024-05-07T13:01:38Z</time>
      </trkpt>
      <trkpt lat="47.57871" lon="-3.05211">
        <ele>6.8</ele>
        <time>2024-05-07T13:01:39Z</time>
      </trkpt>
      <trkpt lat="47.57871" lon="-3.05211">
        <ele>6.8</ele>
        <time>2024-05-07T13:01:40Z</time>
      </trkpt>
      <trkpt lat="47.57871" lon="-3.05211">
        <ele>6.8</ele>
        <time>2024-05-07T13:01:41Z</time>
      </trkpt>
      <trkpt lat="47.57871" lon="-3.05211">
        <ele>6.8</ele>
        <time>2024-05-07T13:01:42Z</time>
      </trkpt>
      <trkpt lat="47.57871" lon="-3.05212">
        <ele>6.8</ele>
        <time>2024-05-07T13:01:43Z</time>
      </trkpt>
      <trkpt lat="47.57871" lon="-3.05212">
        <ele>6.8</ele>
        <time>2024-05-07T13:01:44Z</time>
      </trkpt>
      <trkpt lat="47.57871" lon="-3.05212">
        <ele>6.8</ele>
        <time>2024-05-07T13:01:45Z</time>
      </trkpt>
      <trkpt lat="47.57872" lon="-3.05212">
        <ele>6.8</ele>
        <time>2024-05-07T13:01:46Z</time>
      </trkpt>
      <trkpt lat="47.57872" lon="-3.05212">
        <ele>6.8</ele>
        <time>2024-05-07T13:01:47Z</time>
      </trkpt>
      <trkpt lat="47.57872" lon="-3.05212">
        <ele>6.8</ele>
        <time>2024-05-07T13:01:48Z</time>
      </trkpt>
      <trkpt lat="47.57872" lon="-3.05212">
        <ele>6.8</ele>
        <time>2024-05-07T13:01:49Z</time>
      </trkpt>
      <trkpt lat="47.57873" lon="-3.05212">
        <ele>6.8</ele>
        <time>2024-05-07T13:01:50Z</time>
      </trkpt>
      <trkpt lat="47.57873" lon="-3.05212">
        <ele>6.8</ele>
        <time>2024-05-07T13:01:51Z</time>
      </trkpt>
      <trkpt lat="47.57873" lon="-3.05212">
        <ele>6.8</ele>
        <time>2024-05-07T13:01:52Z</time>
      </trkpt>
      <trkpt lat="47.57873" lon="-3.05213">
        <ele>6.8</ele>
        <time>2024-05-07T13:01:53Z</time>
      </trkpt>
      <trkpt lat="47.57873" lon="-3.05213">
        <ele>6.8</ele>
        <time>2024-05-07T13:01:54Z</time>
      </trkpt>
      <trkpt lat="47.57873" lon="-3.05213">
        <ele>6.8</ele>
        <time>2024-05-07T13:01:55Z</time>
      </trkpt>
      <trkpt lat="47.57873" lon="-3.05213">
        <ele>6.8</ele>
        <time>2024-05-07T13:01:56Z</time>
      </trkpt>
      <trkpt lat="47.57873" lon="-3.05214">
        <ele>6.8</ele>
        <time>2024-05-07T13:01:57Z</time>
      </trkpt>
      <trkpt lat="47.57873" lon="-3.05214">
        <ele>6.8</ele>
        <time>2024-05-07T13:01:58Z</time>
      </trkpt>
      <trkpt lat="47.57873" lon="-3.05214">
        <ele>6.8</ele>
        <time>2024-05-07T13:01:59Z</time>
      </trkpt>
      <trkpt lat="47.57873" lon="-3.05214">
        <ele>6.8</ele>
        <time>2024-05-07T13:02:00Z</time>
      </trkpt>
      <trkpt lat="47.57873" lon="-3.05214">
        <ele>6.8</ele>
        <time>2024-05-07T13:02:01Z</time>
      </trkpt>
      <trkpt lat="47.57873" lon="-3.05214">
        <ele>6.8</ele>
        <time>2024-05-07T13:02:02Z</time>
      </trkpt>
      <trkpt lat="47.57873" lon="-3.05214">
        <ele>6.8</ele>
        <time>2024-05-07T13:02:03Z</time>
      </trkpt>
      <trkpt lat="47.57873" lon="-3.05214">
        <ele>6.8</ele>
        <time>2024-05-07T13:02:04Z</time>
      </trkpt>
      <trkpt lat="47.57873" lon="-3.05214">
        <ele>6.8</ele>
        <time>2024-05-07T13:02:05Z</time>
      </trkpt>
      <trkpt lat="47.57873" lon="-3.05214">
        <ele>6.8</ele>
        <time>2024-05-07T13:02:06Z</time>
      </trkpt>
      <trkpt lat="47.57873" lon="-3.05214">
        <ele>6.8</ele>
        <time>2024-05-07T13:02:07Z</time>
      </trkpt>
      <trkpt lat="47.57872" lon="-3.05214">
        <ele>6.8</ele>
        <time>2024-05-07T13:02:08Z</time>
      </trkpt>
      <trkpt lat="47.57872" lon="-3.05214">
        <ele>6.8</ele>
        <time>2024-05-07T13:02:09Z</time>
      </trkpt>
      <trkpt lat="47.57872" lon="-3.05214">
        <ele>6.8</ele>
        <time>2024-05-07T13:02:10Z</time>
      </trkpt>
      <trkpt lat="47.57872" lon="-3.05214">
        <ele>6.8</ele>
        <time>2024-05-07T13:02:11Z</time>
      </trkpt>
      <trkpt lat="47.57872" lon="-3.05214">
        <ele>6.8</ele>
        <time>2024-05-07T13:02:12Z</time>
      </trkpt>
      <trkpt lat="47.57872" lon="-3.05214">
        <ele>6.8</ele>
        <time>2024-05-07T13:02:13Z</time>
      </trkpt>
      <trkpt lat="47.57871" lon="-3.05214">
        <ele>6.8</ele>
        <time>2024-05-07T13:02:14Z</time>
      </trkpt>
      <trkpt lat="47.57871" lon="-3.05214">
        <ele>6.8</ele>
        <time>2024-05-07T13:02:15Z</time>
      </trkpt>
      <trkpt lat="47.57871" lon="-3.05214">
        <ele>6.8</ele>
        <time>2024-05-07T13:02:16Z</time>
      </trkpt>
      <trkpt lat="47.57871" lon="-3.05214">
        <ele>6.8</ele>
        <time>2024-05-07T13:02:17Z</time>
      </trkpt>
      <trkpt lat="47.57871" lon="-3.05214">
        <ele>6.8</ele>
        <time>2024-05-07T13:02:18Z</time>
      </trkpt>
      <trkpt lat="47.57871" lon="-3.05214">
        <ele>6.8</ele>
        <time>2024-05-07T13:02:19Z</time>
      </trkpt>
      <trkpt lat="47.57871" lon="-3.05213">
        <ele>6.8</ele>
        <time>2024-05-07T13:02:20Z</time>
      </trkpt>
      <trkpt lat="47.57871" lon="-3.05213">
        <ele>6.8</ele>
        <time>2024-05-07T13:02:21Z</time>
      </trkpt>
      <trkpt lat="47.57871" lon="-3.05213">
        <ele>6.8</ele>
        <time>2024-05-07T13:02:22Z</time>
      </trkpt>
      <trkpt lat="47.57871" lon="-3.05212">
        <ele>6.8</ele>
        <time>2024-05-07T13:02:23Z</time>
      </trkpt>
      <trkpt lat="47.57871" lon="-3.05212">
        <ele>7</ele>
        <time>2024-05-07T13:02:24Z</time>
      </trkpt>
      <trkpt lat="47.5787" lon="-3.05212">
        <ele>7</ele>
        <time>2024-05-07T13:02:25Z</time>
      </trkpt>
      <trkpt lat="47.5787" lon="-3.05212">
        <ele>7</ele>
        <time>2024-05-07T13:02:26Z</time>
      </trkpt>
      <trkpt lat="47.5787" lon="-3.05212">
        <ele>7</ele>
        <time>2024-05-07T13:02:27Z</time>
      </trkpt>
      <trkpt lat="47.5787" lon="-3.05212">
        <ele>7</ele>
        <time>2024-05-07T13:02:28Z</time>
      </trkpt>
      <trkpt lat="47.5787" lon="-3.05212">
        <ele>7</ele>
        <time>2024-05-07T13:02:29Z</time>
      </trkpt>
      <trkpt lat="47.5787" lon="-3.05211">
        <ele>7</ele>
        <time>2024-05-07T13:02:30Z</time>
      </trkpt>
      <trkpt lat="47.5787" lon="-3.05211">
        <ele>7</ele>
        <time>2024-05-07T13:02:31Z</time>
      </trkpt>
      <trkpt lat="47.5787" lon="-3.05211">
        <ele>7</ele>
        <time>2024-05-07T13:02:32Z</time>
      </trkpt>
      <trkpt lat="47.5787" lon="-3.05211">
        <ele>7.2</ele>
        <time>2024-05-07T13:02:33Z</time>
      </trkpt>
      <trkpt lat="47.5787" lon="-3.05211">
        <ele>7.2</ele>
        <time>2024-05-07T13:02:34Z</time>
      </trkpt>
      <trkpt lat="47.5787" lon="-3.05211">
        <ele>7</ele>
        <time>2024-05-07T13:02:35Z</time>
      </trkpt>
      <trkpt lat="47.5787" lon="-3.05211">
        <ele>7</ele>
        <time>2024-05-07T13:02:36Z</time>
      </trkpt>
      <trkpt lat="47.5787" lon="-3.05211">
        <ele>7</ele>
        <time>2024-05-07T13:02:37Z</time>
      </trkpt>
      <trkpt lat="47.5787" lon="-3.0521">
        <ele>7</ele>
        <time>2024-05-07T13:02:38Z</time>
      </trkpt>
      <trkpt lat="47.5787" lon="-3.0521">
        <ele>7</ele>
        <time>2024-05-07T13:02:39Z</time>
      </trkpt>
      <trkpt lat="47.5787" lon="-3.0521">
        <ele>7</ele>
        <time>2024-05-07T13:02:40Z</time>
      </trkpt>
      <trkpt lat="47.5787" lon="-3.0521">
        <ele>6.8</ele>
        <time>2024-05-07T13:02:41Z</time>
      </trkpt>
      <trkpt lat="47.5787" lon="-3.0521">
        <ele>6.8</ele>
        <time>2024-05-07T13:02:42Z</time>
      </trkpt>
      <trkpt lat="47.57869" lon="-3.0521">
        <ele>6.8</ele>
        <time>2024-05-07T13:02:43Z</time>
      </trkpt>
      <trkpt lat="47.57869" lon="-3.0521">
        <ele>6.8</ele>
        <time>2024-05-07T13:02:44Z</time>
      </trkpt>
      <trkpt lat="47.57869" lon="-3.0521">
        <ele>6.8</ele>
        <time>2024-05-07T13:02:45Z</time>
      </trkpt>
      <trkpt lat="47.57869" lon="-3.0521">
        <ele>6.8</ele>
        <time>2024-05-07T13:02:46Z</time>
      </trkpt>
      <trkpt lat="47.57869" lon="-3.05211">
        <ele>6.8</ele>
        <time>2024-05-07T13:02:47Z</time>
      </trkpt>
      <trkpt lat="47.57869" lon="-3.05211">
        <ele>6.8</ele>
        <time>2024-05-07T13:02:48Z</time>
      </trkpt>
      <trkpt lat="47.57869" lon="-3.05211">
        <ele>6.8</ele>
        <time>2024-05-07T13:02:49Z</time>
      </trkpt>
      <trkpt lat="47.57869" lon="-3.05211">
        <ele>6.8</ele>
        <time>2024-05-07T13:02:50Z</time>
      </trkpt>
      <trkpt lat="47.57869" lon="-3.05212">
        <ele>6.8</ele>
        <time>2024-05-07T13:02:51Z</time>
      </trkpt>
      <trkpt lat="47.57869" lon="-3.05212">
        <ele>6.8</ele>
        <time>2024-05-07T13:02:52Z</time>
      </trkpt>
      <trkpt lat="47.57869" lon="-3.05212">
        <ele>6.8</ele>
        <time>2024-05-07T13:02:53Z</time>
      </trkpt>
      <trkpt lat="47.57869" lon="-3.05212">
        <ele>6.8</ele>
        <time>2024-05-07T13:02:54Z</time>
      </trkpt>
      <trkpt lat="47.57869" lon="-3.05212">
        <ele>6.8</ele>
        <time>2024-05-07T13:02:55Z</time>
      </trkpt>
      <trkpt lat="47.57869" lon="-3.05212">
        <ele>6.8</ele>
        <time>2024-05-07T13:02:56Z</time>
      </trkpt>
      <trkpt lat="47.57869" lon="-3.05212">
        <ele>6.8</ele>
        <time>2024-05-07T13:02:57Z</time>
      </trkpt>
      <trkpt lat="47.57869" lon="-3.05212">
        <ele>6.8</ele>
        <time>2024-05-07T13:02:58Z</time>
      </trkpt>
      <trkpt lat="47.57869" lon="-3.05212">
        <ele>6.8</ele>
        <time>2024-05-07T13:02:59Z</time>
      </trkpt>
      <trkpt lat="47.57869" lon="-3.05212">
        <ele>6.8</ele>
        <time>2024-05-07T13:03:00Z</time>
      </trkpt>
      <trkpt lat="47.57869" lon="-3.05212">
        <ele>6.8</ele>
        <time>2024-05-07T13:03:01Z</time>
      </trkpt>
      <trkpt lat="47.57869" lon="-3.05212">
        <ele>6.8</ele>
        <time>2024-05-07T13:03:02Z</time>
      </trkpt>
      <trkpt lat="47.57869" lon="-3.05212">
        <ele>6.8</ele>
        <time>2024-05-07T13:03:03Z</time>
      </trkpt>
      <trkpt lat="47.57869" lon="-3.05212">
        <ele>6.8</ele>
        <time>2024-05-07T13:03:04Z</time>
      </trkpt>
      <trkpt lat="47.57869" lon="-3.05212">
        <ele>6.8</ele>
        <time>2024-05-07T13:03:05Z</time>
      </trkpt>
      <trkpt lat="47.57869" lon="-3.05212">
        <ele>6.8</ele>
        <time>2024-05-07T13:03:06Z</time>
      </trkpt>
      <trkpt lat="47.57869" lon="-3.05212">
        <ele>6.8</ele>
        <time>2024-05-07T13:03:07Z</time>
      </trkpt>
      <trkpt lat="47.5787" lon="-3.05212">
        <ele>6.8</ele>
        <time>2024-05-07T13:03:08Z</time>
      </trkpt>
      <trkpt lat="47.5787" lon="-3.05212">
        <ele>6.8</ele>
        <time>2024-05-07T13:03:09Z</time>
      </trkpt>
      <trkpt lat="47.5787" lon="-3.05212">
        <ele>6.8</ele>
        <time>2024-05-07T13:03:10Z</time>
      </trkpt>
      <trkpt lat="47.5787" lon="-3.05212">
        <ele>6.8</ele>
        <time>2024-05-07T13:03:11Z</time>
      </trkpt>
      <trkpt lat="47.5787" lon="-3.05212">
        <ele>6.8</ele>
        <time>2024-05-07T13:03:12Z</time>
      </trkpt>
      <trkpt lat="47.5787" lon="-3.05212">
        <ele>6.8</ele>
        <time>2024-05-07T13:03:13Z</time>
      </trkpt>
      <trkpt lat="47.57869" lon="-3.05212">
        <ele>6.8</ele>
        <time>2024-05-07T13:03:14Z</time>
      </trkpt>
      <trkpt lat="47.57869" lon="-3.05212">
        <ele>6.8</ele>
        <time>2024-05-07T13:03:15Z</time>
      </trkpt>
      <trkpt lat="47.57869" lon="-3.05212">
        <ele>6.8</ele>
        <time>2024-05-07T13:03:16Z</time>
      </trkpt>
      <trkpt lat="47.57869" lon="-3.05212">
        <ele>6.6</ele>
        <time>2024-05-07T13:03:17Z</time>
      </trkpt>
      <trkpt lat="47.57869" lon="-3.05212">
        <ele>6.6</ele>
        <time>2024-05-07T13:03:18Z</time>
      </trkpt>
      <trkpt lat="47.57869" lon="-3.05212">
        <ele>6.6</ele>
        <time>2024-05-07T13:03:19Z</time>
      </trkpt>
      <trkpt lat="47.57869" lon="-3.05212">
        <ele>6.6</ele>
        <time>2024-05-07T13:03:20Z</time>
      </trkpt>
      <trkpt lat="47.57869" lon="-3.05211">
        <ele>6.6</ele>
        <time>2024-05-07T13:03:21Z</time>
      </trkpt>
      <trkpt lat="47.57869" lon="-3.05211">
        <ele>6.6</ele>
        <time>2024-05-07T13:03:22Z</time>
      </trkpt>
      <trkpt lat="47.57869" lon="-3.0521">
        <ele>6.6</ele>
        <time>2024-05-07T13:03:23Z</time>
      </trkpt>
      <trkpt lat="47.57869" lon="-3.05209">
        <ele>6.6</ele>
        <time>2024-05-07T13:03:24Z</time>
      </trkpt>
      <trkpt lat="47.57869" lon="-3.05209">
        <ele>6.6</ele>
        <time>2024-05-07T13:03:25Z</time>
      </trkpt>
      <trkpt lat="47.57869" lon="-3.05208">
        <ele>6.6</ele>
        <time>2024-05-07T13:03:26Z</time>
      </trkpt>
      <trkpt lat="47.57869" lon="-3.05208">
        <ele>6.6</ele>
        <time>2024-05-07T13:03:27Z</time>
      </trkpt>
      <trkpt lat="47.57869" lon="-3.05207">
        <ele>6.6</ele>
        <time>2024-05-07T13:03:28Z</time>
      </trkpt>
      <trkpt lat="47.57869" lon="-3.05207">
        <ele>6.6</ele>
        <time>2024-05-07T13:03:29Z</time>
      </trkpt>
      <trkpt lat="47.57869" lon="-3.05207">
        <ele>6.6</ele>
        <time>2024-05-07T13:03:30Z</time>
      </trkpt>
      <trkpt lat="47.57869" lon="-3.05207">
        <ele>6.6</ele>
        <time>2024-05-07T13:03:31Z</time>
      </trkpt>
      <trkpt lat="47.57868" lon="-3.05207">
        <ele>6.6</ele>
        <time>2024-05-07T13:03:32Z</time>
      </trkpt>
      <trkpt lat="47.57868" lon="-3.05206">
        <ele>6.4</ele>
        <time>2024-05-07T13:03:33Z</time>
      </trkpt>
      <trkpt lat="47.57868" lon="-3.05206">
        <ele>6.4</ele>
        <time>2024-05-07T13:03:34Z</time>
      </trkpt>
      <trkpt lat="47.57868" lon="-3.05206">
        <ele>6.4</ele>
        <time>2024-05-07T13:03:35Z</time>
      </trkpt>
      <trkpt lat="47.57868" lon="-3.05206">
        <ele>6.4</ele>
        <time>2024-05-07T13:03:36Z</time>
      </trkpt>
      <trkpt lat="47.57868" lon="-3.05206">
        <ele>6.4</ele>
        <time>2024-05-07T13:03:37Z</time>
      </trkpt>
      <trkpt lat="47.57869" lon="-3.05206">
        <ele>6.4</ele>
        <time>2024-05-07T13:03:38Z</time>
      </trkpt>
      <trkpt lat="47.57869" lon="-3.05206">
        <ele>6.6</ele>
        <time>2024-05-07T13:03:39Z</time>
      </trkpt>
      <trkpt lat="47.57869" lon="-3.05206">
        <ele>6.6</ele>
        <time>2024-05-07T13:03:40Z</time>
      </trkpt>
      <trkpt lat="47.57869" lon="-3.05206">
        <ele>6.6</ele>
        <time>2024-05-07T13:03:41Z</time>
      </trkpt>
      <trkpt lat="47.57869" lon="-3.05205">
        <ele>6.6</ele>
        <time>2024-05-07T13:03:42Z</time>
      </trkpt>
      <trkpt lat="47.57869" lon="-3.05205">
        <ele>6.6</ele>
        <time>2024-05-07T13:03:43Z</time>
      </trkpt>
      <trkpt lat="47.57869" lon="-3.05205">
        <ele>6.6</ele>
        <time>2024-05-07T13:03:44Z</time>
      </trkpt>
      <trkpt lat="47.57869" lon="-3.05205">
        <ele>6.6</ele>
        <time>2024-05-07T13:03:45Z</time>
      </trkpt>
      <trkpt lat="47.57869" lon="-3.05205">
        <ele>6.6</ele>
        <time>2024-05-07T13:03:46Z</time>
      </trkpt>
      <trkpt lat="47.57869" lon="-3.05205">
        <ele>6.6</ele>
        <time>2024-05-07T13:03:47Z</time>
      </trkpt>
      <trkpt lat="47.57869" lon="-3.05206">
        <ele>6.6</ele>
        <time>2024-05-07T13:03:48Z</time>
      </trkpt>
      <trkpt lat="47.57869" lon="-3.05206">
        <ele>6.6</ele>
        <time>2024-05-07T13:03:49Z</time>
      </trkpt>
      <trkpt lat="47.5787" lon="-3.05207">
        <ele>6.6</ele>
        <time>2024-05-07T13:03:50Z</time>
      </trkpt>
      <trkpt lat="47.5787" lon="-3.05207">
        <ele>6.4</ele>
        <time>2024-05-07T13:03:51Z</time>
      </trkpt>
      <trkpt lat="47.57869" lon="-3.05207">
        <ele>6.4</ele>
        <time>2024-05-07T13:03:52Z</time>
      </trkpt>
      <trkpt lat="47.57869" lon="-3.05208">
        <ele>6.4</ele>
        <time>2024-05-07T13:03:53Z</time>
      </trkpt>
      <trkpt lat="47.5787" lon="-3.05208">
        <ele>6.4</ele>
        <time>2024-05-07T13:03:54Z</time>
      </trkpt>
      <trkpt lat="47.5787" lon="-3.05208">
        <ele>6.4</ele>
        <time>2024-05-07T13:03:55Z</time>
      </trkpt>
      <trkpt lat="47.5787" lon="-3.05208">
        <ele>6.4</ele>
        <time>2024-05-07T13:03:56Z</time>
      </trkpt>
      <trkpt lat="47.5787" lon="-3.05208">
        <ele>6.4</ele>
        <time>2024-05-07T13:03:57Z</time>
      </trkpt>
      <trkpt lat="47.57869" lon="-3.05208">
        <ele>6.4</ele>
        <time>2024-05-07T13:03:58Z</time>
      </trkpt>
      <trkpt lat="47.57868" lon="-3.05208">
        <ele>6.4</ele>
        <time>2024-05-07T13:03:59Z</time>
      </trkpt>
      <trkpt lat="47.57868" lon="-3.05208">
        <ele>6.4</ele>
        <time>2024-05-07T13:04:00Z</time>
      </trkpt>
      <trkpt lat="47.57868" lon="-3.05208">
        <ele>6.4</ele>
        <time>2024-05-07T13:04:01Z</time>
      </trkpt>
      <trkpt lat="47.57868" lon="-3.05208">
        <ele>6.4</ele>
        <time>2024-05-07T13:04:02Z</time>
      </trkpt>
      <trkpt lat="47.57868" lon="-3.05208">
        <ele>6.4</ele>
        <time>2024-05-07T13:04:03Z</time>
      </trkpt>
      <trkpt lat="47.57868" lon="-3.05208">
        <ele>6.4</ele>
        <time>2024-05-07T13:04:04Z</time>
      </trkpt>
      <trkpt lat="47.57868" lon="-3.05208">
        <ele>6.4</ele>
        <time>2024-05-07T13:04:05Z</time>
      </trkpt>
      <trkpt lat="47.57868" lon="-3.05208">
        <ele>6.4</ele>
        <time>2024-05-07T13:04:06Z</time>
      </trkpt>
      <trkpt lat="47.57868" lon="-3.05208">
        <ele>6.4</ele>
        <time>2024-05-07T13:04:07Z</time>
      </trkpt>
      <trkpt lat="47.57868" lon="-3.05208">
        <ele>6.4</ele>
        <time>2024-05-07T13:04:08Z</time>
      </trkpt>
      <trkpt lat="47.57868" lon="-3.05208">
        <ele>6.4</ele>
        <time>2024-05-07T13:04:09Z</time>
      </trkpt>
      <trkpt lat="47.57868" lon="-3.05208">
        <ele>6.4</ele>
        <time>2024-05-07T13:04:10Z</time>
      </trkpt>
      <trkpt lat="47.57868" lon="-3.05208">
        <ele>6.4</ele>
        <time>2024-05-07T13:04:11Z</time>
      </trkpt>
      <trkpt lat="47.57868" lon="-3.05209">
        <ele>6.2</ele>
        <time>2024-05-07T13:04:12Z</time>
      </trkpt>
      <trkpt lat="47.57868" lon="-3.05209">
        <ele>6.2</ele>
        <time>2024-05-07T13:04:13Z</time>
      </trkpt>
      <trkpt lat="47.57868" lon="-3.05209">
        <ele>6.2</ele>
        <time>2024-05-07T13:04:14Z</time>
      </trkpt>
      <trkpt lat="47.57868" lon="-3.05209">
        <ele>6.2</ele>
        <time>2024-05-07T13:04:15Z</time>
      </trkpt>
      <trkpt lat="47.57868" lon="-3.05209">
        <ele>6.2</ele>
        <time>2024-05-07T13:04:16Z</time>
      </trkpt>
      <trkpt lat="47.57868" lon="-3.05209">
        <ele>6.2</ele>
        <time>2024-05-07T13:04:17Z</time>
      </trkpt>
      <trkpt lat="47.57868" lon="-3.05209">
        <ele>6.2</ele>
        <time>2024-05-07T13:04:18Z</time>
      </trkpt>
      <trkpt lat="47.57869" lon="-3.05209">
        <ele>6.2</ele>
        <time>2024-05-07T13:04:19Z</time>
      </trkpt>
      <trkpt lat="47.57869" lon="-3.05209">
        <ele>6.2</ele>
        <time>2024-05-07T13:04:20Z</time>
      </trkpt>
      <trkpt lat="47.57869" lon="-3.05209">
        <ele>6.2</ele>
        <time>2024-05-07T13:04:21Z</time>
      </trkpt>
      <trkpt lat="47.57869" lon="-3.05209">
        <ele>6.2</ele>
        <time>2024-05-07T13:04:22Z</time>
      </trkpt>
      <trkpt lat="47.57869" lon="-3.05209">
        <ele>6.2</ele>
        <time>2024-05-07T13:04:23Z</time>
      </trkpt>
      <trkpt lat="47.57869" lon="-3.05209">
        <ele>6.2</ele>
        <time>2024-05-07T13:04:24Z</time>
      </trkpt>
      <trkpt lat="47.57869" lon="-3.05209">
        <ele>6.2</ele>
        <time>2024-05-07T13:04:25Z</time>
      </trkpt>
      <trkpt lat="47.57869" lon="-3.05209">
        <ele>6.2</ele>
        <time>2024-05-07T13:04:26Z</time>
      </trkpt>
      <trkpt lat="47.57869" lon="-3.05209">
        <ele>6</ele>
        <time>2024-05-07T13:04:27Z</time>
      </trkpt>
      <trkpt lat="47.57869" lon="-3.05209">
        <ele>6</ele>
        <time>2024-05-07T13:04:28Z</time>
      </trkpt>
      <trkpt lat="47.57869" lon="-3.05209">
        <ele>6</ele>
        <time>2024-05-07T13:04:29Z</time>
      </trkpt>
      <trkpt lat="47.57869" lon="-3.05209">
        <ele>6</ele>
        <time>2024-05-07T13:04:30Z</time>
      </trkpt>
      <trkpt lat="47.57869" lon="-3.05209">
        <ele>6</ele>
        <time>2024-05-07T13:04:31Z</time>
      </trkpt>
      <trkpt lat="47.57869" lon="-3.05209">
        <ele>6</ele>
        <time>2024-05-07T13:04:32Z</time>
      </trkpt>
      <trkpt lat="47.57869" lon="-3.05209">
        <ele>6</ele>
        <time>2024-05-07T13:04:33Z</time>
      </trkpt>
      <trkpt lat="47.57869" lon="-3.05209">
        <ele>6</ele>
        <time>2024-05-07T13:04:34Z</time>
      </trkpt>
      <trkpt lat="47.57869" lon="-3.05209">
        <ele>6.2</ele>
        <time>2024-05-07T13:04:35Z</time>
      </trkpt>
      <trkpt lat="47.57869" lon="-3.0521">
        <ele>6.2</ele>
        <time>2024-05-07T13:04:36Z</time>
      </trkpt>
      <trkpt lat="47.57869" lon="-3.0521">
        <ele>6.2</ele>
        <time>2024-05-07T13:04:37Z</time>
      </trkpt>
      <trkpt lat="47.57869" lon="-3.0521">
        <ele>6.2</ele>
        <time>2024-05-07T13:04:38Z</time>
      </trkpt>
      <trkpt lat="47.57869" lon="-3.0521">
        <ele>6.2</ele>
        <time>2024-05-07T13:04:39Z</time>
      </trkpt>
      <trkpt lat="47.57869" lon="-3.0521">
        <ele>6.2</ele>
        <time>2024-05-07T13:04:40Z</time>
      </trkpt>
      <trkpt lat="47.57869" lon="-3.0521">
        <ele>6.2</ele>
        <time>2024-05-07T13:04:41Z</time>
      </trkpt>
      <trkpt lat="47.57869" lon="-3.0521">
        <ele>6.2</ele>
        <time>2024-05-07T13:04:42Z</time>
      </trkpt>
      <trkpt lat="47.57869" lon="-3.0521">
        <ele>6.2</ele>
        <time>2024-05-07T13:04:43Z</time>
      </trkpt>
      <trkpt lat="47.57869" lon="-3.0521">
        <ele>6.2</ele>
        <time>2024-05-07T13:04:44Z</time>
      </trkpt>
      <trkpt lat="47.57869" lon="-3.0521">
        <ele>6.2</ele>
        <time>2024-05-07T13:04:45Z</time>
      </trkpt>
      <trkpt lat="47.57869" lon="-3.0521">
        <ele>6.2</ele>
        <time>2024-05-07T13:04:46Z</time>
      </trkpt>
      <trkpt lat="47.57869" lon="-3.0521">
        <ele>6.2</ele>
        <time>2024-05-07T13:04:47Z</time>
      </trkpt>
      <trkpt lat="47.57869" lon="-3.0521">
        <ele>6.2</ele>
        <time>2024-05-07T13:04:48Z</time>
      </trkpt>
      <trkpt lat="47.57869" lon="-3.0521">
        <ele>6.2</ele>
        <time>2024-05-07T13:04:49Z</time>
      </trkpt>
      <trkpt lat="47.57869" lon="-3.0521">
        <ele>6.4</ele>
        <time>2024-05-07T13:04:50Z</time>
      </trkpt>
      <trkpt lat="47.57869" lon="-3.0521">
        <ele>6.4</ele>
        <time>2024-05-07T13:04:51Z</time>
      </trkpt>
      <trkpt lat="47.57869" lon="-3.05209">
        <ele>6.4</ele>
        <time>2024-05-07T13:04:52Z</time>
      </trkpt>
      <trkpt lat="47.57869" lon="-3.05209">
        <ele>6.4</ele>
        <time>2024-05-07T13:04:53Z</time>
      </trkpt>
      <trkpt lat="47.57868" lon="-3.05209">
        <ele>6.4</ele>
        <time>2024-05-07T13:04:54Z</time>
      </trkpt>
      <trkpt lat="47.57868" lon="-3.05209">
        <ele>6.6</ele>
        <time>2024-05-07T13:04:55Z</time>
      </trkpt>
      <trkpt lat="47.57868" lon="-3.05209">
        <ele>6.6</ele>
        <time>2024-05-07T13:04:56Z</time>
      </trkpt>
      <trkpt lat="47.57868" lon="-3.05209">
        <ele>6.6</ele>
        <time>2024-05-07T13:04:57Z</time>
      </trkpt>
      <trkpt lat="47.57868" lon="-3.05209">
        <ele>6.6</ele>
        <time>2024-05-07T13:04:58Z</time>
      </trkpt>
      <trkpt lat="47.57868" lon="-3.05209">
        <ele>6.4</ele>
        <time>2024-05-07T13:04:59Z</time>
      </trkpt>
      <trkpt lat="47.57867" lon="-3.05209">
        <ele>6.4</ele>
        <time>2024-05-07T13:05:00Z</time>
      </trkpt>
      <trkpt lat="47.57866" lon="-3.05209">
        <ele>6.4</ele>
        <time>2024-05-07T13:05:01Z</time>
      </trkpt>
      <trkpt lat="47.57866" lon="-3.05209">
        <ele>6.4</ele>
        <time>2024-05-07T13:05:02Z</time>
      </trkpt>
      <trkpt lat="47.57865" lon="-3.05209">
        <ele>6.4</ele>
        <time>2024-05-07T13:05:03Z</time>
      </trkpt>
      <trkpt lat="47.57865" lon="-3.05209">
        <ele>6.4</ele>
        <time>2024-05-07T13:05:04Z</time>
      </trkpt>
      <trkpt lat="47.57865" lon="-3.05209">
        <ele>6.4</ele>
        <time>2024-05-07T13:05:05Z</time>
      </trkpt>
      <trkpt lat="47.57865" lon="-3.05209">
        <ele>6.4</ele>
        <time>2024-05-07T13:05:06Z</time>
      </trkpt>
      <trkpt lat="47.57865" lon="-3.05208">
        <ele>6.4</ele>
        <time>2024-05-07T13:05:07Z</time>
      </trkpt>
      <trkpt lat="47.57865" lon="-3.05208">
        <ele>6.4</ele>
        <time>2024-05-07T13:05:08Z</time>
      </trkpt>
      <trkpt lat="47.57865" lon="-3.05208">
        <ele>6.2</ele>
        <time>2024-05-07T13:05:09Z</time>
      </trkpt>
      <trkpt lat="47.57865" lon="-3.05208">
        <ele>6.2</ele>
        <time>2024-05-07T13:05:10Z</time>
      </trkpt>
      <trkpt lat="47.57865" lon="-3.05208">
        <ele>6.2</ele>
        <time>2024-05-07T13:05:11Z</time>
      </trkpt>
      <trkpt lat="47.57865" lon="-3.05207">
        <ele>6.2</ele>
        <time>2024-05-07T13:05:12Z</time>
      </trkpt>
      <trkpt lat="47.57865" lon="-3.05206">
        <ele>6.2</ele>
        <time>2024-05-07T13:05:13Z</time>
      </trkpt>
      <trkpt lat="47.57865" lon="-3.05206">
        <ele>6.2</ele>
        <time>2024-05-07T13:05:14Z</time>
      </trkpt>
      <trkpt lat="47.57865" lon="-3.05205">
        <ele>6.2</ele>
        <time>2024-05-07T13:05:15Z</time>
      </trkpt>
      <trkpt lat="47.57865" lon="-3.05205">
        <ele>6.2</ele>
        <time>2024-05-07T13:05:16Z</time>
      </trkpt>
      <trkpt lat="47.57865" lon="-3.05205">
        <ele>6.2</ele>
        <time>2024-05-07T13:05:17Z</time>
      </trkpt>
      <trkpt lat="47.57865" lon="-3.05205">
        <ele>6.2</ele>
        <time>2024-05-07T13:05:18Z</time>
      </trkpt>
      <trkpt lat="47.57865" lon="-3.05205">
        <ele>6.2</ele>
        <time>2024-05-07T13:05:19Z</time>
      </trkpt>
      <trkpt lat="47.57865" lon="-3.05205">
        <ele>6.2</ele>
        <time>2024-05-07T13:05:20Z</time>
      </trkpt>
      <trkpt lat="47.57866" lon="-3.05205">
        <ele>6.2</ele>
        <time>2024-05-07T13:05:21Z</time>
      </trkpt>
      <trkpt lat="47.57866" lon="-3.05205">
        <ele>6.2</ele>
        <time>2024-05-07T13:05:22Z</time>
      </trkpt>
      <trkpt lat="47.57866" lon="-3.05205">
        <ele>6.2</ele>
        <time>2024-05-07T13:05:23Z</time>
      </trkpt>
      <trkpt lat="47.57866" lon="-3.05205">
        <ele>6.4</ele>
        <time>2024-05-07T13:05:24Z</time>
      </trkpt>
      <trkpt lat="47.57866" lon="-3.05205">
        <ele>6.4</ele>
        <time>2024-05-07T13:05:25Z</time>
      </trkpt>
      <trkpt lat="47.57866" lon="-3.05205">
        <ele>6.4</ele>
        <time>2024-05-07T13:05:26Z</time>
      </trkpt>
      <trkpt lat="47.57866" lon="-3.05205">
        <ele>6.4</ele>
        <time>2024-05-07T13:05:27Z</time>
      </trkpt>
      <trkpt lat="47.57866" lon="-3.05205">
        <ele>6.4</ele>
        <time>2024-05-07T13:05:28Z</time>
      </trkpt>
      <trkpt lat="47.57866" lon="-3.05205">
        <ele>6.4</ele>
        <time>2024-05-07T13:05:29Z</time>
      </trkpt>
      <trkpt lat="47.57867" lon="-3.05205">
        <ele>6.2</ele>
        <time>2024-05-07T13:05:30Z</time>
      </trkpt>
      <trkpt lat="47.57867" lon="-3.05205">
        <ele>6.2</ele>
        <time>2024-05-07T13:05:31Z</time>
      </trkpt>
      <trkpt lat="47.57867" lon="-3.05205">
        <ele>6.2</ele>
        <time>2024-05-07T13:05:32Z</time>
      </trkpt>
      <trkpt lat="47.57867" lon="-3.05205">
        <ele>6.2</ele>
        <time>2024-05-07T13:05:33Z</time>
      </trkpt>
      <trkpt lat="47.57867" lon="-3.05205">
        <ele>6.2</ele>
        <time>2024-05-07T13:05:34Z</time>
      </trkpt>
      <trkpt lat="47.57867" lon="-3.05205">
        <ele>6.2</ele>
        <time>2024-05-07T13:05:35Z</time>
      </trkpt>
      <trkpt lat="47.57867" lon="-3.05205">
        <ele>6.2</ele>
        <time>2024-05-07T13:05:36Z</time>
      </trkpt>
      <trkpt lat="47.57867" lon="-3.05205">
        <ele>6.2</ele>
        <time>2024-05-07T13:05:37Z</time>
      </trkpt>
      <trkpt lat="47.57867" lon="-3.05205">
        <ele>6.2</ele>
        <time>2024-05-07T13:05:38Z</time>
      </trkpt>
      <trkpt lat="47.57867" lon="-3.05205">
        <ele>6.4</ele>
        <time>2024-05-07T13:05:39Z</time>
      </trkpt>
      <trkpt lat="47.57867" lon="-3.05205">
        <ele>6.4</ele>
        <time>2024-05-07T13:05:40Z</time>
      </trkpt>
      <trkpt lat="47.57867" lon="-3.05205">
        <ele>6.4</ele>
        <time>2024-05-07T13:05:41Z</time>
      </trkpt>
      <trkpt lat="47.57867" lon="-3.05205">
        <ele>6.4</ele>
        <time>2024-05-07T13:05:42Z</time>
      </trkpt>
      <trkpt lat="47.57867" lon="-3.05205">
        <ele>6.4</ele>
        <time>2024-05-07T13:05:43Z</time>
      </trkpt>
      <trkpt lat="47.57867" lon="-3.05205">
        <ele>6.4</ele>
        <time>2024-05-07T13:05:44Z</time>
      </trkpt>
      <trkpt lat="47.57867" lon="-3.05205">
        <ele>6.4</ele>
        <time>2024-05-07T13:05:45Z</time>
      </trkpt>
      <trkpt lat="47.57868" lon="-3.05205">
        <ele>6.4</ele>
        <time>2024-05-07T13:05:46Z</time>
      </trkpt>
      <trkpt lat="47.57868" lon="-3.05205">
        <ele>6.4</ele>
        <time>2024-05-07T13:05:47Z</time>
      </trkpt>
      <trkpt lat="47.57868" lon="-3.05205">
        <ele>6.4</ele>
        <time>2024-05-07T13:05:48Z</time>
      </trkpt>
      <trkpt lat="47.57868" lon="-3.05205">
        <ele>6.4</ele>
        <time>2024-05-07T13:05:49Z</time>
      </trkpt>
      <trkpt lat="47.57868" lon="-3.05205">
        <ele>6.4</ele>
        <time>2024-05-07T13:05:50Z</time>
      </trkpt>
      <trkpt lat="47.57868" lon="-3.05205">
        <ele>6.4</ele>
        <time>2024-05-07T13:05:51Z</time>
      </trkpt>
      <trkpt lat="47.57868" lon="-3.05205">
        <ele>6.6</ele>
        <time>2024-05-07T13:05:52Z</time>
      </trkpt>
      <trkpt lat="47.57868" lon="-3.05205">
        <ele>6.6</ele>
        <time>2024-05-07T13:05:53Z</time>
      </trkpt>
      <trkpt lat="47.57868" lon="-3.05205">
        <ele>6.4</ele>
        <time>2024-05-07T13:05:54Z</time>
      </trkpt>
      <trkpt lat="47.57868" lon="-3.05205">
        <ele>6.4</ele>
        <time>2024-05-07T13:05:55Z</time>
      </trkpt>
      <trkpt lat="47.57868" lon="-3.05205">
        <ele>6.4</ele>
        <time>2024-05-07T13:05:56Z</time>
      </trkpt>
      <trkpt lat="47.57868" lon="-3.05205">
        <ele>6.4</ele>
        <time>2024-05-07T13:05:57Z</time>
      </trkpt>
      <trkpt lat="47.57868" lon="-3.05205">
        <ele>6.4</ele>
        <time>2024-05-07T13:05:58Z</time>
      </trkpt>
      <trkpt lat="47.57868" lon="-3.05205">
        <ele>6.4</ele>
        <time>2024-05-07T13:05:59Z</time>
      </trkpt>
      <trkpt lat="47.57868" lon="-3.05205">
        <ele>6.4</ele>
        <time>2024-05-07T13:06:00Z</time>
      </trkpt>
      <trkpt lat="47.57868" lon="-3.05205">
        <ele>6.4</ele>
        <time>2024-05-07T13:06:01Z</time>
      </trkpt>
      <trkpt lat="47.57868" lon="-3.05205">
        <ele>6.4</ele>
        <time>2024-05-07T13:06:02Z</time>
      </trkpt>
      <trkpt lat="47.57868" lon="-3.05205">
        <ele>6.4</ele>
        <time>2024-05-07T13:06:03Z</time>
      </trkpt>
      <trkpt lat="47.57868" lon="-3.05205">
        <ele>6.4</ele>
        <time>2024-05-07T13:06:04Z</time>
      </trkpt>
      <trkpt lat="47.57868" lon="-3.05205">
        <ele>6.4</ele>
        <time>2024-05-07T13:06:05Z</time>
      </trkpt>
      <trkpt lat="47.57868" lon="-3.05204">
        <ele>6.4</ele>
        <time>2024-05-07T13:06:06Z</time>
      </trkpt>
      <trkpt lat="47.57868" lon="-3.05204">
        <ele>6.4</ele>
        <time>2024-05-07T13:06:07Z</time>
      </trkpt>
      <trkpt lat="47.57868" lon="-3.05204">
        <ele>6.4</ele>
        <time>2024-05-07T13:06:08Z</time>
      </trkpt>
      <trkpt lat="47.57868" lon="-3.05204">
        <ele>6.4</ele>
        <time>2024-05-07T13:06:09Z</time>
      </trkpt>
      <trkpt lat="47.57868" lon="-3.05204">
        <ele>6.4</ele>
        <time>2024-05-07T13:06:10Z</time>
      </trkpt>
      <trkpt lat="47.57868" lon="-3.05204">
        <ele>6.4</ele>
        <time>2024-05-07T13:06:11Z</time>
      </trkpt>
      <trkpt lat="47.57868" lon="-3.05204">
        <ele>6.2</ele>
        <time>2024-05-07T13:06:12Z</time>
      </trkpt>
      <trkpt lat="47.57868" lon="-3.05204">
        <ele>6.2</ele>
        <time>2024-05-07T13:06:13Z</time>
      </trkpt>
      <trkpt lat="47.57868" lon="-3.05204">
        <ele>6.4</ele>
        <time>2024-05-07T13:06:14Z</time>
      </trkpt>
      <trkpt lat="47.57868" lon="-3.05204">
        <ele>6.2</ele>
        <time>2024-05-07T13:06:15Z</time>
      </trkpt>
      <trkpt lat="47.57868" lon="-3.05205">
        <ele>6.2</ele>
        <time>2024-05-07T13:06:16Z</time>
      </trkpt>
      <trkpt lat="47.57868" lon="-3.05205">
        <ele>6.4</ele>
        <time>2024-05-07T13:06:17Z</time>
      </trkpt>
      <trkpt lat="47.57868" lon="-3.05205">
        <ele>6.4</ele>
        <time>2024-05-07T13:06:18Z</time>
      </trkpt>
      <trkpt lat="47.57868" lon="-3.05205">
        <ele>6.4</ele>
        <time>2024-05-07T13:06:19Z</time>
      </trkpt>
      <trkpt lat="47.57868" lon="-3.05205">
        <ele>6.4</ele>
        <time>2024-05-07T13:06:20Z</time>
      </trkpt>
      <trkpt lat="47.57867" lon="-3.05205">
        <ele>6.4</ele>
        <time>2024-05-07T13:06:21Z</time>
      </trkpt>
      <trkpt lat="47.57867" lon="-3.05205">
        <ele>6.4</ele>
        <time>2024-05-07T13:06:22Z</time>
      </trkpt>
      <trkpt lat="47.57867" lon="-3.05205">
        <ele>6.4</ele>
        <time>2024-05-07T13:06:23Z</time>
      </trkpt>
      <trkpt lat="47.57867" lon="-3.05205">
        <ele>6.4</ele>
        <time>2024-05-07T13:06:24Z</time>
      </trkpt>
      <trkpt lat="47.57867" lon="-3.05205">
        <ele>6.4</ele>
        <time>2024-05-07T13:06:25Z</time>
      </trkpt>
      <trkpt lat="47.57867" lon="-3.05205">
        <ele>6.2</ele>
        <time>2024-05-07T13:06:26Z</time>
      </trkpt>
      <trkpt lat="47.57867" lon="-3.05205">
        <ele>6.4</ele>
        <time>2024-05-07T13:06:27Z</time>
      </trkpt>
      <trkpt lat="47.57867" lon="-3.05205">
        <ele>6.4</ele>
        <time>2024-05-07T13:06:28Z</time>
      </trkpt>
      <trkpt lat="47.57867" lon="-3.05205">
        <ele>6.4</ele>
        <time>2024-05-07T13:06:29Z</time>
      </trkpt>
      <trkpt lat="47.57867" lon="-3.05205">
        <ele>6.4</ele>
        <time>2024-05-07T13:06:30Z</time>
      </trkpt>
      <trkpt lat="47.57867" lon="-3.05205">
        <ele>6.4</ele>
        <time>2024-05-07T13:06:31Z</time>
      </trkpt>
      <trkpt lat="47.57867" lon="-3.05205">
        <ele>6.4</ele>
        <time>2024-05-07T13:06:32Z</time>
      </trkpt>
      <trkpt lat="47.57867" lon="-3.05205">
        <ele>6.4</ele>
        <time>2024-05-07T13:06:33Z</time>
      </trkpt>
      <trkpt lat="47.57867" lon="-3.05205">
        <ele>6.4</ele>
        <time>2024-05-07T13:06:34Z</time>
      </trkpt>
      <trkpt lat="47.57867" lon="-3.05205">
        <ele>6.4</ele>
        <time>2024-05-07T13:06:35Z</time>
      </trkpt>
      <trkpt lat="47.57866" lon="-3.05205">
        <ele>6.4</ele>
        <time>2024-05-07T13:06:36Z</time>
      </trkpt>
      <trkpt lat="47.57866" lon="-3.05205">
        <ele>6.4</ele>
        <time>2024-05-07T13:06:37Z</time>
      </trkpt>
      <trkpt lat="47.57866" lon="-3.05205">
        <ele>6.4</ele>
        <time>2024-05-07T13:06:38Z</time>
      </trkpt>
      <trkpt lat="47.57865" lon="-3.05205">
        <ele>6.4</ele>
        <time>2024-05-07T13:06:39Z</time>
      </trkpt>
      <trkpt lat="47.57865" lon="-3.05205">
        <ele>6.4</ele>
        <time>2024-05-07T13:06:40Z</time>
      </trkpt>
      <trkpt lat="47.57865" lon="-3.05205">
        <ele>6.4</ele>
        <time>2024-05-07T13:06:41Z</time>
      </trkpt>
      <trkpt lat="47.57864" lon="-3.05205">
        <ele>6.4</ele>
        <time>2024-05-07T13:06:42Z</time>
      </trkpt>
      <trkpt lat="47.57863" lon="-3.05205">
        <ele>6.4</ele>
        <time>2024-05-07T13:06:43Z</time>
      </trkpt>
      <trkpt lat="47.57863" lon="-3.05205">
        <ele>6.4</ele>
        <time>2024-05-07T13:06:44Z</time>
      </trkpt>
      <trkpt lat="47.57862" lon="-3.05205">
        <ele>6.4</ele>
        <time>2024-05-07T13:06:45Z</time>
      </trkpt>
      <trkpt lat="47.57862" lon="-3.05205">
        <ele>6.4</ele>
        <time>2024-05-07T13:06:46Z</time>
      </trkpt>
      <trkpt lat="47.57862" lon="-3.05204">
        <ele>6.4</ele>
        <time>2024-05-07T13:06:47Z</time>
      </trkpt>
      <trkpt lat="47.57862" lon="-3.05204">
        <ele>6.4</ele>
        <time>2024-05-07T13:06:48Z</time>
      </trkpt>
      <trkpt lat="47.57862" lon="-3.05204">
        <ele>6.2</ele>
        <time>2024-05-07T13:06:49Z</time>
      </trkpt>
      <trkpt lat="47.57862" lon="-3.05204">
        <ele>6.2</ele>
        <time>2024-05-07T13:06:50Z</time>
      </trkpt>
      <trkpt lat="47.57862" lon="-3.05204">
        <ele>6.2</ele>
        <time>2024-05-07T13:06:51Z</time>
      </trkpt>
      <trkpt lat="47.57862" lon="-3.05204">
        <ele>6.2</ele>
        <time>2024-05-07T13:06:52Z</time>
      </trkpt>
      <trkpt lat="47.57862" lon="-3.05204">
        <ele>6.2</ele>
        <time>2024-05-07T13:06:53Z</time>
      </trkpt>
      <trkpt lat="47.57862" lon="-3.05204">
        <ele>6.2</ele>
        <time>2024-05-07T13:06:54Z</time>
      </trkpt>
      <trkpt lat="47.57862" lon="-3.05204">
        <ele>6.2</ele>
        <time>2024-05-07T13:06:55Z</time>
      </trkpt>
      <trkpt lat="47.57862" lon="-3.05204">
        <ele>6.2</ele>
        <time>2024-05-07T13:06:56Z</time>
      </trkpt>
      <trkpt lat="47.57862" lon="-3.05204">
        <ele>6.2</ele>
        <time>2024-05-07T13:06:57Z</time>
      </trkpt>
      <trkpt lat="47.57862" lon="-3.05204">
        <ele>6.2</ele>
        <time>2024-05-07T13:06:58Z</time>
      </trkpt>
      <trkpt lat="47.57861" lon="-3.05204">
        <ele>6.2</ele>
        <time>2024-05-07T13:06:59Z</time>
      </trkpt>
      <trkpt lat="47.57861" lon="-3.05205">
        <ele>6.2</ele>
        <time>2024-05-07T13:07:00Z</time>
      </trkpt>
      <trkpt lat="47.57861" lon="-3.05205">
        <ele>6.2</ele>
        <time>2024-05-07T13:07:01Z</time>
      </trkpt>
      <trkpt lat="47.57861" lon="-3.05205">
        <ele>6.2</ele>
        <time>2024-05-07T13:07:02Z</time>
      </trkpt>
      <trkpt lat="47.57861" lon="-3.05205">
        <ele>6.2</ele>
        <time>2024-05-07T13:07:03Z</time>
      </trkpt>
      <trkpt lat="47.57861" lon="-3.05205">
        <ele>6.4</ele>
        <time>2024-05-07T13:07:04Z</time>
      </trkpt>
      <trkpt lat="47.57861" lon="-3.05205">
        <ele>6.4</ele>
        <time>2024-05-07T13:07:05Z</time>
      </trkpt>
      <trkpt lat="47.57861" lon="-3.05205">
        <ele>6.4</ele>
        <time>2024-05-07T13:07:06Z</time>
      </trkpt>
      <trkpt lat="47.57861" lon="-3.05205">
        <ele>6.4</ele>
        <time>2024-05-07T13:07:07Z</time>
      </trkpt>
      <trkpt lat="47.57861" lon="-3.05205">
        <ele>6.4</ele>
        <time>2024-05-07T13:07:08Z</time>
      </trkpt>
      <trkpt lat="47.5786" lon="-3.05205">
        <ele>6.4</ele>
        <time>2024-05-07T13:07:09Z</time>
      </trkpt>
      <trkpt lat="47.5786" lon="-3.05205">
        <ele>6.4</ele>
        <time>2024-05-07T13:07:10Z</time>
      </trkpt>
      <trkpt lat="47.5786" lon="-3.05205">
        <ele>6.4</ele>
        <time>2024-05-07T13:07:11Z</time>
      </trkpt>
      <trkpt lat="47.5786" lon="-3.05206">
        <ele>6.4</ele>
        <time>2024-05-07T13:07:12Z</time>
      </trkpt>
      <trkpt lat="47.5786" lon="-3.05206">
        <ele>6.4</ele>
        <time>2024-05-07T13:07:13Z</time>
      </trkpt>
      <trkpt lat="47.5786" lon="-3.05206">
        <ele>6.4</ele>
        <time>2024-05-07T13:07:14Z</time>
      </trkpt>
      <trkpt lat="47.5786" lon="-3.05206">
        <ele>6.4</ele>
        <time>2024-05-07T13:07:15Z</time>
      </trkpt>
      <trkpt lat="47.5786" lon="-3.05206">
        <ele>6.4</ele>
        <time>2024-05-07T13:07:16Z</time>
      </trkpt>
      <trkpt lat="47.5786" lon="-3.05206">
        <ele>6.4</ele>
        <time>2024-05-07T13:07:17Z</time>
      </trkpt>
      <trkpt lat="47.5786" lon="-3.05207">
        <ele>6.4</ele>
        <time>2024-05-07T13:07:18Z</time>
      </trkpt>
      <trkpt lat="47.5786" lon="-3.05207">
        <ele>6.4</ele>
        <time>2024-05-07T13:07:19Z</time>
      </trkpt>
      <trkpt lat="47.5786" lon="-3.05207">
        <ele>6.4</ele>
        <time>2024-05-07T13:07:20Z</time>
      </trkpt>
      <trkpt lat="47.5786" lon="-3.05207">
        <ele>6.4</ele>
        <time>2024-05-07T13:07:21Z</time>
      </trkpt>
      <trkpt lat="47.57861" lon="-3.05207">
        <ele>6.6</ele>
        <time>2024-05-07T13:07:22Z</time>
      </trkpt>
      <trkpt lat="47.57861" lon="-3.05207">
        <ele>6.6</ele>
        <time>2024-05-07T13:07:23Z</time>
      </trkpt>
      <trkpt lat="47.57861" lon="-3.05207">
        <ele>6.6</ele>
        <time>2024-05-07T13:07:24Z</time>
      </trkpt>
      <trkpt lat="47.57861" lon="-3.05207">
        <ele>6.4</ele>
        <time>2024-05-07T13:07:25Z</time>
      </trkpt>
      <trkpt lat="47.57861" lon="-3.05207">
        <ele>6.4</ele>
        <time>2024-05-07T13:07:26Z</time>
      </trkpt>
      <trkpt lat="47.57861" lon="-3.05207">
        <ele>6.4</ele>
        <time>2024-05-07T13:07:27Z</time>
      </trkpt>
      <trkpt lat="47.57862" lon="-3.05207">
        <ele>6.4</ele>
        <time>2024-05-07T13:07:28Z</time>
      </trkpt>
      <trkpt lat="47.57862" lon="-3.05207">
        <ele>6.4</ele>
        <time>2024-05-07T13:07:29Z</time>
      </trkpt>
      <trkpt lat="47.57862" lon="-3.05207">
        <ele>6.4</ele>
        <time>2024-05-07T13:07:30Z</time>
      </trkpt>
      <trkpt lat="47.57862" lon="-3.05207">
        <ele>6.4</ele>
        <time>2024-05-07T13:07:31Z</time>
      </trkpt>
      <trkpt lat="47.57862" lon="-3.05207">
        <ele>6.4</ele>
        <time>2024-05-07T13:07:32Z</time>
      </trkpt>
      <trkpt lat="47.57863" lon="-3.05208">
        <ele>6.2</ele>
        <time>2024-05-07T13:07:33Z</time>
      </trkpt>
      <trkpt lat="47.57863" lon="-3.05208">
        <ele>6.2</ele>
        <time>2024-05-07T13:07:34Z</time>
      </trkpt>
      <trkpt lat="47.57863" lon="-3.05208">
        <ele>6</ele>
        <time>2024-05-07T13:07:35Z</time>
      </trkpt>
      <trkpt lat="47.57863" lon="-3.05208">
        <ele>6</ele>
        <time>2024-05-07T13:07:36Z</time>
      </trkpt>
      <trkpt lat="47.57864" lon="-3.05208">
        <ele>5.8</ele>
        <time>2024-05-07T13:07:37Z</time>
      </trkpt>
      <trkpt lat="47.57864" lon="-3.05208">
        <ele>5.8</ele>
        <time>2024-05-07T13:07:38Z</time>
      </trkpt>
      <trkpt lat="47.57864" lon="-3.05208">
        <ele>5.8</ele>
        <time>2024-05-07T13:07:39Z</time>
      </trkpt>
      <trkpt lat="47.57864" lon="-3.05208">
        <ele>6</ele>
        <time>2024-05-07T13:07:40Z</time>
      </trkpt>
      <trkpt lat="47.57864" lon="-3.05208">
        <ele>6</ele>
        <time>2024-05-07T13:07:41Z</time>
      </trkpt>
      <trkpt lat="47.57864" lon="-3.05208">
        <ele>6</ele>
        <time>2024-05-07T13:07:42Z</time>
      </trkpt>
      <trkpt lat="47.57864" lon="-3.05208">
        <ele>5.8</ele>
        <time>2024-05-07T13:07:43Z</time>
      </trkpt>
      <trkpt lat="47.57864" lon="-3.05208">
        <ele>5.8</ele>
        <time>2024-05-07T13:07:44Z</time>
      </trkpt>
      <trkpt lat="47.57864" lon="-3.05208">
        <ele>5.8</ele>
        <time>2024-05-07T13:07:45Z</time>
      </trkpt>
      <trkpt lat="47.57865" lon="-3.05208">
        <ele>5.8</ele>
        <time>2024-05-07T13:07:46Z</time>
      </trkpt>
      <trkpt lat="47.57865" lon="-3.05208">
        <ele>5.8</ele>
        <time>2024-05-07T13:07:47Z</time>
      </trkpt>
      <trkpt lat="47.57865" lon="-3.05208">
        <ele>5.8</ele>
        <time>2024-05-07T13:07:48Z</time>
      </trkpt>
      <trkpt lat="47.57865" lon="-3.05208">
        <ele>5.6</ele>
        <time>2024-05-07T13:07:49Z</time>
      </trkpt>
      <trkpt lat="47.57865" lon="-3.05208">
        <ele>5.6</ele>
        <time>2024-05-07T13:07:50Z</time>
      </trkpt>
      <trkpt lat="47.57865" lon="-3.05209">
        <ele>5.4</ele>
        <time>2024-05-07T13:07:51Z</time>
      </trkpt>
      <trkpt lat="47.57865" lon="-3.05209">
        <ele>5.4</ele>
        <time>2024-05-07T13:07:52Z</time>
      </trkpt>
      <trkpt lat="47.57865" lon="-3.05209">
        <ele>5.4</ele>
        <time>2024-05-07T13:07:53Z</time>
      </trkpt>
      <trkpt lat="47.57865" lon="-3.05209">
        <ele>5.4</ele>
        <time>2024-05-07T13:07:54Z</time>
      </trkpt>
      <trkpt lat="47.57865" lon="-3.05209">
        <ele>5.4</ele>
        <time>2024-05-07T13:07:55Z</time>
      </trkpt>
      <trkpt lat="47.57865" lon="-3.05209">
        <ele>5.4</ele>
        <time>2024-05-07T13:07:56Z</time>
      </trkpt>
      <trkpt lat="47.57865" lon="-3.05209">
        <ele>5.4</ele>
        <time>2024-05-07T13:07:57Z</time>
      </trkpt>
      <trkpt lat="47.57865" lon="-3.05209">
        <ele>5.4</ele>
        <time>2024-05-07T13:07:58Z</time>
      </trkpt>
      <trkpt lat="47.57865" lon="-3.05209">
        <ele>5.4</ele>
        <time>2024-05-07T13:07:59Z</time>
      </trkpt>
      <trkpt lat="47.57865" lon="-3.05209">
        <ele>5.4</ele>
        <time>2024-05-07T13:08:00Z</time>
      </trkpt>
      <trkpt lat="47.57865" lon="-3.05209">
        <ele>5.4</ele>
        <time>2024-05-07T13:08:01Z</time>
      </trkpt>
      <trkpt lat="47.57865" lon="-3.05209">
        <ele>5.4</ele>
        <time>2024-05-07T13:08:02Z</time>
      </trkpt>
      <trkpt lat="47.57865" lon="-3.05209">
        <ele>5.4</ele>
        <time>2024-05-07T13:08:03Z</time>
      </trkpt>
      <trkpt lat="47.57865" lon="-3.05209">
        <ele>5.6</ele>
        <time>2024-05-07T13:08:04Z</time>
      </trkpt>
      <trkpt lat="47.57865" lon="-3.05209">
        <ele>5.6</ele>
        <time>2024-05-07T13:08:05Z</time>
      </trkpt>
      <trkpt lat="47.57865" lon="-3.05209">
        <ele>5.6</ele>
        <time>2024-05-07T13:08:06Z</time>
      </trkpt>
      <trkpt lat="47.57865" lon="-3.05209">
        <ele>5.6</ele>
        <time>2024-05-07T13:08:07Z</time>
      </trkpt>
      <trkpt lat="47.57865" lon="-3.05209">
        <ele>5.6</ele>
        <time>2024-05-07T13:08:08Z</time>
      </trkpt>
      <trkpt lat="47.57865" lon="-3.05209">
        <ele>5.6</ele>
        <time>2024-05-07T13:08:09Z</time>
      </trkpt>
      <trkpt lat="47.57865" lon="-3.05209">
        <ele>5.6</ele>
        <time>2024-05-07T13:08:10Z</time>
      </trkpt>
      <trkpt lat="47.57865" lon="-3.05209">
        <ele>5.6</ele>
        <time>2024-05-07T13:08:11Z</time>
      </trkpt>
      <trkpt lat="47.57865" lon="-3.05209">
        <ele>5.6</ele>
        <time>2024-05-07T13:08:12Z</time>
      </trkpt>
      <trkpt lat="47.57865" lon="-3.05209">
        <ele>5.6</ele>
        <time>2024-05-07T13:08:13Z</time>
      </trkpt>
      <trkpt lat="47.57865" lon="-3.05209">
        <ele>5.6</ele>
        <time>2024-05-07T13:08:14Z</time>
      </trkpt>
      <trkpt lat="47.57865" lon="-3.05209">
        <ele>5.6</ele>
        <time>2024-05-07T13:08:15Z</time>
      </trkpt>
      <trkpt lat="47.57865" lon="-3.05209">
        <ele>5.6</ele>
        <time>2024-05-07T13:08:16Z</time>
      </trkpt>
      <trkpt lat="47.57865" lon="-3.05209">
        <ele>5.6</ele>
        <time>2024-05-07T13:08:17Z</time>
      </trkpt>
      <trkpt lat="47.57865" lon="-3.05209">
        <ele>5.6</ele>
        <time>2024-05-07T13:08:18Z</time>
      </trkpt>
      <trkpt lat="47.57865" lon="-3.05209">
        <ele>5.6</ele>
        <time>2024-05-07T13:08:19Z</time>
      </trkpt>
      <trkpt lat="47.57865" lon="-3.05209">
        <ele>5.6</ele>
        <time>2024-05-07T13:08:20Z</time>
      </trkpt>
      <trkpt lat="47.57865" lon="-3.05209">
        <ele>5.6</ele>
        <time>2024-05-07T13:08:21Z</time>
      </trkpt>
      <trkpt lat="47.57865" lon="-3.05209">
        <ele>5.6</ele>
        <time>2024-05-07T13:08:22Z</time>
      </trkpt>
      <trkpt lat="47.57865" lon="-3.05209">
        <ele>5.6</ele>
        <time>2024-05-07T13:08:23Z</time>
      </trkpt>
      <trkpt lat="47.57865" lon="-3.05209">
        <ele>5.6</ele>
        <time>2024-05-07T13:08:24Z</time>
      </trkpt>
      <trkpt lat="47.57865" lon="-3.05209">
        <ele>5.6</ele>
        <time>2024-05-07T13:08:25Z</time>
      </trkpt>
      <trkpt lat="47.57865" lon="-3.05209">
        <ele>5.6</ele>
        <time>2024-05-07T13:08:26Z</time>
      </trkpt>
      <trkpt lat="47.57865" lon="-3.05209">
        <ele>5.6</ele>
        <time>2024-05-07T13:08:27Z</time>
      </trkpt>
      <trkpt lat="47.57865" lon="-3.05209">
        <ele>5.6</ele>
        <time>2024-05-07T13:08:28Z</time>
      </trkpt>
      <trkpt lat="47.57865" lon="-3.05209">
        <ele>5.6</ele>
        <time>2024-05-07T13:08:29Z</time>
      </trkpt>
      <trkpt lat="47.57865" lon="-3.05209">
        <ele>5.6</ele>
        <time>2024-05-07T13:08:30Z</time>
      </trkpt>
      <trkpt lat="47.57865" lon="-3.05209">
        <ele>5.4</ele>
        <time>2024-05-07T13:08:31Z</time>
      </trkpt>
      <trkpt lat="47.57865" lon="-3.05209">
        <ele>5.4</ele>
        <time>2024-05-07T13:08:32Z</time>
      </trkpt>
      <trkpt lat="47.57865" lon="-3.05209">
        <ele>5.4</ele>
        <time>2024-05-07T13:08:33Z</time>
      </trkpt>
      <trkpt lat="47.57865" lon="-3.05209">
        <ele>5.4</ele>
        <time>2024-05-07T13:08:34Z</time>
      </trkpt>
      <trkpt lat="47.57865" lon="-3.05209">
        <ele>5.4</ele>
        <time>2024-05-07T13:08:35Z</time>
      </trkpt>
      <trkpt lat="47.57865" lon="-3.05209">
        <ele>5.4</ele>
        <time>2024-05-07T13:08:36Z</time>
      </trkpt>
      <trkpt lat="47.57865" lon="-3.05209">
        <ele>5.4</ele>
        <time>2024-05-07T13:08:37Z</time>
      </trkpt>
      <trkpt lat="47.57865" lon="-3.05209">
        <ele>5.4</ele>
        <time>2024-05-07T13:08:38Z</time>
      </trkpt>
      <trkpt lat="47.57865" lon="-3.05209">
        <ele>5.4</ele>
        <time>2024-05-07T13:08:39Z</time>
      </trkpt>
      <trkpt lat="47.57865" lon="-3.05209">
        <ele>5.4</ele>
        <time>2024-05-07T13:08:40Z</time>
      </trkpt>
      <trkpt lat="47.57865" lon="-3.05209">
        <ele>5.4</ele>
        <time>2024-05-07T13:08:41Z</time>
      </trkpt>
      <trkpt lat="47.57865" lon="-3.05209">
        <ele>5.4</ele>
        <time>2024-05-07T13:08:42Z</time>
      </trkpt>
      <trkpt lat="47.57865" lon="-3.05209">
        <ele>5.6</ele>
        <time>2024-05-07T13:08:43Z</time>
      </trkpt>
      <trkpt lat="47.57865" lon="-3.05209">
        <ele>5.6</ele>
        <time>2024-05-07T13:08:44Z</time>
      </trkpt>
      <trkpt lat="47.57865" lon="-3.05209">
        <ele>5.6</ele>
        <time>2024-05-07T13:08:45Z</time>
      </trkpt>
      <trkpt lat="47.57865" lon="-3.05209">
        <ele>5.6</ele>
        <time>2024-05-07T13:08:46Z</time>
      </trkpt>
      <trkpt lat="47.57865" lon="-3.05209">
        <ele>5.6</ele>
        <time>2024-05-07T13:08:47Z</time>
      </trkpt>
      <trkpt lat="47.57865" lon="-3.05209">
        <ele>5.6</ele>
        <time>2024-05-07T13:08:48Z</time>
      </trkpt>
      <trkpt lat="47.57865" lon="-3.05209">
        <ele>5.6</ele>
        <time>2024-05-07T13:08:49Z</time>
      </trkpt>
      <trkpt lat="47.57865" lon="-3.05208">
        <ele>5.6</ele>
        <time>2024-05-07T13:08:50Z</time>
      </trkpt>
      <trkpt lat="47.57865" lon="-3.05208">
        <ele>5.6</ele>
        <time>2024-05-07T13:08:51Z</time>
      </trkpt>
      <trkpt lat="47.57865" lon="-3.05208">
        <ele>5.6</ele>
        <time>2024-05-07T13:08:52Z</time>
      </trkpt>
      <trkpt lat="47.57865" lon="-3.05208">
        <ele>5.6</ele>
        <time>2024-05-07T13:08:53Z</time>
      </trkpt>
      <trkpt lat="47.57865" lon="-3.05208">
        <ele>5.6</ele>
        <time>2024-05-07T13:08:54Z</time>
      </trkpt>
      <trkpt lat="47.57865" lon="-3.05208">
        <ele>5.6</ele>
        <time>2024-05-07T13:08:55Z</time>
      </trkpt>
      <trkpt lat="47.57865" lon="-3.05208">
        <ele>5.6</ele>
        <time>2024-05-07T13:08:56Z</time>
      </trkpt>
      <trkpt lat="47.57865" lon="-3.05208">
        <ele>5.6</ele>
        <time>2024-05-07T13:08:57Z</time>
      </trkpt>
      <trkpt lat="47.57865" lon="-3.05208">
        <ele>5.6</ele>
        <time>2024-05-07T13:08:58Z</time>
      </trkpt>
      <trkpt lat="47.57865" lon="-3.05208">
        <ele>5.6</ele>
        <time>2024-05-07T13:08:59Z</time>
      </trkpt>
      <trkpt lat="47.57865" lon="-3.05208">
        <ele>5.6</ele>
        <time>2024-05-07T13:09:00Z</time>
      </trkpt>
      <trkpt lat="47.57865" lon="-3.05208">
        <ele>5.8</ele>
        <time>2024-05-07T13:09:01Z</time>
      </trkpt>
      <trkpt lat="47.57865" lon="-3.05208">
        <ele>5.8</ele>
        <time>2024-05-07T13:09:02Z</time>
      </trkpt>
      <trkpt lat="47.57865" lon="-3.05208">
        <ele>5.8</ele>
        <time>2024-05-07T13:09:03Z</time>
      </trkpt>
      <trkpt lat="47.57865" lon="-3.05208">
        <ele>5.8</ele>
        <time>2024-05-07T13:09:04Z</time>
      </trkpt>
      <trkpt lat="47.57865" lon="-3.05208">
        <ele>5.8</ele>
        <time>2024-05-07T13:09:05Z</time>
      </trkpt>
      <trkpt lat="47.57865" lon="-3.05208">
        <ele>5.8</ele>
        <time>2024-05-07T13:09:06Z</time>
      </trkpt>
      <trkpt lat="47.57865" lon="-3.05208">
        <ele>5.8</ele>
        <time>2024-05-07T13:09:07Z</time>
      </trkpt>
      <trkpt lat="47.57865" lon="-3.05208">
        <ele>5.8</ele>
        <time>2024-05-07T13:09:08Z</time>
      </trkpt>
      <trkpt lat="47.57865" lon="-3.05208">
        <ele>5.8</ele>
        <time>2024-05-07T13:09:09Z</time>
      </trkpt>
      <trkpt lat="47.57865" lon="-3.05208">
        <ele>5.6</ele>
        <time>2024-05-07T13:09:10Z</time>
      </trkpt>
      <trkpt lat="47.57865" lon="-3.05208">
        <ele>5.6</ele>
        <time>2024-05-07T13:09:11Z</time>
      </trkpt>
      <trkpt lat="47.57865" lon="-3.05208">
        <ele>5.6</ele>
        <time>2024-05-07T13:09:12Z</time>
      </trkpt>
      <trkpt lat="47.57865" lon="-3.05208">
        <ele>5.6</ele>
        <time>2024-05-07T13:09:13Z</time>
      </trkpt>
      <trkpt lat="47.57865" lon="-3.05208">
        <ele>5.6</ele>
        <time>2024-05-07T13:09:14Z</time>
      </trkpt>
      <trkpt lat="47.57865" lon="-3.05208">
        <ele>5.8</ele>
        <time>2024-05-07T13:09:15Z</time>
      </trkpt>
      <trkpt lat="47.57865" lon="-3.05208">
        <ele>5.8</ele>
        <time>2024-05-07T13:09:16Z</time>
      </trkpt>
      <trkpt lat="47.57865" lon="-3.05208">
        <ele>5.8</ele>
        <time>2024-05-07T13:09:17Z</time>
      </trkpt>
      <trkpt lat="47.57865" lon="-3.05208">
        <ele>5.8</ele>
        <time>2024-05-07T13:09:18Z</time>
      </trkpt>
      <trkpt lat="47.57865" lon="-3.05208">
        <ele>5.8</ele>
        <time>2024-05-07T13:09:19Z</time>
      </trkpt>
      <trkpt lat="47.57865" lon="-3.05208">
        <ele>5.8</ele>
        <time>2024-05-07T13:09:20Z</time>
      </trkpt>
      <trkpt lat="47.57865" lon="-3.05208">
        <ele>5.8</ele>
        <time>2024-05-07T13:09:21Z</time>
      </trkpt>
      <trkpt lat="47.57865" lon="-3.05208">
        <ele>5.8</ele>
        <time>2024-05-07T13:09:22Z</time>
      </trkpt>
      <trkpt lat="47.57865" lon="-3.05208">
        <ele>5.8</ele>
        <time>2024-05-07T13:09:23Z</time>
      </trkpt>
      <trkpt lat="47.57865" lon="-3.05208">
        <ele>5.4</ele>
        <time>2024-05-07T13:09:24Z</time>
      </trkpt>
      <trkpt lat="47.57865" lon="-3.05208">
        <ele>5.4</ele>
        <time>2024-05-07T13:09:25Z</time>
      </trkpt>
      <trkpt lat="47.57865" lon="-3.05208">
        <ele>5.4</ele>
        <time>2024-05-07T13:09:26Z</time>
      </trkpt>
      <trkpt lat="47.57865" lon="-3.05208">
        <ele>5.4</ele>
        <time>2024-05-07T13:09:27Z</time>
      </trkpt>
      <trkpt lat="47.57865" lon="-3.05208">
        <ele>5.4</ele>
        <time>2024-05-07T13:09:28Z</time>
      </trkpt>
      <trkpt lat="47.57865" lon="-3.05208">
        <ele>5.4</ele>
        <time>2024-05-07T13:09:29Z</time>
      </trkpt>
      <trkpt lat="47.57865" lon="-3.05208">
        <ele>5.4</ele>
        <time>2024-05-07T13:09:30Z</time>
      </trkpt>
      <trkpt lat="47.57865" lon="-3.05208">
        <ele>5.4</ele>
        <time>2024-05-07T13:09:31Z</time>
      </trkpt>
      <trkpt lat="47.57865" lon="-3.05208">
        <ele>5.4</ele>
        <time>2024-05-07T13:09:32Z</time>
      </trkpt>
      <trkpt lat="47.57865" lon="-3.05208">
        <ele>5.4</ele>
        <time>2024-05-07T13:09:33Z</time>
      </trkpt>
      <trkpt lat="47.57865" lon="-3.05208">
        <ele>5.6</ele>
        <time>2024-05-07T13:09:34Z</time>
      </trkpt>
      <trkpt lat="47.57865" lon="-3.05208">
        <ele>5.6</ele>
        <time>2024-05-07T13:09:35Z</time>
      </trkpt>
      <trkpt lat="47.57866" lon="-3.05208">
        <ele>5.6</ele>
        <time>2024-05-07T13:09:36Z</time>
      </trkpt>
      <trkpt lat="47.57866" lon="-3.05208">
        <ele>5.6</ele>
        <time>2024-05-07T13:09:37Z</time>
      </trkpt>
      <trkpt lat="47.57867" lon="-3.05207">
        <ele>5.6</ele>
        <time>2024-05-07T13:09:38Z</time>
      </trkpt>
      <trkpt lat="47.57868" lon="-3.05206">
        <ele>5.6</ele>
        <time>2024-05-07T13:09:39Z</time>
      </trkpt>
      <trkpt lat="47.57868" lon="-3.05206">
        <ele>5.6</ele>
        <time>2024-05-07T13:09:40Z</time>
      </trkpt>
      <trkpt lat="47.57868" lon="-3.05206">
        <ele>5.6</ele>
        <time>2024-05-07T13:09:41Z</time>
      </trkpt>
      <trkpt lat="47.57868" lon="-3.05206">
        <ele>5.6</ele>
        <time>2024-05-07T13:09:42Z</time>
      </trkpt>
      <trkpt lat="47.57868" lon="-3.05206">
        <ele>5.6</ele>
        <time>2024-05-07T13:09:43Z</time>
      </trkpt>
      <trkpt lat="47.57868" lon="-3.05206">
        <ele>5.6</ele>
        <time>2024-05-07T13:09:44Z</time>
      </trkpt>
      <trkpt lat="47.57868" lon="-3.05206">
        <ele>5.6</ele>
        <time>2024-05-07T13:09:45Z</time>
      </trkpt>
      <trkpt lat="47.57868" lon="-3.05206">
        <ele>5.6</ele>
        <time>2024-05-07T13:09:46Z</time>
      </trkpt>
      <trkpt lat="47.57868" lon="-3.05206">
        <ele>5.6</ele>
        <time>2024-05-07T13:09:47Z</time>
      </trkpt>
      <trkpt lat="47.57868" lon="-3.05206">
        <ele>5.6</ele>
        <time>2024-05-07T13:09:48Z</time>
      </trkpt>
      <trkpt lat="47.57868" lon="-3.05206">
        <ele>5.6</ele>
        <time>2024-05-07T13:09:49Z</time>
      </trkpt>
      <trkpt lat="47.57868" lon="-3.05206">
        <ele>5.6</ele>
        <time>2024-05-07T13:09:50Z</time>
      </trkpt>
      <trkpt lat="47.57868" lon="-3.05206">
        <ele>5.6</ele>
        <time>2024-05-07T13:09:51Z</time>
      </trkpt>
      <trkpt lat="47.57868" lon="-3.05205">
        <ele>5.8</ele>
        <time>2024-05-07T13:09:52Z</time>
      </trkpt>
      <trkpt lat="47.57868" lon="-3.05205">
        <ele>5.8</ele>
        <time>2024-05-07T13:09:53Z</time>
      </trkpt>
      <trkpt lat="47.57869" lon="-3.05205">
        <ele>5.8</ele>
        <time>2024-05-07T13:09:54Z</time>
      </trkpt>
      <trkpt lat="47.57869" lon="-3.05205">
        <ele>5.8</ele>
        <time>2024-05-07T13:09:55Z</time>
      </trkpt>
      <trkpt lat="47.57869" lon="-3.05204">
        <ele>5.8</ele>
        <time>2024-05-07T13:09:56Z</time>
      </trkpt>
      <trkpt lat="47.57869" lon="-3.05204">
        <ele>5.8</ele>
        <time>2024-05-07T13:09:57Z</time>
      </trkpt>
      <trkpt lat="47.57869" lon="-3.05204">
        <ele>5.8</ele>
        <time>2024-05-07T13:09:58Z</time>
      </trkpt>
      <trkpt lat="47.5787" lon="-3.05204">
        <ele>5.8</ele>
        <time>2024-05-07T13:09:59Z</time>
      </trkpt>
      <trkpt lat="47.5787" lon="-3.05204">
        <ele>5.8</ele>
        <time>2024-05-07T13:10:00Z</time>
      </trkpt>
      <trkpt lat="47.5787" lon="-3.05204">
        <ele>5.8</ele>
        <time>2024-05-07T13:10:01Z</time>
      </trkpt>
      <trkpt lat="47.57871" lon="-3.05204">
        <ele>5.8</ele>
        <time>2024-05-07T13:10:02Z</time>
      </trkpt>
      <trkpt lat="47.57871" lon="-3.05204">
        <ele>5.6</ele>
        <time>2024-05-07T13:10:03Z</time>
      </trkpt>
      <trkpt lat="47.57871" lon="-3.05204">
        <ele>5.6</ele>
        <time>2024-05-07T13:10:04Z</time>
      </trkpt>
      <trkpt lat="47.57871" lon="-3.05204">
        <ele>5.6</ele>
        <time>2024-05-07T13:10:05Z</time>
      </trkpt>
      <trkpt lat="47.57872" lon="-3.05204">
        <ele>5.6</ele>
        <time>2024-05-07T13:10:06Z</time>
      </trkpt>
      <trkpt lat="47.57872" lon="-3.05204">
        <ele>5.6</ele>
        <time>2024-05-07T13:10:07Z</time>
      </trkpt>
      <trkpt lat="47.57872" lon="-3.05204">
        <ele>5.6</ele>
        <time>2024-05-07T13:10:08Z</time>
      </trkpt>
      <trkpt lat="47.57872" lon="-3.05204">
        <ele>5.6</ele>
        <time>2024-05-07T13:10:09Z</time>
      </trkpt>
      <trkpt lat="47.57872" lon="-3.05204">
        <ele>5.6</ele>
        <time>2024-05-07T13:10:10Z</time>
      </trkpt>
      <trkpt lat="47.57873" lon="-3.05204">
        <ele>5.6</ele>
        <time>2024-05-07T13:10:11Z</time>
      </trkpt>
      <trkpt lat="47.57873" lon="-3.05204">
        <ele>5.6</ele>
        <time>2024-05-07T13:10:12Z</time>
      </trkpt>
      <trkpt lat="47.57873" lon="-3.05204">
        <ele>5.6</ele>
        <time>2024-05-07T13:10:13Z</time>
      </trkpt>
      <trkpt lat="47.57874" lon="-3.05204">
        <ele>5.6</ele>
        <time>2024-05-07T13:10:14Z</time>
      </trkpt>
      <trkpt lat="47.57874" lon="-3.05204">
        <ele>5.6</ele>
        <time>2024-05-07T13:10:15Z</time>
      </trkpt>
      <trkpt lat="47.57874" lon="-3.05205">
        <ele>5.6</ele>
        <time>2024-05-07T13:10:16Z</time>
      </trkpt>
      <trkpt lat="47.57874" lon="-3.05205">
        <ele>5.8</ele>
        <time>2024-05-07T13:10:17Z</time>
      </trkpt>
      <trkpt lat="47.57874" lon="-3.05205">
        <ele>5.8</ele>
        <time>2024-05-07T13:10:18Z</time>
      </trkpt>
      <trkpt lat="47.57874" lon="-3.05205">
        <ele>5.8</ele>
        <time>2024-05-07T13:10:19Z</time>
      </trkpt>
      <trkpt lat="47.57874" lon="-3.05205">
        <ele>5.8</ele>
        <time>2024-05-07T13:10:20Z</time>
      </trkpt>
      <trkpt lat="47.57874" lon="-3.05205">
        <ele>5.8</ele>
        <time>2024-05-07T13:10:21Z</time>
      </trkpt>
      <trkpt lat="47.57874" lon="-3.05205">
        <ele>6</ele>
        <time>2024-05-07T13:10:22Z</time>
      </trkpt>
      <trkpt lat="47.57875" lon="-3.05206">
        <ele>6</ele>
        <time>2024-05-07T13:10:23Z</time>
      </trkpt>
      <trkpt lat="47.57875" lon="-3.05206">
        <ele>6</ele>
        <time>2024-05-07T13:10:24Z</time>
      </trkpt>
      <trkpt lat="47.57875" lon="-3.05206">
        <ele>6</ele>
        <time>2024-05-07T13:10:25Z</time>
      </trkpt>
      <trkpt lat="47.57875" lon="-3.05206">
        <ele>6</ele>
        <time>2024-05-07T13:10:26Z</time>
      </trkpt>
      <trkpt lat="47.57875" lon="-3.05206">
        <ele>6</ele>
        <time>2024-05-07T13:10:27Z</time>
      </trkpt>
      <trkpt lat="47.57875" lon="-3.05206">
        <ele>6</ele>
        <time>2024-05-07T13:10:28Z</time>
      </trkpt>
      <trkpt lat="47.57875" lon="-3.05207">
        <ele>6</ele>
        <time>2024-05-07T13:10:29Z</time>
      </trkpt>
      <trkpt lat="47.57875" lon="-3.05207">
        <ele>6</ele>
        <time>2024-05-07T13:10:30Z</time>
      </trkpt>
      <trkpt lat="47.57875" lon="-3.05207">
        <ele>6</ele>
        <time>2024-05-07T13:10:31Z</time>
      </trkpt>
      <trkpt lat="47.57875" lon="-3.05207">
        <ele>6</ele>
        <time>2024-05-07T13:10:32Z</time>
      </trkpt>
      <trkpt lat="47.57875" lon="-3.05208">
        <ele>6</ele>
        <time>2024-05-07T13:10:33Z</time>
      </trkpt>
      <trkpt lat="47.57875" lon="-3.05208">
        <ele>6</ele>
        <time>2024-05-07T13:10:34Z</time>
      </trkpt>
      <trkpt lat="47.57875" lon="-3.05208">
        <ele>6</ele>
        <time>2024-05-07T13:10:35Z</time>
      </trkpt>
      <trkpt lat="47.57875" lon="-3.05208">
        <ele>5.6</ele>
        <time>2024-05-07T13:10:36Z</time>
      </trkpt>
      <trkpt lat="47.57875" lon="-3.05208">
        <ele>5.6</ele>
        <time>2024-05-07T13:10:37Z</time>
      </trkpt>
      <trkpt lat="47.57875" lon="-3.05208">
        <ele>5.6</ele>
        <time>2024-05-07T13:10:38Z</time>
      </trkpt>
      <trkpt lat="47.57875" lon="-3.05208">
        <ele>5.6</ele>
        <time>2024-05-07T13:10:39Z</time>
      </trkpt>
      <trkpt lat="47.57875" lon="-3.05208">
        <ele>5.6</ele>
        <time>2024-05-07T13:10:40Z</time>
      </trkpt>
      <trkpt lat="47.57876" lon="-3.05208">
        <ele>5.6</ele>
        <time>2024-05-07T13:10:41Z</time>
      </trkpt>
      <trkpt lat="47.57876" lon="-3.05208">
        <ele>5.6</ele>
        <time>2024-05-07T13:10:42Z</time>
      </trkpt>
      <trkpt lat="47.57876" lon="-3.05208">
        <ele>5.6</ele>
        <time>2024-05-07T13:10:43Z</time>
      </trkpt>
      <trkpt lat="47.57876" lon="-3.05208">
        <ele>5.6</ele>
        <time>2024-05-07T13:10:44Z</time>
      </trkpt>
      <trkpt lat="47.57876" lon="-3.05208">
        <ele>5.6</ele>
        <time>2024-05-07T13:10:45Z</time>
      </trkpt>
      <trkpt lat="47.57876" lon="-3.05208">
        <ele>5.6</ele>
        <time>2024-05-07T13:10:46Z</time>
      </trkpt>
      <trkpt lat="47.57876" lon="-3.05208">
        <ele>5.8</ele>
        <time>2024-05-07T13:10:47Z</time>
      </trkpt>
      <trkpt lat="47.57876" lon="-3.05208">
        <ele>6</ele>
        <time>2024-05-07T13:10:48Z</time>
      </trkpt>
      <trkpt lat="47.57876" lon="-3.05207">
        <ele>6</ele>
        <time>2024-05-07T13:10:49Z</time>
      </trkpt>
      <trkpt lat="47.57876" lon="-3.05207">
        <ele>5.8</ele>
        <time>2024-05-07T13:10:50Z</time>
      </trkpt>
      <trkpt lat="47.57876" lon="-3.05207">
        <ele>5.6</ele>
        <time>2024-05-07T13:10:51Z</time>
      </trkpt>
      <trkpt lat="47.57876" lon="-3.05207">
        <ele>5.6</ele>
        <time>2024-05-07T13:10:52Z</time>
      </trkpt>
      <trkpt lat="47.57876" lon="-3.05207">
        <ele>5.6</ele>
        <time>2024-05-07T13:10:53Z</time>
      </trkpt>
      <trkpt lat="47.57876" lon="-3.05207">
        <ele>5.6</ele>
        <time>2024-05-07T13:10:54Z</time>
      </trkpt>
      <trkpt lat="47.57876" lon="-3.05207">
        <ele>5.6</ele>
        <time>2024-05-07T13:10:55Z</time>
      </trkpt>
      <trkpt lat="47.57877" lon="-3.05207">
        <ele>5.6</ele>
        <time>2024-05-07T13:10:56Z</time>
      </trkpt>
      <trkpt lat="47.57877" lon="-3.05207">
        <ele>5.6</ele>
        <time>2024-05-07T13:10:57Z</time>
      </trkpt>
      <trkpt lat="47.57877" lon="-3.05207">
        <ele>5.6</ele>
        <time>2024-05-07T13:10:58Z</time>
      </trkpt>
      <trkpt lat="47.57877" lon="-3.05207">
        <ele>5.4</ele>
        <time>2024-05-07T13:10:59Z</time>
      </trkpt>
      <trkpt lat="47.57877" lon="-3.05207">
        <ele>5.4</ele>
        <time>2024-05-07T13:11:00Z</time>
      </trkpt>
      <trkpt lat="47.57877" lon="-3.05207">
        <ele>5.4</ele>
        <time>2024-05-07T13:11:01Z</time>
      </trkpt>
      <trkpt lat="47.57877" lon="-3.05207">
        <ele>5.4</ele>
        <time>2024-05-07T13:11:02Z</time>
      </trkpt>
      <trkpt lat="47.57877" lon="-3.05207">
        <ele>5.4</ele>
        <time>2024-05-07T13:11:03Z</time>
      </trkpt>
      <trkpt lat="47.57877" lon="-3.05207">
        <ele>5.4</ele>
        <time>2024-05-07T13:11:04Z</time>
      </trkpt>
      <trkpt lat="47.57877" lon="-3.05207">
        <ele>5.4</ele>
        <time>2024-05-07T13:11:05Z</time>
      </trkpt>
      <trkpt lat="47.57877" lon="-3.05206">
        <ele>5.4</ele>
        <time>2024-05-07T13:11:06Z</time>
      </trkpt>
      <trkpt lat="47.57877" lon="-3.05206">
        <ele>5.4</ele>
        <time>2024-05-07T13:11:07Z</time>
      </trkpt>
      <trkpt lat="47.57877" lon="-3.05206">
        <ele>5.6</ele>
        <time>2024-05-07T13:11:08Z</time>
      </trkpt>
      <trkpt lat="47.57877" lon="-3.05206">
        <ele>5.6</ele>
        <time>2024-05-07T13:11:09Z</time>
      </trkpt>
      <trkpt lat="47.57877" lon="-3.05206">
        <ele>5.6</ele>
        <time>2024-05-07T13:11:10Z</time>
      </trkpt>
      <trkpt lat="47.57877" lon="-3.05206">
        <ele>5.6</ele>
        <time>2024-05-07T13:11:11Z</time>
      </trkpt>
      <trkpt lat="47.57877" lon="-3.05206">
        <ele>5.6</ele>
        <time>2024-05-07T13:11:12Z</time>
      </trkpt>
      <trkpt lat="47.57877" lon="-3.05206">
        <ele>5.6</ele>
        <time>2024-05-07T13:11:13Z</time>
      </trkpt>
      <trkpt lat="47.57877" lon="-3.05206">
        <ele>5.6</ele>
        <time>2024-05-07T13:11:14Z</time>
      </trkpt>
      <trkpt lat="47.57877" lon="-3.05206">
        <ele>5.6</ele>
        <time>2024-05-07T13:11:15Z</time>
      </trkpt>
      <trkpt lat="47.57877" lon="-3.05206">
        <ele>5.6</ele>
        <time>2024-05-07T13:11:16Z</time>
      </trkpt>
      <trkpt lat="47.57877" lon="-3.05206">
        <ele>5.8</ele>
        <time>2024-05-07T13:11:17Z</time>
      </trkpt>
      <trkpt lat="47.57877" lon="-3.05206">
        <ele>5.8</ele>
        <time>2024-05-07T13:11:18Z</time>
      </trkpt>
      <trkpt lat="47.57876" lon="-3.05206">
        <ele>5.8</ele>
        <time>2024-05-07T13:11:19Z</time>
      </trkpt>
      <trkpt lat="47.57876" lon="-3.05206">
        <ele>5.8</ele>
        <time>2024-05-07T13:11:20Z</time>
      </trkpt>
      <trkpt lat="47.57876" lon="-3.05206">
        <ele>5.8</ele>
        <time>2024-05-07T13:11:21Z</time>
      </trkpt>
      <trkpt lat="47.57876" lon="-3.05206">
        <ele>5.6</ele>
        <time>2024-05-07T13:11:22Z</time>
      </trkpt>
      <trkpt lat="47.57876" lon="-3.05206">
        <ele>5.6</ele>
        <time>2024-05-07T13:11:23Z</time>
      </trkpt>
      <trkpt lat="47.57876" lon="-3.05205">
        <ele>5.6</ele>
        <time>2024-05-07T13:11:24Z</time>
      </trkpt>
      <trkpt lat="47.57875" lon="-3.05205">
        <ele>5.6</ele>
        <time>2024-05-07T13:11:25Z</time>
      </trkpt>
      <trkpt lat="47.57875" lon="-3.05205">
        <ele>5.6</ele>
        <time>2024-05-07T13:11:26Z</time>
      </trkpt>
      <trkpt lat="47.57874" lon="-3.05205">
        <ele>5.6</ele>
        <time>2024-05-07T13:11:27Z</time>
      </trkpt>
      <trkpt lat="47.57874" lon="-3.05205">
        <ele>5.6</ele>
        <time>2024-05-07T13:11:28Z</time>
      </trkpt>
      <trkpt lat="47.57874" lon="-3.05205">
        <ele>5.6</ele>
        <time>2024-05-07T13:11:29Z</time>
      </trkpt>
      <trkpt lat="47.57873" lon="-3.05205">
        <ele>5.6</ele>
        <time>2024-05-07T13:11:30Z</time>
      </trkpt>
      <trkpt lat="47.57873" lon="-3.05205">
        <ele>5.6</ele>
        <time>2024-05-07T13:11:31Z</time>
      </trkpt>
      <trkpt lat="47.57873" lon="-3.05204">
        <ele>5.6</ele>
        <time>2024-05-07T13:11:32Z</time>
      </trkpt>
      <trkpt lat="47.57872" lon="-3.05204">
        <ele>5.6</ele>
        <time>2024-05-07T13:11:33Z</time>
      </trkpt>
      <trkpt lat="47.57872" lon="-3.05204">
        <ele>5.6</ele>
        <time>2024-05-07T13:11:34Z</time>
      </trkpt>
      <trkpt lat="47.57872" lon="-3.05204">
        <ele>5.8</ele>
        <time>2024-05-07T13:11:35Z</time>
      </trkpt>
      <trkpt lat="47.57872" lon="-3.05204">
        <ele>5.8</ele>
        <time>2024-05-07T13:11:36Z</time>
      </trkpt>
      <trkpt lat="47.57872" lon="-3.05204">
        <ele>6</ele>
        <time>2024-05-07T13:11:37Z</time>
      </trkpt>
      <trkpt lat="47.57872" lon="-3.05204">
        <ele>6</ele>
        <time>2024-05-07T13:11:38Z</time>
      </trkpt>
      <trkpt lat="47.57872" lon="-3.05204">
        <ele>6</ele>
        <time>2024-05-07T13:11:39Z</time>
      </trkpt>
      <trkpt lat="47.57872" lon="-3.05204">
        <ele>6</ele>
        <time>2024-05-07T13:11:40Z</time>
      </trkpt>
      <trkpt lat="47.57872" lon="-3.05204">
        <ele>6</ele>
        <time>2024-05-07T13:11:41Z</time>
      </trkpt>
      <trkpt lat="47.57872" lon="-3.05204">
        <ele>6</ele>
        <time>2024-05-07T13:11:42Z</time>
      </trkpt>
      <trkpt lat="47.57872" lon="-3.05204">
        <ele>6</ele>
        <time>2024-05-07T13:11:43Z</time>
      </trkpt>
      <trkpt lat="47.57872" lon="-3.05204">
        <ele>6</ele>
        <time>2024-05-07T13:11:44Z</time>
      </trkpt>
      <trkpt lat="47.57872" lon="-3.05204">
        <ele>6</ele>
        <time>2024-05-07T13:11:45Z</time>
      </trkpt>
      <trkpt lat="47.57872" lon="-3.05204">
        <ele>6</ele>
        <time>2024-05-07T13:11:46Z</time>
      </trkpt>
      <trkpt lat="47.57872" lon="-3.05204">
        <ele>6</ele>
        <time>2024-05-07T13:11:47Z</time>
      </trkpt>
      <trkpt lat="47.57872" lon="-3.05204">
        <ele>6</ele>
        <time>2024-05-07T13:11:48Z</time>
      </trkpt>
      <trkpt lat="47.57872" lon="-3.05204">
        <ele>6</ele>
        <time>2024-05-07T13:11:49Z</time>
      </trkpt>
      <trkpt lat="47.57872" lon="-3.05204">
        <ele>6</ele>
        <time>2024-05-07T13:11:50Z</time>
      </trkpt>
      <trkpt lat="47.57872" lon="-3.05204">
        <ele>6</ele>
        <time>2024-05-07T13:11:51Z</time>
      </trkpt>
      <trkpt lat="47.57872" lon="-3.05204">
        <ele>6</ele>
        <time>2024-05-07T13:11:52Z</time>
      </trkpt>
      <trkpt lat="47.57872" lon="-3.05204">
        <ele>6</ele>
        <time>2024-05-07T13:11:53Z</time>
      </trkpt>
      <trkpt lat="47.57872" lon="-3.05204">
        <ele>6</ele>
        <time>2024-05-07T13:11:54Z</time>
      </trkpt>
      <trkpt lat="47.57872" lon="-3.05204">
        <ele>6</ele>
        <time>2024-05-07T13:11:55Z</time>
      </trkpt>
      <trkpt lat="47.57872" lon="-3.05204">
        <ele>6</ele>
        <time>2024-05-07T13:11:56Z</time>
      </trkpt>
      <trkpt lat="47.57872" lon="-3.05204">
        <ele>6</ele>
        <time>2024-05-07T13:11:57Z</time>
      </trkpt>
      <trkpt lat="47.57872" lon="-3.05204">
        <ele>6</ele>
        <time>2024-05-07T13:11:58Z</time>
      </trkpt>
      <trkpt lat="47.57872" lon="-3.05204">
        <ele>6</ele>
        <time>2024-05-07T13:11:59Z</time>
      </trkpt>
      <trkpt lat="47.57872" lon="-3.05204">
        <ele>6</ele>
        <time>2024-05-07T13:12:00Z</time>
      </trkpt>
      <trkpt lat="47.57872" lon="-3.05204">
        <ele>6.2</ele>
        <time>2024-05-07T13:12:01Z</time>
      </trkpt>
      <trkpt lat="47.57872" lon="-3.05204">
        <ele>6.2</ele>
        <time>2024-05-07T13:12:02Z</time>
      </trkpt>
      <trkpt lat="47.57872" lon="-3.05204">
        <ele>5.8</ele>
        <time>2024-05-07T13:12:03Z</time>
      </trkpt>
      <trkpt lat="47.57872" lon="-3.05204">
        <ele>6</ele>
        <time>2024-05-07T13:12:04Z</time>
      </trkpt>
      <trkpt lat="47.57872" lon="-3.05204">
        <ele>5.8</ele>
        <time>2024-05-07T13:12:05Z</time>
      </trkpt>
      <trkpt lat="47.57872" lon="-3.05203">
        <ele>5.8</ele>
        <time>2024-05-07T13:12:06Z</time>
      </trkpt>
      <trkpt lat="47.57872" lon="-3.05203">
        <ele>5.8</ele>
        <time>2024-05-07T13:12:07Z</time>
      </trkpt>
      <trkpt lat="47.57872" lon="-3.05203">
        <ele>5.8</ele>
        <time>2024-05-07T13:12:08Z</time>
      </trkpt>
      <trkpt lat="47.57872" lon="-3.05203">
        <ele>5.8</ele>
        <time>2024-05-07T13:12:09Z</time>
      </trkpt>
      <trkpt lat="47.57872" lon="-3.05203">
        <ele>5.8</ele>
        <time>2024-05-07T13:12:10Z</time>
      </trkpt>
      <trkpt lat="47.57872" lon="-3.05203">
        <ele>5.8</ele>
        <time>2024-05-07T13:12:11Z</time>
      </trkpt>
      <trkpt lat="47.57872" lon="-3.05202">
        <ele>5.6</ele>
        <time>2024-05-07T13:12:12Z</time>
      </trkpt>
      <trkpt lat="47.57872" lon="-3.05202">
        <ele>5.6</ele>
        <time>2024-05-07T13:12:13Z</time>
      </trkpt>
      <trkpt lat="47.57872" lon="-3.05202">
        <ele>5.6</ele>
        <time>2024-05-07T13:12:14Z</time>
      </trkpt>
      <trkpt lat="47.57872" lon="-3.05202">
        <ele>5.6</ele>
        <time>2024-05-07T13:12:15Z</time>
      </trkpt>
      <trkpt lat="47.57873" lon="-3.05202">
        <ele>5.6</ele>
        <time>2024-05-07T13:12:16Z</time>
      </trkpt>
      <trkpt lat="47.57873" lon="-3.05202">
        <ele>5.6</ele>
        <time>2024-05-07T13:12:17Z</time>
      </trkpt>
      <trkpt lat="47.57873" lon="-3.05202">
        <ele>5.6</ele>
        <time>2024-05-07T13:12:18Z</time>
      </trkpt>
      <trkpt lat="47.57873" lon="-3.05202">
        <ele>5.6</ele>
        <time>2024-05-07T13:12:19Z</time>
      </trkpt>
      <trkpt lat="47.57873" lon="-3.05202">
        <ele>5.6</ele>
        <time>2024-05-07T13:12:20Z</time>
      </trkpt>
      <trkpt lat="47.57873" lon="-3.05202">
        <ele>5.8</ele>
        <time>2024-05-07T13:12:21Z</time>
      </trkpt>
      <trkpt lat="47.57873" lon="-3.05202">
        <ele>5.8</ele>
        <time>2024-05-07T13:12:22Z</time>
      </trkpt>
      <trkpt lat="47.57873" lon="-3.05202">
        <ele>5.8</ele>
        <time>2024-05-07T13:12:23Z</time>
      </trkpt>
      <trkpt lat="47.57873" lon="-3.05202">
        <ele>5.8</ele>
        <time>2024-05-07T13:12:24Z</time>
      </trkpt>
      <trkpt lat="47.57874" lon="-3.05202">
        <ele>5.8</ele>
        <time>2024-05-07T13:12:25Z</time>
      </trkpt>
      <trkpt lat="47.57874" lon="-3.05201">
        <ele>5.8</ele>
        <time>2024-05-07T13:12:26Z</time>
      </trkpt>
      <trkpt lat="47.57874" lon="-3.05201">
        <ele>5.8</ele>
        <time>2024-05-07T13:12:27Z</time>
      </trkpt>
      <trkpt lat="47.57874" lon="-3.05201">
        <ele>5.8</ele>
        <time>2024-05-07T13:12:28Z</time>
      </trkpt>
      <trkpt lat="47.57874" lon="-3.05201">
        <ele>5.8</ele>
        <time>2024-05-07T13:12:29Z</time>
      </trkpt>
      <trkpt lat="47.57874" lon="-3.05201">
        <ele>5.8</ele>
        <time>2024-05-07T13:12:30Z</time>
      </trkpt>
      <trkpt lat="47.57874" lon="-3.05201">
        <ele>5.8</ele>
        <time>2024-05-07T13:12:31Z</time>
      </trkpt>
      <trkpt lat="47.57874" lon="-3.05201">
        <ele>5.8</ele>
        <time>2024-05-07T13:12:32Z</time>
      </trkpt>
      <trkpt lat="47.57874" lon="-3.05201">
        <ele>5.6</ele>
        <time>2024-05-07T13:12:33Z</time>
      </trkpt>
      <trkpt lat="47.57874" lon="-3.05201">
        <ele>5.6</ele>
        <time>2024-05-07T13:12:34Z</time>
      </trkpt>
      <trkpt lat="47.57875" lon="-3.05201">
        <ele>5.6</ele>
        <time>2024-05-07T13:12:35Z</time>
      </trkpt>
      <trkpt lat="47.57875" lon="-3.05201">
        <ele>5.6</ele>
        <time>2024-05-07T13:12:36Z</time>
      </trkpt>
      <trkpt lat="47.57875" lon="-3.05201">
        <ele>5.6</ele>
        <time>2024-05-07T13:12:37Z</time>
      </trkpt>
      <trkpt lat="47.57875" lon="-3.05201">
        <ele>5.6</ele>
        <time>2024-05-07T13:12:38Z</time>
      </trkpt>
      <trkpt lat="47.57875" lon="-3.05201">
        <ele>5.6</ele>
        <time>2024-05-07T13:12:39Z</time>
      </trkpt>
      <trkpt lat="47.57875" lon="-3.05201">
        <ele>5.6</ele>
        <time>2024-05-07T13:12:40Z</time>
      </trkpt>
      <trkpt lat="47.57875" lon="-3.05201">
        <ele>5.6</ele>
        <time>2024-05-07T13:12:41Z</time>
      </trkpt>
      <trkpt lat="47.57875" lon="-3.05202">
        <ele>5.6</ele>
        <time>2024-05-07T13:12:42Z</time>
      </trkpt>
      <trkpt lat="47.57875" lon="-3.05202">
        <ele>5.6</ele>
        <time>2024-05-07T13:12:43Z</time>
      </trkpt>
      <trkpt lat="47.57875" lon="-3.05202">
        <ele>5.8</ele>
        <time>2024-05-07T13:12:44Z</time>
      </trkpt>
      <trkpt lat="47.57875" lon="-3.05202">
        <ele>5.8</ele>
        <time>2024-05-07T13:12:45Z</time>
      </trkpt>
      <trkpt lat="47.57875" lon="-3.05202">
        <ele>5.8</ele>
        <time>2024-05-07T13:12:46Z</time>
      </trkpt>
      <trkpt lat="47.57875" lon="-3.05203">
        <ele>5.8</ele>
        <time>2024-05-07T13:12:47Z</time>
      </trkpt>
      <trkpt lat="47.57875" lon="-3.05203">
        <ele>5.8</ele>
        <time>2024-05-07T13:12:48Z</time>
      </trkpt>
      <trkpt lat="47.57875" lon="-3.05203">
        <ele>5.8</ele>
        <time>2024-05-07T13:12:49Z</time>
      </trkpt>
      <trkpt lat="47.57875" lon="-3.05203">
        <ele>5.8</ele>
        <time>2024-05-07T13:12:50Z</time>
      </trkpt>
      <trkpt lat="47.57875" lon="-3.05203">
        <ele>5.8</ele>
        <time>2024-05-07T13:12:51Z</time>
      </trkpt>
      <trkpt lat="47.57875" lon="-3.05204">
        <ele>5.8</ele>
        <time>2024-05-07T13:12:52Z</time>
      </trkpt>
      <trkpt lat="47.57875" lon="-3.05204">
        <ele>5.8</ele>
        <time>2024-05-07T13:12:53Z</time>
      </trkpt>
      <trkpt lat="47.57875" lon="-3.05204">
        <ele>5.8</ele>
        <time>2024-05-07T13:12:54Z</time>
      </trkpt>
      <trkpt lat="47.57875" lon="-3.05204">
        <ele>5.8</ele>
        <time>2024-05-07T13:12:55Z</time>
      </trkpt>
      <trkpt lat="47.57875" lon="-3.05204">
        <ele>5.8</ele>
        <time>2024-05-07T13:12:56Z</time>
      </trkpt>
      <trkpt lat="47.57875" lon="-3.05204">
        <ele>5.8</ele>
        <time>2024-05-07T13:12:57Z</time>
      </trkpt>
      <trkpt lat="47.57875" lon="-3.05204">
        <ele>5.8</ele>
        <time>2024-05-07T13:12:58Z</time>
      </trkpt>
      <trkpt lat="47.57875" lon="-3.05204">
        <ele>5.8</ele>
        <time>2024-05-07T13:12:59Z</time>
      </trkpt>
      <trkpt lat="47.57875" lon="-3.05204">
        <ele>5.8</ele>
        <time>2024-05-07T13:13:00Z</time>
      </trkpt>
      <trkpt lat="47.57875" lon="-3.05204">
        <ele>5.8</ele>
        <time>2024-05-07T13:13:01Z</time>
      </trkpt>
      <trkpt lat="47.57875" lon="-3.05204">
        <ele>5.8</ele>
        <time>2024-05-07T13:13:02Z</time>
      </trkpt>
      <trkpt lat="47.57875" lon="-3.05204">
        <ele>5.8</ele>
        <time>2024-05-07T13:13:03Z</time>
      </trkpt>
      <trkpt lat="47.57875" lon="-3.05204">
        <ele>5.8</ele>
        <time>2024-05-07T13:13:04Z</time>
      </trkpt>
      <trkpt lat="47.57875" lon="-3.05204">
        <ele>5.8</ele>
        <time>2024-05-07T13:13:05Z</time>
      </trkpt>
      <trkpt lat="47.57875" lon="-3.05204">
        <ele>5.8</ele>
        <time>2024-05-07T13:13:06Z</time>
      </trkpt>
      <trkpt lat="47.57875" lon="-3.05204">
        <ele>5.8</ele>
        <time>2024-05-07T13:13:07Z</time>
      </trkpt>
      <trkpt lat="47.57875" lon="-3.05204">
        <ele>5.8</ele>
        <time>2024-05-07T13:13:08Z</time>
      </trkpt>
      <trkpt lat="47.57875" lon="-3.05204">
        <ele>5.8</ele>
        <time>2024-05-07T13:13:09Z</time>
      </trkpt>
      <trkpt lat="47.57875" lon="-3.05204">
        <ele>5.8</ele>
        <time>2024-05-07T13:13:10Z</time>
      </trkpt>
      <trkpt lat="47.57875" lon="-3.05204">
        <ele>5.8</ele>
        <time>2024-05-07T13:13:11Z</time>
      </trkpt>
      <trkpt lat="47.57875" lon="-3.05204">
        <ele>5.8</ele>
        <time>2024-05-07T13:13:12Z</time>
      </trkpt>
      <trkpt lat="47.57875" lon="-3.05204">
        <ele>5.8</ele>
        <time>2024-05-07T13:13:13Z</time>
      </trkpt>
      <trkpt lat="47.57875" lon="-3.05204">
        <ele>5.8</ele>
        <time>2024-05-07T13:13:14Z</time>
      </trkpt>
      <trkpt lat="47.57875" lon="-3.05204">
        <ele>5.8</ele>
        <time>2024-05-07T13:13:15Z</time>
      </trkpt>
      <trkpt lat="47.57874" lon="-3.05204">
        <ele>5.8</ele>
        <time>2024-05-07T13:13:16Z</time>
      </trkpt>
      <trkpt lat="47.57874" lon="-3.05204">
        <ele>5.6</ele>
        <time>2024-05-07T13:13:17Z</time>
      </trkpt>
      <trkpt lat="47.57874" lon="-3.05204">
        <ele>5.6</ele>
        <time>2024-05-07T13:13:18Z</time>
      </trkpt>
      <trkpt lat="47.57875" lon="-3.05204">
        <ele>5.6</ele>
        <time>2024-05-07T13:13:19Z</time>
      </trkpt>
      <trkpt lat="47.57874" lon="-3.05204">
        <ele>5.6</ele>
        <time>2024-05-07T13:13:20Z</time>
      </trkpt>
      <trkpt lat="47.57874" lon="-3.05204">
        <ele>5.6</ele>
        <time>2024-05-07T13:13:21Z</time>
      </trkpt>
      <trkpt lat="47.57874" lon="-3.05204">
        <ele>5.6</ele>
        <time>2024-05-07T13:13:22Z</time>
      </trkpt>
      <trkpt lat="47.57874" lon="-3.05205">
        <ele>5.8</ele>
        <time>2024-05-07T13:13:23Z</time>
      </trkpt>
      <trkpt lat="47.57874" lon="-3.05205">
        <ele>5.8</ele>
        <time>2024-05-07T13:13:24Z</time>
      </trkpt>
      <trkpt lat="47.57874" lon="-3.05205">
        <ele>5.8</ele>
        <time>2024-05-07T13:13:25Z</time>
      </trkpt>
      <trkpt lat="47.57874" lon="-3.05205">
        <ele>5.8</ele>
        <time>2024-05-07T13:13:26Z</time>
      </trkpt>
      <trkpt lat="47.57874" lon="-3.05205">
        <ele>5.8</ele>
        <time>2024-05-07T13:13:27Z</time>
      </trkpt>
      <trkpt lat="47.57874" lon="-3.05205">
        <ele>5.8</ele>
        <time>2024-05-07T13:13:28Z</time>
      </trkpt>
      <trkpt lat="47.57874" lon="-3.05205">
        <ele>5.8</ele>
        <time>2024-05-07T13:13:29Z</time>
      </trkpt>
      <trkpt lat="47.57874" lon="-3.05205">
        <ele>5.8</ele>
        <time>2024-05-07T13:13:30Z</time>
      </trkpt>
      <trkpt lat="47.57874" lon="-3.05205">
        <ele>5.8</ele>
        <time>2024-05-07T13:13:31Z</time>
      </trkpt>
      <trkpt lat="47.57874" lon="-3.05205">
        <ele>5.8</ele>
        <time>2024-05-07T13:13:32Z</time>
      </trkpt>
      <trkpt lat="47.57874" lon="-3.05205">
        <ele>5.8</ele>
        <time>2024-05-07T13:13:33Z</time>
      </trkpt>
      <trkpt lat="47.57874" lon="-3.05205">
        <ele>5.8</ele>
        <time>2024-05-07T13:13:34Z</time>
      </trkpt>
      <trkpt lat="47.57874" lon="-3.05205">
        <ele>5.6</ele>
        <time>2024-05-07T13:13:35Z</time>
      </trkpt>
      <trkpt lat="47.57874" lon="-3.05205">
        <ele>5.6</ele>
        <time>2024-05-07T13:13:36Z</time>
      </trkpt>
      <trkpt lat="47.57874" lon="-3.05205">
        <ele>5.6</ele>
        <time>2024-05-07T13:13:37Z</time>
      </trkpt>
      <trkpt lat="47.57874" lon="-3.05205">
        <ele>5.6</ele>
        <time>2024-05-07T13:13:38Z</time>
      </trkpt>
      <trkpt lat="47.57874" lon="-3.05205">
        <ele>5.6</ele>
        <time>2024-05-07T13:13:39Z</time>
      </trkpt>
      <trkpt lat="47.57874" lon="-3.05205">
        <ele>5.6</ele>
        <time>2024-05-07T13:13:40Z</time>
      </trkpt>
      <trkpt lat="47.57874" lon="-3.05205">
        <ele>5.6</ele>
        <time>2024-05-07T13:13:41Z</time>
      </trkpt>
      <trkpt lat="47.57874" lon="-3.05205">
        <ele>5.6</ele>
        <time>2024-05-07T13:13:42Z</time>
      </trkpt>
      <trkpt lat="47.57874" lon="-3.05205">
        <ele>5.6</ele>
        <time>2024-05-07T13:13:43Z</time>
      </trkpt>
      <trkpt lat="47.57874" lon="-3.05205">
        <ele>5.6</ele>
        <time>2024-05-07T13:13:44Z</time>
      </trkpt>
      <trkpt lat="47.57874" lon="-3.05205">
        <ele>5.6</ele>
        <time>2024-05-07T13:13:45Z</time>
      </trkpt>
      <trkpt lat="47.57874" lon="-3.05205">
        <ele>5.6</ele>
        <time>2024-05-07T13:13:46Z</time>
      </trkpt>
      <trkpt lat="47.57874" lon="-3.05205">
        <ele>5.6</ele>
        <time>2024-05-07T13:13:47Z</time>
      </trkpt>
      <trkpt lat="47.57874" lon="-3.05205">
        <ele>5.6</ele>
        <time>2024-05-07T13:13:48Z</time>
      </trkpt>
      <trkpt lat="47.57874" lon="-3.05205">
        <ele>5.6</ele>
        <time>2024-05-07T13:13:49Z</time>
      </trkpt>
      <trkpt lat="47.57874" lon="-3.05205">
        <ele>5.6</ele>
        <time>2024-05-07T13:13:50Z</time>
      </trkpt>
      <trkpt lat="47.57874" lon="-3.05205">
        <ele>5.6</ele>
        <time>2024-05-07T13:13:51Z</time>
      </trkpt>
      <trkpt lat="47.57874" lon="-3.05205">
        <ele>5.6</ele>
        <time>2024-05-07T13:13:52Z</time>
      </trkpt>
      <trkpt lat="47.57874" lon="-3.05205">
        <ele>5.6</ele>
        <time>2024-05-07T13:13:53Z</time>
      </trkpt>
      <trkpt lat="47.57874" lon="-3.05205">
        <ele>5.6</ele>
        <time>2024-05-07T13:13:54Z</time>
      </trkpt>
      <trkpt lat="47.57874" lon="-3.05205">
        <ele>5.6</ele>
        <time>2024-05-07T13:13:55Z</time>
      </trkpt>
      <trkpt lat="47.57874" lon="-3.05205">
        <ele>5.6</ele>
        <time>2024-05-07T13:13:56Z</time>
      </trkpt>
      <trkpt lat="47.57874" lon="-3.05205">
        <ele>5.6</ele>
        <time>2024-05-07T13:13:57Z</time>
      </trkpt>
      <trkpt lat="47.57874" lon="-3.05205">
        <ele>5.6</ele>
        <time>2024-05-07T13:13:58Z</time>
      </trkpt>
      <trkpt lat="47.57874" lon="-3.05205">
        <ele>5.6</ele>
        <time>2024-05-07T13:13:59Z</time>
      </trkpt>
      <trkpt lat="47.57874" lon="-3.05205">
        <ele>5.6</ele>
        <time>2024-05-07T13:14:00Z</time>
      </trkpt>
      <trkpt lat="47.57874" lon="-3.05205">
        <ele>5.6</ele>
        <time>2024-05-07T13:14:01Z</time>
      </trkpt>
      <trkpt lat="47.57874" lon="-3.05205">
        <ele>5.6</ele>
        <time>2024-05-07T13:14:02Z</time>
      </trkpt>
      <trkpt lat="47.57874" lon="-3.05205">
        <ele>5.6</ele>
        <time>2024-05-07T13:14:03Z</time>
      </trkpt>
      <trkpt lat="47.57874" lon="-3.05205">
        <ele>5.6</ele>
        <time>2024-05-07T13:14:04Z</time>
      </trkpt>
      <trkpt lat="47.57874" lon="-3.05205">
        <ele>5.6</ele>
        <time>2024-05-07T13:14:05Z</time>
      </trkpt>
      <trkpt lat="47.57874" lon="-3.05205">
        <ele>5.6</ele>
        <time>2024-05-07T13:14:06Z</time>
      </trkpt>
      <trkpt lat="47.57874" lon="-3.05205">
        <ele>5.6</ele>
        <time>2024-05-07T13:14:07Z</time>
      </trkpt>
      <trkpt lat="47.57874" lon="-3.05205">
        <ele>5.6</ele>
        <time>2024-05-07T13:14:08Z</time>
      </trkpt>
      <trkpt lat="47.57874" lon="-3.05205">
        <ele>5.6</ele>
        <time>2024-05-07T13:14:09Z</time>
      </trkpt>
      <trkpt lat="47.57874" lon="-3.05205">
        <ele>5.6</ele>
        <time>2024-05-07T13:14:10Z</time>
      </trkpt>
      <trkpt lat="47.57874" lon="-3.05205">
        <ele>5.6</ele>
        <time>2024-05-07T13:14:11Z</time>
      </trkpt>
      <trkpt lat="47.57874" lon="-3.05205">
        <ele>5.6</ele>
        <time>2024-05-07T13:14:12Z</time>
      </trkpt>
      <trkpt lat="47.57874" lon="-3.05205">
        <ele>5.6</ele>
        <time>2024-05-07T13:14:13Z</time>
      </trkpt>
      <trkpt lat="47.57874" lon="-3.05205">
        <ele>5.6</ele>
        <time>2024-05-07T13:14:14Z</time>
      </trkpt>
      <trkpt lat="47.57874" lon="-3.05205">
        <ele>5.6</ele>
        <time>2024-05-07T13:14:15Z</time>
      </trkpt>
      <trkpt lat="47.57874" lon="-3.05205">
        <ele>5.4</ele>
        <time>2024-05-07T13:14:16Z</time>
      </trkpt>
      <trkpt lat="47.57874" lon="-3.05205">
        <ele>5.6</ele>
        <time>2024-05-07T13:14:17Z</time>
      </trkpt>
      <trkpt lat="47.57874" lon="-3.05205">
        <ele>5.6</ele>
        <time>2024-05-07T13:14:18Z</time>
      </trkpt>
      <trkpt lat="47.57874" lon="-3.05205">
        <ele>5.4</ele>
        <time>2024-05-07T13:14:19Z</time>
      </trkpt>
      <trkpt lat="47.57875" lon="-3.05205">
        <ele>5.4</ele>
        <time>2024-05-07T13:14:20Z</time>
      </trkpt>
      <trkpt lat="47.57875" lon="-3.05205">
        <ele>5.4</ele>
        <time>2024-05-07T13:14:21Z</time>
      </trkpt>
      <trkpt lat="47.57875" lon="-3.05205">
        <ele>5.4</ele>
        <time>2024-05-07T13:14:22Z</time>
      </trkpt>
      <trkpt lat="47.57875" lon="-3.05205">
        <ele>5.4</ele>
        <time>2024-05-07T13:14:23Z</time>
      </trkpt>
      <trkpt lat="47.57875" lon="-3.05205">
        <ele>5.4</ele>
        <time>2024-05-07T13:14:24Z</time>
      </trkpt>
      <trkpt lat="47.57875" lon="-3.05205">
        <ele>5.4</ele>
        <time>2024-05-07T13:14:25Z</time>
      </trkpt>
      <trkpt lat="47.57875" lon="-3.05205">
        <ele>5.4</ele>
        <time>2024-05-07T13:14:26Z</time>
      </trkpt>
      <trkpt lat="47.57875" lon="-3.05205">
        <ele>5.4</ele>
        <time>2024-05-07T13:14:27Z</time>
      </trkpt>
      <trkpt lat="47.57875" lon="-3.05205">
        <ele>5.4</ele>
        <time>2024-05-07T13:14:28Z</time>
      </trkpt>
      <trkpt lat="47.57875" lon="-3.05205">
        <ele>5.4</ele>
        <time>2024-05-07T13:14:29Z</time>
      </trkpt>
      <trkpt lat="47.57875" lon="-3.05205">
        <ele>5.4</ele>
        <time>2024-05-07T13:14:30Z</time>
      </trkpt>
      <trkpt lat="47.57875" lon="-3.05205">
        <ele>5.6</ele>
        <time>2024-05-07T13:14:31Z</time>
      </trkpt>
      <trkpt lat="47.57875" lon="-3.05205">
        <ele>5.6</ele>
        <time>2024-05-07T13:14:32Z</time>
      </trkpt>
      <trkpt lat="47.57875" lon="-3.05205">
        <ele>5.6</ele>
        <time>2024-05-07T13:14:33Z</time>
      </trkpt>
      <trkpt lat="47.57875" lon="-3.05205">
        <ele>5.6</ele>
        <time>2024-05-07T13:14:34Z</time>
      </trkpt>
      <trkpt lat="47.57875" lon="-3.05205">
        <ele>5.6</ele>
        <time>2024-05-07T13:14:35Z</time>
      </trkpt>
      <trkpt lat="47.57875" lon="-3.05205">
        <ele>5.6</ele>
        <time>2024-05-07T13:14:36Z</time>
      </trkpt>
      <trkpt lat="47.57875" lon="-3.05205">
        <ele>5.6</ele>
        <time>2024-05-07T13:14:37Z</time>
      </trkpt>
      <trkpt lat="47.57875" lon="-3.05205">
        <ele>5.6</ele>
        <time>2024-05-07T13:14:38Z</time>
      </trkpt>
      <trkpt lat="47.57875" lon="-3.05205">
        <ele>5.6</ele>
        <time>2024-05-07T13:14:39Z</time>
      </trkpt>
      <trkpt lat="47.57875" lon="-3.05205">
        <ele>5.8</ele>
        <time>2024-05-07T13:14:40Z</time>
      </trkpt>
      <trkpt lat="47.57875" lon="-3.05205">
        <ele>5.8</ele>
        <time>2024-05-07T13:14:41Z</time>
      </trkpt>
      <trkpt lat="47.57875" lon="-3.05205">
        <ele>5.8</ele>
        <time>2024-05-07T13:14:42Z</time>
      </trkpt>
      <trkpt lat="47.57875" lon="-3.05205">
        <ele>5.8</ele>
        <time>2024-05-07T13:14:43Z</time>
      </trkpt>
      <trkpt lat="47.57875" lon="-3.05205">
        <ele>5.8</ele>
        <time>2024-05-07T13:14:44Z</time>
      </trkpt>
      <trkpt lat="47.57875" lon="-3.05205">
        <ele>5.8</ele>
        <time>2024-05-07T13:14:45Z</time>
      </trkpt>
      <trkpt lat="47.57875" lon="-3.05205">
        <ele>5.8</ele>
        <time>2024-05-07T13:14:46Z</time>
      </trkpt>
      <trkpt lat="47.57875" lon="-3.05205">
        <ele>5.8</ele>
        <time>2024-05-07T13:14:47Z</time>
      </trkpt>
      <trkpt lat="47.57875" lon="-3.05205">
        <ele>5.8</ele>
        <time>2024-05-07T13:14:48Z</time>
      </trkpt>
      <trkpt lat="47.57875" lon="-3.05205">
        <ele>5.8</ele>
        <time>2024-05-07T13:14:49Z</time>
      </trkpt>
      <trkpt lat="47.57875" lon="-3.05205">
        <ele>5.8</ele>
        <time>2024-05-07T13:14:50Z</time>
      </trkpt>
      <trkpt lat="47.57875" lon="-3.05205">
        <ele>5.8</ele>
        <time>2024-05-07T13:14:51Z</time>
      </trkpt>
      <trkpt lat="47.57875" lon="-3.05205">
        <ele>5.8</ele>
        <time>2024-05-07T13:14:52Z</time>
      </trkpt>
      <trkpt lat="47.57875" lon="-3.05205">
        <ele>5.8</ele>
        <time>2024-05-07T13:14:53Z</time>
      </trkpt>
      <trkpt lat="47.57875" lon="-3.05205">
        <ele>5.8</ele>
        <time>2024-05-07T13:14:54Z</time>
      </trkpt>
      <trkpt lat="47.57875" lon="-3.05205">
        <ele>5.8</ele>
        <time>2024-05-07T13:14:55Z</time>
      </trkpt>
      <trkpt lat="47.57875" lon="-3.05205">
        <ele>5.8</ele>
        <time>2024-05-07T13:14:56Z</time>
      </trkpt>
      <trkpt lat="47.57875" lon="-3.05205">
        <ele>5.6</ele>
        <time>2024-05-07T13:14:57Z</time>
      </trkpt>
      <trkpt lat="47.57875" lon="-3.05205">
        <ele>5.6</ele>
        <time>2024-05-07T13:14:58Z</time>
      </trkpt>
      <trkpt lat="47.57875" lon="-3.05205">
        <ele>5.6</ele>
        <time>2024-05-07T13:14:59Z</time>
      </trkpt>
      <trkpt lat="47.57875" lon="-3.05205">
        <ele>5.6</ele>
        <time>2024-05-07T13:15:00Z</time>
      </trkpt>
      <trkpt lat="47.57875" lon="-3.05205">
        <ele>5.6</ele>
        <time>2024-05-07T13:15:01Z</time>
      </trkpt>
      <trkpt lat="47.57875" lon="-3.05205">
        <ele>5.6</ele>
        <time>2024-05-07T13:15:02Z</time>
      </trkpt>
      <trkpt lat="47.57875" lon="-3.05205">
        <ele>5.8</ele>
        <time>2024-05-07T13:15:03Z</time>
      </trkpt>
      <trkpt lat="47.57875" lon="-3.05205">
        <ele>5.8</ele>
        <time>2024-05-07T13:15:04Z</time>
      </trkpt>
      <trkpt lat="47.57875" lon="-3.05205">
        <ele>5.8</ele>
        <time>2024-05-07T13:15:05Z</time>
      </trkpt>
      <trkpt lat="47.57875" lon="-3.05205">
        <ele>5.8</ele>
        <time>2024-05-07T13:15:06Z</time>
      </trkpt>
      <trkpt lat="47.57875" lon="-3.05206">
        <ele>5.8</ele>
        <time>2024-05-07T13:15:07Z</time>
      </trkpt>
      <trkpt lat="47.57875" lon="-3.05206">
        <ele>5.8</ele>
        <time>2024-05-07T13:15:08Z</time>
      </trkpt>
      <trkpt lat="47.57875" lon="-3.05206">
        <ele>5.8</ele>
        <time>2024-05-07T13:15:09Z</time>
      </trkpt>
      <trkpt lat="47.57875" lon="-3.05206">
        <ele>5.8</ele>
        <time>2024-05-07T13:15:10Z</time>
      </trkpt>
      <trkpt lat="47.57875" lon="-3.05206">
        <ele>5.8</ele>
        <time>2024-05-07T13:15:11Z</time>
      </trkpt>
      <trkpt lat="47.57875" lon="-3.05206">
        <ele>5.8</ele>
        <time>2024-05-07T13:15:12Z</time>
      </trkpt>
      <trkpt lat="47.57875" lon="-3.05206">
        <ele>5.8</ele>
        <time>2024-05-07T13:15:13Z</time>
      </trkpt>
      <trkpt lat="47.57875" lon="-3.05206">
        <ele>5.8</ele>
        <time>2024-05-07T13:15:14Z</time>
      </trkpt>
      <trkpt lat="47.57875" lon="-3.05206">
        <ele>5.8</ele>
        <time>2024-05-07T13:15:15Z</time>
      </trkpt>
      <trkpt lat="47.57875" lon="-3.05206">
        <ele>5.8</ele>
        <time>2024-05-07T13:15:16Z</time>
      </trkpt>
      <trkpt lat="47.57875" lon="-3.05206">
        <ele>5.8</ele>
        <time>2024-05-07T13:15:17Z</time>
      </trkpt>
      <trkpt lat="47.57875" lon="-3.05206">
        <ele>5.8</ele>
        <time>2024-05-07T13:15:18Z</time>
      </trkpt>
      <trkpt lat="47.57875" lon="-3.05206">
        <ele>5.8</ele>
        <time>2024-05-07T13:15:19Z</time>
      </trkpt>
      <trkpt lat="47.57875" lon="-3.05206">
        <ele>5.8</ele>
        <time>2024-05-07T13:15:20Z</time>
      </trkpt>
      <trkpt lat="47.57875" lon="-3.05206">
        <ele>5.8</ele>
        <time>2024-05-07T13:15:21Z</time>
      </trkpt>
      <trkpt lat="47.57875" lon="-3.05206">
        <ele>5.8</ele>
        <time>2024-05-07T13:15:22Z</time>
      </trkpt>
      <trkpt lat="47.57875" lon="-3.05206">
        <ele>5.8</ele>
        <time>2024-05-07T13:15:23Z</time>
      </trkpt>
      <trkpt lat="47.57875" lon="-3.05206">
        <ele>5.8</ele>
        <time>2024-05-07T13:15:24Z</time>
      </trkpt>
      <trkpt lat="47.57875" lon="-3.05206">
        <ele>5.8</ele>
        <time>2024-05-07T13:15:25Z</time>
      </trkpt>
      <trkpt lat="47.57875" lon="-3.05206">
        <ele>5.8</ele>
        <time>2024-05-07T13:15:26Z</time>
      </trkpt>
      <trkpt lat="47.57875" lon="-3.05206">
        <ele>5.8</ele>
        <time>2024-05-07T13:15:27Z</time>
      </trkpt>
      <trkpt lat="47.57875" lon="-3.05206">
        <ele>5.8</ele>
        <time>2024-05-07T13:15:28Z</time>
      </trkpt>
      <trkpt lat="47.57875" lon="-3.05206">
        <ele>5.8</ele>
        <time>2024-05-07T13:15:29Z</time>
      </trkpt>
      <trkpt lat="47.57875" lon="-3.05206">
        <ele>5.8</ele>
        <time>2024-05-07T13:15:30Z</time>
      </trkpt>
      <trkpt lat="47.57875" lon="-3.05206">
        <ele>5.8</ele>
        <time>2024-05-07T13:15:31Z</time>
      </trkpt>
      <trkpt lat="47.57875" lon="-3.05206">
        <ele>5.8</ele>
        <time>2024-05-07T13:15:32Z</time>
      </trkpt>
      <trkpt lat="47.57875" lon="-3.05206">
        <ele>5.8</ele>
        <time>2024-05-07T13:15:33Z</time>
      </trkpt>
      <trkpt lat="47.57875" lon="-3.05206">
        <ele>5.8</ele>
        <time>2024-05-07T13:15:34Z</time>
      </trkpt>
      <trkpt lat="47.57875" lon="-3.05206">
        <ele>5.8</ele>
        <time>2024-05-07T13:15:35Z</time>
      </trkpt>
      <trkpt lat="47.57875" lon="-3.05206">
        <ele>5.8</ele>
        <time>2024-05-07T13:15:36Z</time>
      </trkpt>
      <trkpt lat="47.57875" lon="-3.05206">
        <ele>5.8</ele>
        <time>2024-05-07T13:15:37Z</time>
      </trkpt>
      <trkpt lat="47.57875" lon="-3.05206">
        <ele>5.8</ele>
        <time>2024-05-07T13:15:38Z</time>
      </trkpt>
      <trkpt lat="47.57875" lon="-3.05206">
        <ele>5.8</ele>
        <time>2024-05-07T13:15:39Z</time>
      </trkpt>
      <trkpt lat="47.57875" lon="-3.05206">
        <ele>5.6</ele>
        <time>2024-05-07T13:15:40Z</time>
      </trkpt>
      <trkpt lat="47.57875" lon="-3.05206">
        <ele>5.6</ele>
        <time>2024-05-07T13:15:41Z</time>
      </trkpt>
      <trkpt lat="47.57875" lon="-3.05206">
        <ele>5.6</ele>
        <time>2024-05-07T13:15:42Z</time>
      </trkpt>
      <trkpt lat="47.57875" lon="-3.05206">
        <ele>5.6</ele>
        <time>2024-05-07T13:15:43Z</time>
      </trkpt>
      <trkpt lat="47.57875" lon="-3.05206">
        <ele>6</ele>
        <time>2024-05-07T13:15:44Z</time>
      </trkpt>
      <trkpt lat="47.57875" lon="-3.05206">
        <ele>6</ele>
        <time>2024-05-07T13:15:45Z</time>
      </trkpt>
      <trkpt lat="47.57875" lon="-3.05206">
        <ele>6</ele>
        <time>2024-05-07T13:15:46Z</time>
      </trkpt>
      <trkpt lat="47.57875" lon="-3.05206">
        <ele>6</ele>
        <time>2024-05-07T13:15:47Z</time>
      </trkpt>
      <trkpt lat="47.57875" lon="-3.05206">
        <ele>5.8</ele>
        <time>2024-05-07T13:15:48Z</time>
      </trkpt>
      <trkpt lat="47.57875" lon="-3.05206">
        <ele>5.8</ele>
        <time>2024-05-07T13:15:49Z</time>
      </trkpt>
      <trkpt lat="47.57875" lon="-3.05206">
        <ele>5.8</ele>
        <time>2024-05-07T13:15:50Z</time>
      </trkpt>
      <trkpt lat="47.57875" lon="-3.05206">
        <ele>5.8</ele>
        <time>2024-05-07T13:15:51Z</time>
      </trkpt>
      <trkpt lat="47.57875" lon="-3.05206">
        <ele>5.8</ele>
        <time>2024-05-07T13:15:52Z</time>
      </trkpt>
      <trkpt lat="47.57875" lon="-3.05206">
        <ele>5.8</ele>
        <time>2024-05-07T13:15:53Z</time>
      </trkpt>
      <trkpt lat="47.57875" lon="-3.05206">
        <ele>5.8</ele>
        <time>2024-05-07T13:15:54Z</time>
      </trkpt>
      <trkpt lat="47.57875" lon="-3.05206">
        <ele>5.8</ele>
        <time>2024-05-07T13:15:55Z</time>
      </trkpt>
      <trkpt lat="47.57875" lon="-3.05206">
        <ele>5.8</ele>
        <time>2024-05-07T13:15:56Z</time>
      </trkpt>
      <trkpt lat="47.57875" lon="-3.05206">
        <ele>5.8</ele>
        <time>2024-05-07T13:15:57Z</time>
      </trkpt>
      <trkpt lat="47.57875" lon="-3.05206">
        <ele>5.8</ele>
        <time>2024-05-07T13:15:58Z</time>
      </trkpt>
      <trkpt lat="47.57875" lon="-3.05206">
        <ele>5.8</ele>
        <time>2024-05-07T13:15:59Z</time>
      </trkpt>
      <trkpt lat="47.57875" lon="-3.05206">
        <ele>5.8</ele>
        <time>2024-05-07T13:16:00Z</time>
      </trkpt>
      <trkpt lat="47.57875" lon="-3.05206">
        <ele>5.6</ele>
        <time>2024-05-07T13:16:01Z</time>
      </trkpt>
      <trkpt lat="47.57875" lon="-3.05206">
        <ele>5.6</ele>
        <time>2024-05-07T13:16:02Z</time>
      </trkpt>
      <trkpt lat="47.57875" lon="-3.05206">
        <ele>5.6</ele>
        <time>2024-05-07T13:16:03Z</time>
      </trkpt>
      <trkpt lat="47.57875" lon="-3.05206">
        <ele>5.6</ele>
        <time>2024-05-07T13:16:04Z</time>
      </trkpt>
      <trkpt lat="47.57875" lon="-3.05206">
        <ele>5.6</ele>
        <time>2024-05-07T13:16:05Z</time>
      </trkpt>
      <trkpt lat="47.57875" lon="-3.05206">
        <ele>5.6</ele>
        <time>2024-05-07T13:16:06Z</time>
      </trkpt>
      <trkpt lat="47.57875" lon="-3.05206">
        <ele>5.6</ele>
        <time>2024-05-07T13:16:07Z</time>
      </trkpt>
      <trkpt lat="47.57875" lon="-3.05206">
        <ele>5.6</ele>
        <time>2024-05-07T13:16:08Z</time>
      </trkpt>
      <trkpt lat="47.57875" lon="-3.05206">
        <ele>5.6</ele>
        <time>2024-05-07T13:16:09Z</time>
      </trkpt>
      <trkpt lat="47.57875" lon="-3.05206">
        <ele>5.6</ele>
        <time>2024-05-07T13:16:10Z</time>
      </trkpt>
      <trkpt lat="47.57875" lon="-3.05206">
        <ele>5.6</ele>
        <time>2024-05-07T13:16:11Z</time>
      </trkpt>
      <trkpt lat="47.57875" lon="-3.05206">
        <ele>5.6</ele>
        <time>2024-05-07T13:16:12Z</time>
      </trkpt>
      <trkpt lat="47.57875" lon="-3.05206">
        <ele>5.6</ele>
        <time>2024-05-07T13:16:13Z</time>
      </trkpt>
      <trkpt lat="47.57875" lon="-3.05206">
        <ele>5.8</ele>
        <time>2024-05-07T13:16:14Z</time>
      </trkpt>
      <trkpt lat="47.57875" lon="-3.05206">
        <ele>5.8</ele>
        <time>2024-05-07T13:16:15Z</time>
      </trkpt>
      <trkpt lat="47.57875" lon="-3.05206">
        <ele>5.8</ele>
        <time>2024-05-07T13:16:16Z</time>
      </trkpt>
      <trkpt lat="47.57875" lon="-3.05206">
        <ele>5.6</ele>
        <time>2024-05-07T13:16:17Z</time>
      </trkpt>
      <trkpt lat="47.57875" lon="-3.05206">
        <ele>5.6</ele>
        <time>2024-05-07T13:16:18Z</time>
      </trkpt>
      <trkpt lat="47.57875" lon="-3.05206">
        <ele>5.6</ele>
        <time>2024-05-07T13:16:19Z</time>
      </trkpt>
      <trkpt lat="47.57875" lon="-3.05206">
        <ele>5.6</ele>
        <time>2024-05-07T13:16:20Z</time>
      </trkpt>
      <trkpt lat="47.57875" lon="-3.05206">
        <ele>5.6</ele>
        <time>2024-05-07T13:16:21Z</time>
      </trkpt>
      <trkpt lat="47.57875" lon="-3.05206">
        <ele>5.6</ele>
        <time>2024-05-07T13:16:22Z</time>
      </trkpt>
      <trkpt lat="47.57875" lon="-3.05206">
        <ele>5.6</ele>
        <time>2024-05-07T13:16:23Z</time>
      </trkpt>
      <trkpt lat="47.57875" lon="-3.05206">
        <ele>5.6</ele>
        <time>2024-05-07T13:16:24Z</time>
      </trkpt>
      <trkpt lat="47.57875" lon="-3.05206">
        <ele>5.6</ele>
        <time>2024-05-07T13:16:25Z</time>
      </trkpt>
      <trkpt lat="47.57875" lon="-3.05206">
        <ele>5.6</ele>
        <time>2024-05-07T13:16:26Z</time>
      </trkpt>
      <trkpt lat="47.57875" lon="-3.05206">
        <ele>5.6</ele>
        <time>2024-05-07T13:16:27Z</time>
      </trkpt>
      <trkpt lat="47.57875" lon="-3.05206">
        <ele>5.6</ele>
        <time>2024-05-07T13:16:28Z</time>
      </trkpt>
      <trkpt lat="47.57875" lon="-3.05206">
        <ele>5.6</ele>
        <time>2024-05-07T13:16:29Z</time>
      </trkpt>
      <trkpt lat="47.57875" lon="-3.05206">
        <ele>5.6</ele>
        <time>2024-05-07T13:16:30Z</time>
      </trkpt>
      <trkpt lat="47.57875" lon="-3.05206">
        <ele>5.6</ele>
        <time>2024-05-07T13:16:31Z</time>
      </trkpt>
      <trkpt lat="47.57875" lon="-3.05206">
        <ele>5.6</ele>
        <time>2024-05-07T13:16:32Z</time>
      </trkpt>
      <trkpt lat="47.57875" lon="-3.05206">
        <ele>5.6</ele>
        <time>2024-05-07T13:16:33Z</time>
      </trkpt>
      <trkpt lat="47.57875" lon="-3.05206">
        <ele>5.6</ele>
        <time>2024-05-07T13:16:34Z</time>
      </trkpt>
      <trkpt lat="47.57875" lon="-3.05206">
        <ele>5.4</ele>
        <time>2024-05-07T13:16:35Z</time>
      </trkpt>
      <trkpt lat="47.57875" lon="-3.05206">
        <ele>5.4</ele>
        <time>2024-05-07T13:16:36Z</time>
      </trkpt>
      <trkpt lat="47.57875" lon="-3.05206">
        <ele>5.4</ele>
        <time>2024-05-07T13:16:37Z</time>
      </trkpt>
      <trkpt lat="47.57875" lon="-3.05206">
        <ele>5.4</ele>
        <time>2024-05-07T13:16:38Z</time>
      </trkpt>
      <trkpt lat="47.57875" lon="-3.05206">
        <ele>5.4</ele>
        <time>2024-05-07T13:16:39Z</time>
      </trkpt>
      <trkpt lat="47.57875" lon="-3.05206">
        <ele>5.4</ele>
        <time>2024-05-07T13:16:40Z</time>
      </trkpt>
      <trkpt lat="47.57875" lon="-3.05206">
        <ele>5.4</ele>
        <time>2024-05-07T13:16:41Z</time>
      </trkpt>
      <trkpt lat="47.57875" lon="-3.05206">
        <ele>5.4</ele>
        <time>2024-05-07T13:16:42Z</time>
      </trkpt>
      <trkpt lat="47.57875" lon="-3.05206">
        <ele>5.4</ele>
        <time>2024-05-07T13:16:43Z</time>
      </trkpt>
      <trkpt lat="47.57875" lon="-3.05206">
        <ele>5.4</ele>
        <time>2024-05-07T13:16:44Z</time>
      </trkpt>
      <trkpt lat="47.57875" lon="-3.05206">
        <ele>5.4</ele>
        <time>2024-05-07T13:16:45Z</time>
      </trkpt>
      <trkpt lat="47.57875" lon="-3.05206">
        <ele>5.4</ele>
        <time>2024-05-07T13:16:46Z</time>
      </trkpt>
      <trkpt lat="47.57875" lon="-3.05206">
        <ele>5.4</ele>
        <time>2024-05-07T13:16:47Z</time>
      </trkpt>
      <trkpt lat="47.57875" lon="-3.05206">
        <ele>5.4</ele>
        <time>2024-05-07T13:16:48Z</time>
      </trkpt>
      <trkpt lat="47.57875" lon="-3.05206">
        <ele>5.4</ele>
        <time>2024-05-07T13:16:49Z</time>
      </trkpt>
      <trkpt lat="47.57875" lon="-3.05206">
        <ele>5.4</ele>
        <time>2024-05-07T13:16:50Z</time>
      </trkpt>
      <trkpt lat="47.57875" lon="-3.05206">
        <ele>5.4</ele>
        <time>2024-05-07T13:16:51Z</time>
      </trkpt>
      <trkpt lat="47.57875" lon="-3.05206">
        <ele>5.4</ele>
        <time>2024-05-07T13:16:52Z</time>
      </trkpt>
      <trkpt lat="47.57875" lon="-3.05206">
        <ele>5.4</ele>
        <time>2024-05-07T13:16:53Z</time>
      </trkpt>
      <trkpt lat="47.57875" lon="-3.05206">
        <ele>5.4</ele>
        <time>2024-05-07T13:16:54Z</time>
      </trkpt>
      <trkpt lat="47.57875" lon="-3.05206">
        <ele>5.4</ele>
        <time>2024-05-07T13:16:55Z</time>
      </trkpt>
      <trkpt lat="47.57875" lon="-3.05206">
        <ele>5.4</ele>
        <time>2024-05-07T13:16:56Z</time>
      </trkpt>
      <trkpt lat="47.57875" lon="-3.05206">
        <ele>5.4</ele>
        <time>2024-05-07T13:16:57Z</time>
      </trkpt>
      <trkpt lat="47.57875" lon="-3.05206">
        <ele>5.2</ele>
        <time>2024-05-07T13:16:58Z</time>
      </trkpt>
      <trkpt lat="47.57875" lon="-3.05206">
        <ele>5.2</ele>
        <time>2024-05-07T13:16:59Z</time>
      </trkpt>
      <trkpt lat="47.57875" lon="-3.05206">
        <ele>5.2</ele>
        <time>2024-05-07T13:17:00Z</time>
      </trkpt>
      <trkpt lat="47.57875" lon="-3.05206">
        <ele>5.2</ele>
        <time>2024-05-07T13:17:01Z</time>
      </trkpt>
      <trkpt lat="47.57875" lon="-3.05206">
        <ele>5.2</ele>
        <time>2024-05-07T13:17:02Z</time>
      </trkpt>
      <trkpt lat="47.57875" lon="-3.05206">
        <ele>5.2</ele>
        <time>2024-05-07T13:17:03Z</time>
      </trkpt>
      <trkpt lat="47.57875" lon="-3.05206">
        <ele>5.2</ele>
        <time>2024-05-07T13:17:04Z</time>
      </trkpt>
      <trkpt lat="47.57875" lon="-3.05206">
        <ele>5.2</ele>
        <time>2024-05-07T13:17:05Z</time>
      </trkpt>
      <trkpt lat="47.57875" lon="-3.05206">
        <ele>5.2</ele>
        <time>2024-05-07T13:17:06Z</time>
      </trkpt>
      <trkpt lat="47.57875" lon="-3.05206">
        <ele>5.2</ele>
        <time>2024-05-07T13:17:07Z</time>
      </trkpt>
      <trkpt lat="47.57875" lon="-3.05206">
        <ele>5</ele>
        <time>2024-05-07T13:17:08Z</time>
      </trkpt>
      <trkpt lat="47.57875" lon="-3.05206">
        <ele>5</ele>
        <time>2024-05-07T13:17:09Z</time>
      </trkpt>
      <trkpt lat="47.57875" lon="-3.05206">
        <ele>5</ele>
        <time>2024-05-07T13:17:10Z</time>
      </trkpt>
      <trkpt lat="47.57875" lon="-3.05206">
        <ele>5</ele>
        <time>2024-05-07T13:17:11Z</time>
      </trkpt>
      <trkpt lat="47.57875" lon="-3.05206">
        <ele>5</ele>
        <time>2024-05-07T13:17:12Z</time>
      </trkpt>
      <trkpt lat="47.57875" lon="-3.05206">
        <ele>5</ele>
        <time>2024-05-07T13:17:13Z</time>
      </trkpt>
      <trkpt lat="47.57875" lon="-3.05206">
        <ele>5</ele>
        <time>2024-05-07T13:17:14Z</time>
      </trkpt>
      <trkpt lat="47.57875" lon="-3.05206">
        <ele>5</ele>
        <time>2024-05-07T13:17:15Z</time>
      </trkpt>
      <trkpt lat="47.57875" lon="-3.05206">
        <ele>5</ele>
        <time>2024-05-07T13:17:16Z</time>
      </trkpt>
      <trkpt lat="47.57875" lon="-3.05206">
        <ele>5.2</ele>
        <time>2024-05-07T13:17:17Z</time>
      </trkpt>
      <trkpt lat="47.57875" lon="-3.05206">
        <ele>5.2</ele>
        <time>2024-05-07T13:17:18Z</time>
      </trkpt>
      <trkpt lat="47.57875" lon="-3.05206">
        <ele>5.2</ele>
        <time>2024-05-07T13:17:19Z</time>
      </trkpt>
      <trkpt lat="47.57875" lon="-3.05206">
        <ele>5.2</ele>
        <time>2024-05-07T13:17:20Z</time>
      </trkpt>
      <trkpt lat="47.57875" lon="-3.05206">
        <ele>5.4</ele>
        <time>2024-05-07T13:17:21Z</time>
      </trkpt>
      <trkpt lat="47.57875" lon="-3.05206">
        <ele>5.4</ele>
        <time>2024-05-07T13:17:22Z</time>
      </trkpt>
      <trkpt lat="47.57875" lon="-3.05206">
        <ele>5.4</ele>
        <time>2024-05-07T13:17:23Z</time>
      </trkpt>
      <trkpt lat="47.57875" lon="-3.05206">
        <ele>5.4</ele>
        <time>2024-05-07T13:17:24Z</time>
      </trkpt>
      <trkpt lat="47.57875" lon="-3.05206">
        <ele>5.4</ele>
        <time>2024-05-07T13:17:25Z</time>
      </trkpt>
      <trkpt lat="47.57875" lon="-3.05206">
        <ele>5.4</ele>
        <time>2024-05-07T13:17:26Z</time>
      </trkpt>
      <trkpt lat="47.57875" lon="-3.05206">
        <ele>5.4</ele>
        <time>2024-05-07T13:17:27Z</time>
      </trkpt>
      <trkpt lat="47.57875" lon="-3.05206">
        <ele>5.4</ele>
        <time>2024-05-07T13:17:28Z</time>
      </trkpt>
      <trkpt lat="47.57875" lon="-3.05206">
        <ele>5.4</ele>
        <time>2024-05-07T13:17:29Z</time>
      </trkpt>
      <trkpt lat="47.57875" lon="-3.05206">
        <ele>5.4</ele>
        <time>2024-05-07T13:17:30Z</time>
      </trkpt>
      <trkpt lat="47.57875" lon="-3.05206">
        <ele>5.4</ele>
        <time>2024-05-07T13:17:31Z</time>
      </trkpt>
      <trkpt lat="47.57875" lon="-3.05206">
        <ele>5.4</ele>
        <time>2024-05-07T13:17:32Z</time>
      </trkpt>
      <trkpt lat="47.57875" lon="-3.05206">
        <ele>5.4</ele>
        <time>2024-05-07T13:17:33Z</time>
      </trkpt>
      <trkpt lat="47.57875" lon="-3.05206">
        <ele>5.4</ele>
        <time>2024-05-07T13:17:34Z</time>
      </trkpt>
      <trkpt lat="47.57875" lon="-3.05206">
        <ele>5.4</ele>
        <time>2024-05-07T13:17:35Z</time>
      </trkpt>
      <trkpt lat="47.57875" lon="-3.05206">
        <ele>5.4</ele>
        <time>2024-05-07T13:17:36Z</time>
      </trkpt>
      <trkpt lat="47.57875" lon="-3.05206">
        <ele>5.2</ele>
        <time>2024-05-07T13:17:37Z</time>
      </trkpt>
      <trkpt lat="47.57875" lon="-3.05206">
        <ele>5.2</ele>
        <time>2024-05-07T13:17:38Z</time>
      </trkpt>
      <trkpt lat="47.57875" lon="-3.05206">
        <ele>5.2</ele>
        <time>2024-05-07T13:17:39Z</time>
      </trkpt>
      <trkpt lat="47.57875" lon="-3.05206">
        <ele>5.2</ele>
        <time>2024-05-07T13:17:40Z</time>
      </trkpt>
      <trkpt lat="47.57875" lon="-3.05206">
        <ele>5.2</ele>
        <time>2024-05-07T13:17:41Z</time>
      </trkpt>
      <trkpt lat="47.57875" lon="-3.05206">
        <ele>5.2</ele>
        <time>2024-05-07T13:17:42Z</time>
      </trkpt>
      <trkpt lat="47.57875" lon="-3.05206">
        <ele>5.2</ele>
        <time>2024-05-07T13:17:43Z</time>
      </trkpt>
      <trkpt lat="47.57875" lon="-3.05207">
        <ele>5.2</ele>
        <time>2024-05-07T13:17:44Z</time>
      </trkpt>
      <trkpt lat="47.57875" lon="-3.05207">
        <ele>5.2</ele>
        <time>2024-05-07T13:17:45Z</time>
      </trkpt>
      <trkpt lat="47.57875" lon="-3.05207">
        <ele>5.2</ele>
        <time>2024-05-07T13:17:46Z</time>
      </trkpt>
      <trkpt lat="47.57875" lon="-3.05207">
        <ele>5.4</ele>
        <time>2024-05-07T13:17:47Z</time>
      </trkpt>
      <trkpt lat="47.57876" lon="-3.05207">
        <ele>5.4</ele>
        <time>2024-05-07T13:17:48Z</time>
      </trkpt>
      <trkpt lat="47.57876" lon="-3.05207">
        <ele>5.4</ele>
        <time>2024-05-07T13:17:49Z</time>
      </trkpt>
      <trkpt lat="47.57876" lon="-3.05207">
        <ele>5.4</ele>
        <time>2024-05-07T13:17:50Z</time>
      </trkpt>
      <trkpt lat="47.57876" lon="-3.05207">
        <ele>5.4</ele>
        <time>2024-05-07T13:17:51Z</time>
      </trkpt>
      <trkpt lat="47.57876" lon="-3.05207">
        <ele>5.2</ele>
        <time>2024-05-07T13:17:52Z</time>
      </trkpt>
      <trkpt lat="47.57876" lon="-3.05207">
        <ele>5.2</ele>
        <time>2024-05-07T13:17:53Z</time>
      </trkpt>
      <trkpt lat="47.57876" lon="-3.05207">
        <ele>5.2</ele>
        <time>2024-05-07T13:17:54Z</time>
      </trkpt>
      <trkpt lat="47.57876" lon="-3.05207">
        <ele>5</ele>
        <time>2024-05-07T13:17:55Z</time>
      </trkpt>
      <trkpt lat="47.57876" lon="-3.05207">
        <ele>5</ele>
        <time>2024-05-07T13:17:56Z</time>
      </trkpt>
      <trkpt lat="47.57876" lon="-3.05207">
        <ele>5</ele>
        <time>2024-05-07T13:17:57Z</time>
      </trkpt>
      <trkpt lat="47.57876" lon="-3.05207">
        <ele>5.2</ele>
        <time>2024-05-07T13:17:58Z</time>
      </trkpt>
      <trkpt lat="47.57876" lon="-3.05207">
        <ele>5.2</ele>
        <time>2024-05-07T13:17:59Z</time>
      </trkpt>
      <trkpt lat="47.57876" lon="-3.05207">
        <ele>5.2</ele>
        <time>2024-05-07T13:18:00Z</time>
      </trkpt>
      <trkpt lat="47.57876" lon="-3.05207">
        <ele>5.2</ele>
        <time>2024-05-07T13:18:01Z</time>
      </trkpt>
      <trkpt lat="47.57876" lon="-3.05207">
        <ele>5.2</ele>
        <time>2024-05-07T13:18:02Z</time>
      </trkpt>
      <trkpt lat="47.57876" lon="-3.05207">
        <ele>5.2</ele>
        <time>2024-05-07T13:18:03Z</time>
      </trkpt>
      <trkpt lat="47.57876" lon="-3.05207">
        <ele>5.4</ele>
        <time>2024-05-07T13:18:04Z</time>
      </trkpt>
      <trkpt lat="47.57876" lon="-3.05207">
        <ele>5.2</ele>
        <time>2024-05-07T13:18:05Z</time>
      </trkpt>
      <trkpt lat="47.57876" lon="-3.05207">
        <ele>5.2</ele>
        <time>2024-05-07T13:18:06Z</time>
      </trkpt>
      <trkpt lat="47.57876" lon="-3.05207">
        <ele>5.2</ele>
        <time>2024-05-07T13:18:07Z</time>
      </trkpt>
      <trkpt lat="47.57876" lon="-3.05207">
        <ele>5.2</ele>
        <time>2024-05-07T13:18:08Z</time>
      </trkpt>
      <trkpt lat="47.57876" lon="-3.05207">
        <ele>5.2</ele>
        <time>2024-05-07T13:18:09Z</time>
      </trkpt>
      <trkpt lat="47.57876" lon="-3.05207">
        <ele>5.2</ele>
        <time>2024-05-07T13:18:10Z</time>
      </trkpt>
      <trkpt lat="47.57876" lon="-3.05207">
        <ele>5.2</ele>
        <time>2024-05-07T13:18:11Z</time>
      </trkpt>
      <trkpt lat="47.57876" lon="-3.05207">
        <ele>5.2</ele>
        <time>2024-05-07T13:18:12Z</time>
      </trkpt>
      <trkpt lat="47.57876" lon="-3.05207">
        <ele>5.2</ele>
        <time>2024-05-07T13:18:13Z</time>
      </trkpt>
      <trkpt lat="47.57876" lon="-3.05207">
        <ele>5.2</ele>
        <time>2024-05-07T13:18:14Z</time>
      </trkpt>
      <trkpt lat="47.57876" lon="-3.05207">
        <ele>5.2</ele>
        <time>2024-05-07T13:18:15Z</time>
      </trkpt>
      <trkpt lat="47.57876" lon="-3.05207">
        <ele>5.2</ele>
        <time>2024-05-07T13:18:16Z</time>
      </trkpt>
      <trkpt lat="47.57876" lon="-3.05207">
        <ele>5.2</ele>
        <time>2024-05-07T13:18:17Z</time>
      </trkpt>
      <trkpt lat="47.57876" lon="-3.05207">
        <ele>5.2</ele>
        <time>2024-05-07T13:18:18Z</time>
      </trkpt>
      <trkpt lat="47.57876" lon="-3.05207">
        <ele>5.2</ele>
        <time>2024-05-07T13:18:19Z</time>
      </trkpt>
      <trkpt lat="47.57876" lon="-3.05207">
        <ele>5.2</ele>
        <time>2024-05-07T13:18:20Z</time>
      </trkpt>
      <trkpt lat="47.57876" lon="-3.05207">
        <ele>5.2</ele>
        <time>2024-05-07T13:18:21Z</time>
      </trkpt>
      <trkpt lat="47.57876" lon="-3.05207">
        <ele>5.2</ele>
        <time>2024-05-07T13:18:22Z</time>
      </trkpt>
      <trkpt lat="47.57876" lon="-3.05207">
        <ele>5.2</ele>
        <time>2024-05-07T13:18:23Z</time>
      </trkpt>
      <trkpt lat="47.57876" lon="-3.05207">
        <ele>5.2</ele>
        <time>2024-05-07T13:18:24Z</time>
      </trkpt>
      <trkpt lat="47.57876" lon="-3.05207">
        <ele>5.2</ele>
        <time>2024-05-07T13:18:25Z</time>
      </trkpt>
      <trkpt lat="47.57876" lon="-3.05207">
        <ele>5.2</ele>
        <time>2024-05-07T13:18:26Z</time>
      </trkpt>
      <trkpt lat="47.57876" lon="-3.05207">
        <ele>5.2</ele>
        <time>2024-05-07T13:18:27Z</time>
      </trkpt>
      <trkpt lat="47.57876" lon="-3.05207">
        <ele>5.2</ele>
        <time>2024-05-07T13:18:28Z</time>
      </trkpt>
      <trkpt lat="47.57876" lon="-3.05207">
        <ele>5.4</ele>
        <time>2024-05-07T13:18:29Z</time>
      </trkpt>
      <trkpt lat="47.57876" lon="-3.05207">
        <ele>5.4</ele>
        <time>2024-05-07T13:18:30Z</time>
      </trkpt>
      <trkpt lat="47.57876" lon="-3.05207">
        <ele>5.4</ele>
        <time>2024-05-07T13:18:31Z</time>
      </trkpt>
      <trkpt lat="47.57876" lon="-3.05207">
        <ele>5.4</ele>
        <time>2024-05-07T13:18:32Z</time>
      </trkpt>
      <trkpt lat="47.57876" lon="-3.05207">
        <ele>5.4</ele>
        <time>2024-05-07T13:18:33Z</time>
      </trkpt>
      <trkpt lat="47.57876" lon="-3.05207">
        <ele>5.4</ele>
        <time>2024-05-07T13:18:34Z</time>
      </trkpt>
      <trkpt lat="47.57876" lon="-3.05207">
        <ele>5.4</ele>
        <time>2024-05-07T13:18:35Z</time>
      </trkpt>
      <trkpt lat="47.57876" lon="-3.05207">
        <ele>5.4</ele>
        <time>2024-05-07T13:18:36Z</time>
      </trkpt>
      <trkpt lat="47.57876" lon="-3.05207">
        <ele>5.4</ele>
        <time>2024-05-07T13:18:37Z</time>
      </trkpt>
      <trkpt lat="47.57876" lon="-3.05207">
        <ele>5.4</ele>
        <time>2024-05-07T13:18:38Z</time>
      </trkpt>
      <trkpt lat="47.57876" lon="-3.05207">
        <ele>5.4</ele>
        <time>2024-05-07T13:18:39Z</time>
      </trkpt>
      <trkpt lat="47.57876" lon="-3.05207">
        <ele>5.4</ele>
        <time>2024-05-07T13:18:40Z</time>
      </trkpt>
      <trkpt lat="47.57876" lon="-3.05207">
        <ele>5.4</ele>
        <time>2024-05-07T13:18:41Z</time>
      </trkpt>
      <trkpt lat="47.57876" lon="-3.05207">
        <ele>5.4</ele>
        <time>2024-05-07T13:18:42Z</time>
      </trkpt>
      <trkpt lat="47.57876" lon="-3.05207">
        <ele>5.4</ele>
        <time>2024-05-07T13:18:43Z</time>
      </trkpt>
      <trkpt lat="47.57876" lon="-3.05207">
        <ele>5.4</ele>
        <time>2024-05-07T13:18:44Z</time>
      </trkpt>
      <trkpt lat="47.57876" lon="-3.05207">
        <ele>5.4</ele>
        <time>2024-05-07T13:18:45Z</time>
      </trkpt>
      <trkpt lat="47.57876" lon="-3.05207">
        <ele>5.4</ele>
        <time>2024-05-07T13:18:46Z</time>
      </trkpt>
      <trkpt lat="47.57876" lon="-3.05207">
        <ele>5.4</ele>
        <time>2024-05-07T13:18:47Z</time>
      </trkpt>
      <trkpt lat="47.57876" lon="-3.05207">
        <ele>5.4</ele>
        <time>2024-05-07T13:18:48Z</time>
      </trkpt>
      <trkpt lat="47.57876" lon="-3.05207">
        <ele>5.2</ele>
        <time>2024-05-07T13:18:49Z</time>
      </trkpt>
      <trkpt lat="47.57876" lon="-3.05207">
        <ele>5.2</ele>
        <time>2024-05-07T13:18:50Z</time>
      </trkpt>
      <trkpt lat="47.57876" lon="-3.05207">
        <ele>5.2</ele>
        <time>2024-05-07T13:18:51Z</time>
      </trkpt>
      <trkpt lat="47.57876" lon="-3.05207">
        <ele>5.2</ele>
        <time>2024-05-07T13:18:52Z</time>
      </trkpt>
      <trkpt lat="47.57876" lon="-3.05207">
        <ele>5.2</ele>
        <time>2024-05-07T13:18:53Z</time>
      </trkpt>
      <trkpt lat="47.57876" lon="-3.05207">
        <ele>5.2</ele>
        <time>2024-05-07T13:18:54Z</time>
      </trkpt>
      <trkpt lat="47.57876" lon="-3.05207">
        <ele>5.2</ele>
        <time>2024-05-07T13:18:55Z</time>
      </trkpt>
      <trkpt lat="47.57876" lon="-3.05207">
        <ele>5.2</ele>
        <time>2024-05-07T13:18:56Z</time>
      </trkpt>
      <trkpt lat="47.57876" lon="-3.05207">
        <ele>5.2</ele>
        <time>2024-05-07T13:18:57Z</time>
      </trkpt>
      <trkpt lat="47.57876" lon="-3.05207">
        <ele>5.2</ele>
        <time>2024-05-07T13:18:58Z</time>
      </trkpt>
      <trkpt lat="47.57876" lon="-3.05207">
        <ele>5.4</ele>
        <time>2024-05-07T13:18:59Z</time>
      </trkpt>
      <trkpt lat="47.57876" lon="-3.05207">
        <ele>5.4</ele>
        <time>2024-05-07T13:19:00Z</time>
      </trkpt>
      <trkpt lat="47.57876" lon="-3.05207">
        <ele>5.4</ele>
        <time>2024-05-07T13:19:01Z</time>
      </trkpt>
      <trkpt lat="47.57876" lon="-3.05207">
        <ele>5.4</ele>
        <time>2024-05-07T13:19:02Z</time>
      </trkpt>
      <trkpt lat="47.57876" lon="-3.05207">
        <ele>5.4</ele>
        <time>2024-05-07T13:19:03Z</time>
      </trkpt>
      <trkpt lat="47.57876" lon="-3.05207">
        <ele>5.4</ele>
        <time>2024-05-07T13:19:04Z</time>
      </trkpt>
      <trkpt lat="47.57876" lon="-3.05207">
        <ele>5.4</ele>
        <time>2024-05-07T13:19:05Z</time>
      </trkpt>
      <trkpt lat="47.57876" lon="-3.05207">
        <ele>5.4</ele>
        <time>2024-05-07T13:19:06Z</time>
      </trkpt>
      <trkpt lat="47.57876" lon="-3.05207">
        <ele>5.4</ele>
        <time>2024-05-07T13:19:07Z</time>
      </trkpt>
      <trkpt lat="47.57876" lon="-3.05207">
        <ele>5.4</ele>
        <time>2024-05-07T13:19:08Z</time>
      </trkpt>
      <trkpt lat="47.57876" lon="-3.05207">
        <ele>5.4</ele>
        <time>2024-05-07T13:19:09Z</time>
      </trkpt>
      <trkpt lat="47.57876" lon="-3.05207">
        <ele>5.4</ele>
        <time>2024-05-07T13:19:10Z</time>
      </trkpt>
      <trkpt lat="47.57876" lon="-3.05207">
        <ele>5.4</ele>
        <time>2024-05-07T13:19:11Z</time>
      </trkpt>
      <trkpt lat="47.57876" lon="-3.05207">
        <ele>5.2</ele>
        <time>2024-05-07T13:19:12Z</time>
      </trkpt>
      <trkpt lat="47.57876" lon="-3.05207">
        <ele>5.2</ele>
        <time>2024-05-07T13:19:13Z</time>
      </trkpt>
      <trkpt lat="47.57876" lon="-3.05207">
        <ele>5.4</ele>
        <time>2024-05-07T13:19:14Z</time>
      </trkpt>
      <trkpt lat="47.57876" lon="-3.05207">
        <ele>5.4</ele>
        <time>2024-05-07T13:19:15Z</time>
      </trkpt>
      <trkpt lat="47.57876" lon="-3.05207">
        <ele>5.4</ele>
        <time>2024-05-07T13:19:16Z</time>
      </trkpt>
      <trkpt lat="47.57876" lon="-3.05207">
        <ele>5.4</ele>
        <time>2024-05-07T13:19:17Z</time>
      </trkpt>
      <trkpt lat="47.57876" lon="-3.05207">
        <ele>5.4</ele>
        <time>2024-05-07T13:19:18Z</time>
      </trkpt>
      <trkpt lat="47.57876" lon="-3.05207">
        <ele>5.4</ele>
        <time>2024-05-07T13:19:19Z</time>
      </trkpt>
      <trkpt lat="47.57876" lon="-3.05207">
        <ele>5.4</ele>
        <time>2024-05-07T13:19:20Z</time>
      </trkpt>
      <trkpt lat="47.57876" lon="-3.05207">
        <ele>5.4</ele>
        <time>2024-05-07T13:19:21Z</time>
      </trkpt>
      <trkpt lat="47.57876" lon="-3.05207">
        <ele>5.4</ele>
        <time>2024-05-07T13:19:22Z</time>
      </trkpt>
      <trkpt lat="47.57876" lon="-3.05207">
        <ele>5.4</ele>
        <time>2024-05-07T13:19:23Z</time>
      </trkpt>
      <trkpt lat="47.57876" lon="-3.05207">
        <ele>5.6</ele>
        <time>2024-05-07T13:19:24Z</time>
      </trkpt>
      <trkpt lat="47.57876" lon="-3.05207">
        <ele>5.6</ele>
        <time>2024-05-07T13:19:25Z</time>
      </trkpt>
      <trkpt lat="47.57876" lon="-3.05207">
        <ele>5.6</ele>
        <time>2024-05-07T13:19:26Z</time>
      </trkpt>
      <trkpt lat="47.57876" lon="-3.05207">
        <ele>5.6</ele>
        <time>2024-05-07T13:19:27Z</time>
      </trkpt>
      <trkpt lat="47.57876" lon="-3.05207">
        <ele>5.6</ele>
        <time>2024-05-07T13:19:28Z</time>
      </trkpt>
      <trkpt lat="47.57876" lon="-3.05207">
        <ele>5.6</ele>
        <time>2024-05-07T13:19:29Z</time>
      </trkpt>
      <trkpt lat="47.57876" lon="-3.05207">
        <ele>5.6</ele>
        <time>2024-05-07T13:19:30Z</time>
      </trkpt>
      <trkpt lat="47.57876" lon="-3.05207">
        <ele>5.4</ele>
        <time>2024-05-07T13:19:31Z</time>
      </trkpt>
      <trkpt lat="47.57876" lon="-3.05207">
        <ele>5.4</ele>
        <time>2024-05-07T13:19:32Z</time>
      </trkpt>
      <trkpt lat="47.57876" lon="-3.05207">
        <ele>5.4</ele>
        <time>2024-05-07T13:19:33Z</time>
      </trkpt>
      <trkpt lat="47.57876" lon="-3.05207">
        <ele>5.4</ele>
        <time>2024-05-07T13:19:34Z</time>
      </trkpt>
      <trkpt lat="47.57876" lon="-3.05207">
        <ele>5.2</ele>
        <time>2024-05-07T13:19:35Z</time>
      </trkpt>
      <trkpt lat="47.57876" lon="-3.05207">
        <ele>5.2</ele>
        <time>2024-05-07T13:19:36Z</time>
      </trkpt>
      <trkpt lat="47.57876" lon="-3.05207">
        <ele>5.2</ele>
        <time>2024-05-07T13:19:37Z</time>
      </trkpt>
      <trkpt lat="47.57876" lon="-3.05207">
        <ele>5.2</ele>
        <time>2024-05-07T13:19:38Z</time>
      </trkpt>
      <trkpt lat="47.57876" lon="-3.05207">
        <ele>5.2</ele>
        <time>2024-05-07T13:19:39Z</time>
      </trkpt>
      <trkpt lat="47.57876" lon="-3.05207">
        <ele>5.2</ele>
        <time>2024-05-07T13:19:40Z</time>
      </trkpt>
      <trkpt lat="47.57876" lon="-3.05207">
        <ele>5.2</ele>
        <time>2024-05-07T13:19:41Z</time>
      </trkpt>
      <trkpt lat="47.57876" lon="-3.05207">
        <ele>5.2</ele>
        <time>2024-05-07T13:19:42Z</time>
      </trkpt>
      <trkpt lat="47.57876" lon="-3.05207">
        <ele>5.2</ele>
        <time>2024-05-07T13:19:43Z</time>
      </trkpt>
      <trkpt lat="47.57876" lon="-3.05207">
        <ele>5.2</ele>
        <time>2024-05-07T13:19:44Z</time>
      </trkpt>
      <trkpt lat="47.57876" lon="-3.05207">
        <ele>5.2</ele>
        <time>2024-05-07T13:19:45Z</time>
      </trkpt>
      <trkpt lat="47.57876" lon="-3.05207">
        <ele>5.2</ele>
        <time>2024-05-07T13:19:46Z</time>
      </trkpt>
      <trkpt lat="47.57876" lon="-3.05207">
        <ele>5.2</ele>
        <time>2024-05-07T13:19:47Z</time>
      </trkpt>
      <trkpt lat="47.57876" lon="-3.05207">
        <ele>5.2</ele>
        <time>2024-05-07T13:19:48Z</time>
      </trkpt>
      <trkpt lat="47.57876" lon="-3.05207">
        <ele>5.2</ele>
        <time>2024-05-07T13:19:49Z</time>
      </trkpt>
      <trkpt lat="47.57876" lon="-3.05207">
        <ele>5.2</ele>
        <time>2024-05-07T13:19:50Z</time>
      </trkpt>
      <trkpt lat="47.57876" lon="-3.05207">
        <ele>5.2</ele>
        <time>2024-05-07T13:19:51Z</time>
      </trkpt>
      <trkpt lat="47.57876" lon="-3.05207">
        <ele>5.2</ele>
        <time>2024-05-07T13:19:52Z</time>
      </trkpt>
      <trkpt lat="47.57876" lon="-3.05207">
        <ele>5.2</ele>
        <time>2024-05-07T13:19:53Z</time>
      </trkpt>
      <trkpt lat="47.57876" lon="-3.05207">
        <ele>5.2</ele>
        <time>2024-05-07T13:19:54Z</time>
      </trkpt>
      <trkpt lat="47.57876" lon="-3.05207">
        <ele>5.2</ele>
        <time>2024-05-07T13:19:55Z</time>
      </trkpt>
      <trkpt lat="47.57876" lon="-3.05207">
        <ele>5.2</ele>
        <time>2024-05-07T13:19:56Z</time>
      </trkpt>
      <trkpt lat="47.57876" lon="-3.05207">
        <ele>5.2</ele>
        <time>2024-05-07T13:19:57Z</time>
      </trkpt>
      <trkpt lat="47.57876" lon="-3.05207">
        <ele>5.4</ele>
        <time>2024-05-07T13:19:58Z</time>
      </trkpt>
      <trkpt lat="47.57876" lon="-3.05207">
        <ele>5.4</ele>
        <time>2024-05-07T13:19:59Z</time>
      </trkpt>
      <trkpt lat="47.57876" lon="-3.05207">
        <ele>5.4</ele>
        <time>2024-05-07T13:20:00Z</time>
      </trkpt>
      <trkpt lat="47.57876" lon="-3.05207">
        <ele>5.4</ele>
        <time>2024-05-07T13:20:01Z</time>
      </trkpt>
      <trkpt lat="47.57876" lon="-3.05207">
        <ele>5.4</ele>
        <time>2024-05-07T13:20:02Z</time>
      </trkpt>
      <trkpt lat="47.57876" lon="-3.05207">
        <ele>5.4</ele>
        <time>2024-05-07T13:20:03Z</time>
      </trkpt>
      <trkpt lat="47.57876" lon="-3.05207">
        <ele>5.4</ele>
        <time>2024-05-07T13:20:04Z</time>
      </trkpt>
      <trkpt lat="47.57876" lon="-3.05207">
        <ele>5.4</ele>
        <time>2024-05-07T13:20:05Z</time>
      </trkpt>
      <trkpt lat="47.57876" lon="-3.05207">
        <ele>5.4</ele>
        <time>2024-05-07T13:20:06Z</time>
      </trkpt>
      <trkpt lat="47.57876" lon="-3.05207">
        <ele>5.4</ele>
        <time>2024-05-07T13:20:07Z</time>
      </trkpt>
      <trkpt lat="47.57876" lon="-3.05207">
        <ele>5.4</ele>
        <time>2024-05-07T13:20:08Z</time>
      </trkpt>
      <trkpt lat="47.57876" lon="-3.05207">
        <ele>5.4</ele>
        <time>2024-05-07T13:20:09Z</time>
      </trkpt>
      <trkpt lat="47.57876" lon="-3.05207">
        <ele>5.4</ele>
        <time>2024-05-07T13:20:10Z</time>
      </trkpt>
      <trkpt lat="47.57876" lon="-3.05207">
        <ele>5.4</ele>
        <time>2024-05-07T13:20:11Z</time>
      </trkpt>
      <trkpt lat="47.57876" lon="-3.05207">
        <ele>5.6</ele>
        <time>2024-05-07T13:20:12Z</time>
      </trkpt>
      <trkpt lat="47.57876" lon="-3.05207">
        <ele>5.6</ele>
        <time>2024-05-07T13:20:13Z</time>
      </trkpt>
      <trkpt lat="47.57876" lon="-3.05207">
        <ele>5.6</ele>
        <time>2024-05-07T13:20:14Z</time>
      </trkpt>
      <trkpt lat="47.57876" lon="-3.05207">
        <ele>5.6</ele>
        <time>2024-05-07T13:20:15Z</time>
      </trkpt>
      <trkpt lat="47.57876" lon="-3.05207">
        <ele>5.6</ele>
        <time>2024-05-07T13:20:16Z</time>
      </trkpt>
      <trkpt lat="47.57876" lon="-3.05207">
        <ele>5.6</ele>
        <time>2024-05-07T13:20:17Z</time>
      </trkpt>
      <trkpt lat="47.57876" lon="-3.05207">
        <ele>5.6</ele>
        <time>2024-05-07T13:20:18Z</time>
      </trkpt>
      <trkpt lat="47.57876" lon="-3.05207">
        <ele>5.6</ele>
        <time>2024-05-07T13:20:19Z</time>
      </trkpt>
      <trkpt lat="47.57876" lon="-3.05207">
        <ele>5.6</ele>
        <time>2024-05-07T13:20:20Z</time>
      </trkpt>
      <trkpt lat="47.57876" lon="-3.05207">
        <ele>5.6</ele>
        <time>2024-05-07T13:20:21Z</time>
      </trkpt>
      <trkpt lat="47.57876" lon="-3.05207">
        <ele>5.6</ele>
        <time>2024-05-07T13:20:22Z</time>
      </trkpt>
      <trkpt lat="47.57876" lon="-3.05207">
        <ele>5.6</ele>
        <time>2024-05-07T13:20:23Z</time>
      </trkpt>
      <trkpt lat="47.57876" lon="-3.05207">
        <ele>5.6</ele>
        <time>2024-05-07T13:20:24Z</time>
      </trkpt>
      <trkpt lat="47.57876" lon="-3.05207">
        <ele>5.6</ele>
        <time>2024-05-07T13:20:25Z</time>
      </trkpt>
      <trkpt lat="47.57876" lon="-3.05207">
        <ele>5.6</ele>
        <time>2024-05-07T13:20:26Z</time>
      </trkpt>
      <trkpt lat="47.57876" lon="-3.05207">
        <ele>5.6</ele>
        <time>2024-05-07T13:20:27Z</time>
      </trkpt>
      <trkpt lat="47.57876" lon="-3.05207">
        <ele>5.6</ele>
        <time>2024-05-07T13:20:28Z</time>
      </trkpt>
      <trkpt lat="47.57876" lon="-3.05207">
        <ele>5.6</ele>
        <time>2024-05-07T13:20:29Z</time>
      </trkpt>
      <trkpt lat="47.57876" lon="-3.05207">
        <ele>5.6</ele>
        <time>2024-05-07T13:20:30Z</time>
      </trkpt>
      <trkpt lat="47.57876" lon="-3.05207">
        <ele>5.6</ele>
        <time>2024-05-07T13:20:31Z</time>
      </trkpt>
      <trkpt lat="47.57876" lon="-3.05207">
        <ele>5.6</ele>
        <time>2024-05-07T13:20:32Z</time>
      </trkpt>
      <trkpt lat="47.57876" lon="-3.05207">
        <ele>5.6</ele>
        <time>2024-05-07T13:20:33Z</time>
      </trkpt>
      <trkpt lat="47.57876" lon="-3.05207">
        <ele>5.6</ele>
        <time>2024-05-07T13:20:34Z</time>
      </trkpt>
      <trkpt lat="47.57876" lon="-3.05207">
        <ele>5.6</ele>
        <time>2024-05-07T13:20:35Z</time>
      </trkpt>
      <trkpt lat="47.57876" lon="-3.05207">
        <ele>5.6</ele>
        <time>2024-05-07T13:20:36Z</time>
      </trkpt>
      <trkpt lat="47.57876" lon="-3.05207">
        <ele>5.6</ele>
        <time>2024-05-07T13:20:37Z</time>
      </trkpt>
      <trkpt lat="47.57876" lon="-3.05207">
        <ele>5.6</ele>
        <time>2024-05-07T13:20:38Z</time>
      </trkpt>
      <trkpt lat="47.57876" lon="-3.05207">
        <ele>5.6</ele>
        <time>2024-05-07T13:20:39Z</time>
      </trkpt>
      <trkpt lat="47.57876" lon="-3.05207">
        <ele>5.6</ele>
        <time>2024-05-07T13:20:40Z</time>
      </trkpt>
      <trkpt lat="47.57876" lon="-3.05207">
        <ele>5.6</ele>
        <time>2024-05-07T13:20:41Z</time>
      </trkpt>
      <trkpt lat="47.57876" lon="-3.05207">
        <ele>5.6</ele>
        <time>2024-05-07T13:20:42Z</time>
      </trkpt>
      <trkpt lat="47.57876" lon="-3.05207">
        <ele>5.6</ele>
        <time>2024-05-07T13:20:43Z</time>
      </trkpt>
      <trkpt lat="47.57876" lon="-3.05207">
        <ele>5.4</ele>
        <time>2024-05-07T13:20:44Z</time>
      </trkpt>
      <trkpt lat="47.57876" lon="-3.05207">
        <ele>5.4</ele>
        <time>2024-05-07T13:20:45Z</time>
      </trkpt>
      <trkpt lat="47.57876" lon="-3.05207">
        <ele>5.4</ele>
        <time>2024-05-07T13:20:46Z</time>
      </trkpt>
      <trkpt lat="47.57876" lon="-3.05207">
        <ele>5.4</ele>
        <time>2024-05-07T13:20:47Z</time>
      </trkpt>
      <trkpt lat="47.57876" lon="-3.05207">
        <ele>5.4</ele>
        <time>2024-05-07T13:20:48Z</time>
      </trkpt>
      <trkpt lat="47.57876" lon="-3.05207">
        <ele>5.4</ele>
        <time>2024-05-07T13:20:49Z</time>
      </trkpt>
      <trkpt lat="47.57876" lon="-3.05207">
        <ele>5.4</ele>
        <time>2024-05-07T13:20:50Z</time>
      </trkpt>
      <trkpt lat="47.57876" lon="-3.05208">
        <ele>5.4</ele>
        <time>2024-05-07T13:20:51Z</time>
      </trkpt>
      <trkpt lat="47.57876" lon="-3.05208">
        <ele>5.4</ele>
        <time>2024-05-07T13:20:52Z</time>
      </trkpt>
      <trkpt lat="47.57876" lon="-3.05208">
        <ele>5.4</ele>
        <time>2024-05-07T13:20:53Z</time>
      </trkpt>
      <trkpt lat="47.57876" lon="-3.05208">
        <ele>5.2</ele>
        <time>2024-05-07T13:20:54Z</time>
      </trkpt>
      <trkpt lat="47.57876" lon="-3.05208">
        <ele>5.2</ele>
        <time>2024-05-07T13:20:55Z</time>
      </trkpt>
      <trkpt lat="47.57876" lon="-3.05208">
        <ele>5.2</ele>
        <time>2024-05-07T13:20:56Z</time>
      </trkpt>
      <trkpt lat="47.57876" lon="-3.05208">
        <ele>5.2</ele>
        <time>2024-05-07T13:20:57Z</time>
      </trkpt>
      <trkpt lat="47.57876" lon="-3.05208">
        <ele>5.2</ele>
        <time>2024-05-07T13:20:58Z</time>
      </trkpt>
      <trkpt lat="47.57876" lon="-3.05208">
        <ele>5.2</ele>
        <time>2024-05-07T13:20:59Z</time>
      </trkpt>
      <trkpt lat="47.57876" lon="-3.05208">
        <ele>5.2</ele>
        <time>2024-05-07T13:21:00Z</time>
      </trkpt>
      <trkpt lat="47.57876" lon="-3.05208">
        <ele>5.2</ele>
        <time>2024-05-07T13:21:01Z</time>
      </trkpt>
      <trkpt lat="47.57876" lon="-3.05208">
        <ele>5.2</ele>
        <time>2024-05-07T13:21:02Z</time>
      </trkpt>
      <trkpt lat="47.57876" lon="-3.05208">
        <ele>5.2</ele>
        <time>2024-05-07T13:21:03Z</time>
      </trkpt>
      <trkpt lat="47.57876" lon="-3.05208">
        <ele>5.2</ele>
        <time>2024-05-07T13:21:04Z</time>
      </trkpt>
      <trkpt lat="47.57876" lon="-3.05208">
        <ele>5.2</ele>
        <time>2024-05-07T13:21:05Z</time>
      </trkpt>
      <trkpt lat="47.57876" lon="-3.05208">
        <ele>5.2</ele>
        <time>2024-05-07T13:21:06Z</time>
      </trkpt>
      <trkpt lat="47.57876" lon="-3.05208">
        <ele>5.2</ele>
        <time>2024-05-07T13:21:07Z</time>
      </trkpt>
      <trkpt lat="47.57876" lon="-3.05208">
        <ele>5.2</ele>
        <time>2024-05-07T13:21:08Z</time>
      </trkpt>
      <trkpt lat="47.57876" lon="-3.05208">
        <ele>5.2</ele>
        <time>2024-05-07T13:21:09Z</time>
      </trkpt>
      <trkpt lat="47.57876" lon="-3.05208">
        <ele>5.2</ele>
        <time>2024-05-07T13:21:10Z</time>
      </trkpt>
      <trkpt lat="47.57876" lon="-3.05208">
        <ele>5.2</ele>
        <time>2024-05-07T13:21:11Z</time>
      </trkpt>
      <trkpt lat="47.57876" lon="-3.05208">
        <ele>5.2</ele>
        <time>2024-05-07T13:21:12Z</time>
      </trkpt>
      <trkpt lat="47.57876" lon="-3.05208">
        <ele>5.2</ele>
        <time>2024-05-07T13:21:13Z</time>
      </trkpt>
      <trkpt lat="47.57877" lon="-3.05208">
        <ele>5.2</ele>
        <time>2024-05-07T13:21:14Z</time>
      </trkpt>
      <trkpt lat="47.57877" lon="-3.05208">
        <ele>5.2</ele>
        <time>2024-05-07T13:21:15Z</time>
      </trkpt>
      <trkpt lat="47.57877" lon="-3.05208">
        <ele>5.2</ele>
        <time>2024-05-07T13:21:16Z</time>
      </trkpt>
      <trkpt lat="47.57877" lon="-3.05208">
        <ele>5.2</ele>
        <time>2024-05-07T13:21:17Z</time>
      </trkpt>
      <trkpt lat="47.57877" lon="-3.05208">
        <ele>5.2</ele>
        <time>2024-05-07T13:21:18Z</time>
      </trkpt>
      <trkpt lat="47.57877" lon="-3.05208">
        <ele>5.2</ele>
        <time>2024-05-07T13:21:19Z</time>
      </trkpt>
      <trkpt lat="47.57877" lon="-3.05208">
        <ele>5.2</ele>
        <time>2024-05-07T13:21:20Z</time>
      </trkpt>
      <trkpt lat="47.57877" lon="-3.05208">
        <ele>5.2</ele>
        <time>2024-05-07T13:21:21Z</time>
      </trkpt>
      <trkpt lat="47.57877" lon="-3.05208">
        <ele>5.2</ele>
        <time>2024-05-07T13:21:22Z</time>
      </trkpt>
      <trkpt lat="47.57877" lon="-3.05208">
        <ele>5.2</ele>
        <time>2024-05-07T13:21:23Z</time>
      </trkpt>
      <trkpt lat="47.57877" lon="-3.05208">
        <ele>5.4</ele>
        <time>2024-05-07T13:21:24Z</time>
      </trkpt>
      <trkpt lat="47.57877" lon="-3.05208">
        <ele>5.4</ele>
        <time>2024-05-07T13:21:25Z</time>
      </trkpt>
      <trkpt lat="47.57877" lon="-3.05208">
        <ele>5.4</ele>
        <time>2024-05-07T13:21:26Z</time>
      </trkpt>
      <trkpt lat="47.57877" lon="-3.05208">
        <ele>5.4</ele>
        <time>2024-05-07T13:21:27Z</time>
      </trkpt>
      <trkpt lat="47.57877" lon="-3.05208">
        <ele>5.4</ele>
        <time>2024-05-07T13:21:28Z</time>
      </trkpt>
      <trkpt lat="47.57877" lon="-3.05208">
        <ele>5.4</ele>
        <time>2024-05-07T13:21:29Z</time>
      </trkpt>
      <trkpt lat="47.57877" lon="-3.05208">
        <ele>5.4</ele>
        <time>2024-05-07T13:21:30Z</time>
      </trkpt>
      <trkpt lat="47.57877" lon="-3.05208">
        <ele>5.4</ele>
        <time>2024-05-07T13:21:31Z</time>
      </trkpt>
      <trkpt lat="47.57877" lon="-3.05208">
        <ele>5.4</ele>
        <time>2024-05-07T13:21:32Z</time>
      </trkpt>
      <trkpt lat="47.57877" lon="-3.05208">
        <ele>5.4</ele>
        <time>2024-05-07T13:21:33Z</time>
      </trkpt>
      <trkpt lat="47.57877" lon="-3.05208">
        <ele>5.4</ele>
        <time>2024-05-07T13:21:34Z</time>
      </trkpt>
      <trkpt lat="47.57877" lon="-3.05208">
        <ele>5.4</ele>
        <time>2024-05-07T13:21:35Z</time>
      </trkpt>
      <trkpt lat="47.57877" lon="-3.05208">
        <ele>5.4</ele>
        <time>2024-05-07T13:21:36Z</time>
      </trkpt>
      <trkpt lat="47.57877" lon="-3.05208">
        <ele>5.4</ele>
        <time>2024-05-07T13:21:37Z</time>
      </trkpt>
      <trkpt lat="47.57877" lon="-3.05208">
        <ele>5.4</ele>
        <time>2024-05-07T13:21:38Z</time>
      </trkpt>
      <trkpt lat="47.57877" lon="-3.05208">
        <ele>5.4</ele>
        <time>2024-05-07T13:21:39Z</time>
      </trkpt>
      <trkpt lat="47.57877" lon="-3.05208">
        <ele>5.4</ele>
        <time>2024-05-07T13:21:40Z</time>
      </trkpt>
      <trkpt lat="47.57877" lon="-3.05208">
        <ele>5.4</ele>
        <time>2024-05-07T13:21:41Z</time>
      </trkpt>
      <trkpt lat="47.57877" lon="-3.05208">
        <ele>5.4</ele>
        <time>2024-05-07T13:21:42Z</time>
      </trkpt>
      <trkpt lat="47.57877" lon="-3.05208">
        <ele>5.4</ele>
        <time>2024-05-07T13:21:43Z</time>
      </trkpt>
      <trkpt lat="47.57877" lon="-3.05208">
        <ele>5.4</ele>
        <time>2024-05-07T13:21:44Z</time>
      </trkpt>
      <trkpt lat="47.57877" lon="-3.05208">
        <ele>5.4</ele>
        <time>2024-05-07T13:21:45Z</time>
      </trkpt>
      <trkpt lat="47.57877" lon="-3.05208">
        <ele>5.4</ele>
        <time>2024-05-07T13:21:46Z</time>
      </trkpt>
      <trkpt lat="47.57877" lon="-3.05208">
        <ele>5.4</ele>
        <time>2024-05-07T13:21:47Z</time>
      </trkpt>
      <trkpt lat="47.57877" lon="-3.05208">
        <ele>5.4</ele>
        <time>2024-05-07T13:21:48Z</time>
      </trkpt>
      <trkpt lat="47.57877" lon="-3.05208">
        <ele>5.4</ele>
        <time>2024-05-07T13:21:49Z</time>
      </trkpt>
      <trkpt lat="47.57877" lon="-3.05208">
        <ele>5.4</ele>
        <time>2024-05-07T13:21:50Z</time>
      </trkpt>
      <trkpt lat="47.57877" lon="-3.05208">
        <ele>5.4</ele>
        <time>2024-05-07T13:21:51Z</time>
      </trkpt>
      <trkpt lat="47.57877" lon="-3.05208">
        <ele>5.4</ele>
        <time>2024-05-07T13:21:52Z</time>
      </trkpt>
      <trkpt lat="47.57877" lon="-3.05208">
        <ele>5.2</ele>
        <time>2024-05-07T13:21:53Z</time>
      </trkpt>
      <trkpt lat="47.57877" lon="-3.05208">
        <ele>5.2</ele>
        <time>2024-05-07T13:21:54Z</time>
      </trkpt>
      <trkpt lat="47.57877" lon="-3.05208">
        <ele>5.2</ele>
        <time>2024-05-07T13:21:55Z</time>
      </trkpt>
      <trkpt lat="47.57877" lon="-3.05208">
        <ele>5.2</ele>
        <time>2024-05-07T13:21:56Z</time>
      </trkpt>
      <trkpt lat="47.57877" lon="-3.05208">
        <ele>5.2</ele>
        <time>2024-05-07T13:21:57Z</time>
      </trkpt>
      <trkpt lat="47.57877" lon="-3.05208">
        <ele>5.2</ele>
        <time>2024-05-07T13:21:58Z</time>
      </trkpt>
      <trkpt lat="47.57877" lon="-3.05208">
        <ele>5.2</ele>
        <time>2024-05-07T13:21:59Z</time>
      </trkpt>
      <trkpt lat="47.57877" lon="-3.05208">
        <ele>5.2</ele>
        <time>2024-05-07T13:22:00Z</time>
      </trkpt>
      <trkpt lat="47.57877" lon="-3.05208">
        <ele>5.2</ele>
        <time>2024-05-07T13:22:01Z</time>
      </trkpt>
      <trkpt lat="47.57877" lon="-3.05208">
        <ele>5.2</ele>
        <time>2024-05-07T13:22:02Z</time>
      </trkpt>
      <trkpt lat="47.57877" lon="-3.05208">
        <ele>5.2</ele>
        <time>2024-05-07T13:22:03Z</time>
      </trkpt>
      <trkpt lat="47.57877" lon="-3.05208">
        <ele>5.2</ele>
        <time>2024-05-07T13:22:04Z</time>
      </trkpt>
      <trkpt lat="47.57877" lon="-3.05208">
        <ele>5.2</ele>
        <time>2024-05-07T13:22:05Z</time>
      </trkpt>
      <trkpt lat="47.57877" lon="-3.05208">
        <ele>5.2</ele>
        <time>2024-05-07T13:22:06Z</time>
      </trkpt>
      <trkpt lat="47.57877" lon="-3.05208">
        <ele>5.2</ele>
        <time>2024-05-07T13:22:07Z</time>
      </trkpt>
      <trkpt lat="47.57877" lon="-3.05208">
        <ele>5.2</ele>
        <time>2024-05-07T13:22:08Z</time>
      </trkpt>
      <trkpt lat="47.57877" lon="-3.05208">
        <ele>5.2</ele>
        <time>2024-05-07T13:22:09Z</time>
      </trkpt>
      <trkpt lat="47.57877" lon="-3.05208">
        <ele>5</ele>
        <time>2024-05-07T13:22:10Z</time>
      </trkpt>
      <trkpt lat="47.57877" lon="-3.05208">
        <ele>5</ele>
        <time>2024-05-07T13:22:11Z</time>
      </trkpt>
      <trkpt lat="47.57877" lon="-3.05208">
        <ele>5</ele>
        <time>2024-05-07T13:22:12Z</time>
      </trkpt>
      <trkpt lat="47.57877" lon="-3.05208">
        <ele>5</ele>
        <time>2024-05-07T13:22:13Z</time>
      </trkpt>
      <trkpt lat="47.57877" lon="-3.05208">
        <ele>5</ele>
        <time>2024-05-07T13:22:14Z</time>
      </trkpt>
      <trkpt lat="47.57877" lon="-3.05208">
        <ele>5</ele>
        <time>2024-05-07T13:22:15Z</time>
      </trkpt>
      <trkpt lat="47.57877" lon="-3.05208">
        <ele>5.2</ele>
        <time>2024-05-07T13:22:16Z</time>
      </trkpt>
      <trkpt lat="47.57877" lon="-3.05208">
        <ele>5.2</ele>
        <time>2024-05-07T13:22:17Z</time>
      </trkpt>
      <trkpt lat="47.57877" lon="-3.05208">
        <ele>5.2</ele>
        <time>2024-05-07T13:22:18Z</time>
      </trkpt>
      <trkpt lat="47.57877" lon="-3.05208">
        <ele>5.2</ele>
        <time>2024-05-07T13:22:19Z</time>
      </trkpt>
      <trkpt lat="47.57877" lon="-3.05208">
        <ele>5.2</ele>
        <time>2024-05-07T13:22:20Z</time>
      </trkpt>
      <trkpt lat="47.57877" lon="-3.05208">
        <ele>5.2</ele>
        <time>2024-05-07T13:22:21Z</time>
      </trkpt>
      <trkpt lat="47.57877" lon="-3.05208">
        <ele>5.2</ele>
        <time>2024-05-07T13:22:22Z</time>
      </trkpt>
      <trkpt lat="47.57877" lon="-3.05208">
        <ele>5.2</ele>
        <time>2024-05-07T13:22:23Z</time>
      </trkpt>
      <trkpt lat="47.57877" lon="-3.05208">
        <ele>5.2</ele>
        <time>2024-05-07T13:22:24Z</time>
      </trkpt>
      <trkpt lat="47.57877" lon="-3.05208">
        <ele>5.2</ele>
        <time>2024-05-07T13:22:25Z</time>
      </trkpt>
      <trkpt lat="47.57877" lon="-3.05208">
        <ele>5.2</ele>
        <time>2024-05-07T13:22:26Z</time>
      </trkpt>
      <trkpt lat="47.57877" lon="-3.05208">
        <ele>5.2</ele>
        <time>2024-05-07T13:22:27Z</time>
      </trkpt>
      <trkpt lat="47.57877" lon="-3.05208">
        <ele>5.2</ele>
        <time>2024-05-07T13:22:28Z</time>
      </trkpt>
      <trkpt lat="47.57877" lon="-3.05208">
        <ele>5.2</ele>
        <time>2024-05-07T13:22:29Z</time>
      </trkpt>
      <trkpt lat="47.57877" lon="-3.05208">
        <ele>5.2</ele>
        <time>2024-05-07T13:22:30Z</time>
      </trkpt>
      <trkpt lat="47.57877" lon="-3.05208">
        <ele>5.2</ele>
        <time>2024-05-07T13:22:31Z</time>
      </trkpt>
      <trkpt lat="47.57877" lon="-3.05208">
        <ele>5.2</ele>
        <time>2024-05-07T13:22:32Z</time>
      </trkpt>
      <trkpt lat="47.57877" lon="-3.05208">
        <ele>5.2</ele>
        <time>2024-05-07T13:22:33Z</time>
      </trkpt>
      <trkpt lat="47.57877" lon="-3.05208">
        <ele>5.2</ele>
        <time>2024-05-07T13:22:34Z</time>
      </trkpt>
      <trkpt lat="47.57877" lon="-3.05208">
        <ele>5.2</ele>
        <time>2024-05-07T13:22:35Z</time>
      </trkpt>
      <trkpt lat="47.57877" lon="-3.05208">
        <ele>5.2</ele>
        <time>2024-05-07T13:22:36Z</time>
      </trkpt>
      <trkpt lat="47.57877" lon="-3.05208">
        <ele>5.2</ele>
        <time>2024-05-07T13:22:37Z</time>
      </trkpt>
      <trkpt lat="47.57877" lon="-3.05208">
        <ele>5.2</ele>
        <time>2024-05-07T13:22:38Z</time>
      </trkpt>
      <trkpt lat="47.57877" lon="-3.05208">
        <ele>5.2</ele>
        <time>2024-05-07T13:22:39Z</time>
      </trkpt>
      <trkpt lat="47.57877" lon="-3.05208">
        <ele>5.2</ele>
        <time>2024-05-07T13:22:40Z</time>
      </trkpt>
      <trkpt lat="47.57877" lon="-3.05208">
        <ele>5.2</ele>
        <time>2024-05-07T13:22:41Z</time>
      </trkpt>
      <trkpt lat="47.57877" lon="-3.05208">
        <ele>5.2</ele>
        <time>2024-05-07T13:22:42Z</time>
      </trkpt>
      <trkpt lat="47.57877" lon="-3.05208">
        <ele>5.2</ele>
        <time>2024-05-07T13:22:43Z</time>
      </trkpt>
      <trkpt lat="47.57877" lon="-3.05208">
        <ele>5.4</ele>
        <time>2024-05-07T13:22:44Z</time>
      </trkpt>
      <trkpt lat="47.57877" lon="-3.05208">
        <ele>5.4</ele>
        <time>2024-05-07T13:22:45Z</time>
      </trkpt>
      <trkpt lat="47.57877" lon="-3.05208">
        <ele>5.4</ele>
        <time>2024-05-07T13:22:46Z</time>
      </trkpt>
      <trkpt lat="47.57877" lon="-3.05208">
        <ele>5.4</ele>
        <time>2024-05-07T13:22:47Z</time>
      </trkpt>
      <trkpt lat="47.57877" lon="-3.05208">
        <ele>5.4</ele>
        <time>2024-05-07T13:22:48Z</time>
      </trkpt>
      <trkpt lat="47.57877" lon="-3.05208">
        <ele>5.4</ele>
        <time>2024-05-07T13:22:49Z</time>
      </trkpt>
      <trkpt lat="47.57877" lon="-3.05208">
        <ele>5.4</ele>
        <time>2024-05-07T13:22:50Z</time>
      </trkpt>
      <trkpt lat="47.57877" lon="-3.05208">
        <ele>5.6</ele>
        <time>2024-05-07T13:22:51Z</time>
      </trkpt>
      <trkpt lat="47.57877" lon="-3.05208">
        <ele>5.6</ele>
        <time>2024-05-07T13:22:52Z</time>
      </trkpt>
      <trkpt lat="47.57877" lon="-3.05208">
        <ele>5.6</ele>
        <time>2024-05-07T13:22:53Z</time>
      </trkpt>
      <trkpt lat="47.57877" lon="-3.05208">
        <ele>5.6</ele>
        <time>2024-05-07T13:22:54Z</time>
      </trkpt>
      <trkpt lat="47.57877" lon="-3.05208">
        <ele>5.6</ele>
        <time>2024-05-07T13:22:55Z</time>
      </trkpt>
      <trkpt lat="47.57877" lon="-3.05208">
        <ele>5.6</ele>
        <time>2024-05-07T13:22:56Z</time>
      </trkpt>
      <trkpt lat="47.57877" lon="-3.05208">
        <ele>5.6</ele>
        <time>2024-05-07T13:22:57Z</time>
      </trkpt>
      <trkpt lat="47.57877" lon="-3.05208">
        <ele>5.6</ele>
        <time>2024-05-07T13:22:58Z</time>
      </trkpt>
      <trkpt lat="47.57877" lon="-3.05208">
        <ele>5.6</ele>
        <time>2024-05-07T13:22:59Z</time>
      </trkpt>
      <trkpt lat="47.57877" lon="-3.05208">
        <ele>5.6</ele>
        <time>2024-05-07T13:23:00Z</time>
      </trkpt>
      <trkpt lat="47.57877" lon="-3.05208">
        <ele>5.6</ele>
        <time>2024-05-07T13:23:01Z</time>
      </trkpt>
      <trkpt lat="47.57877" lon="-3.05208">
        <ele>5.6</ele>
        <time>2024-05-07T13:23:02Z</time>
      </trkpt>
      <trkpt lat="47.57877" lon="-3.05208">
        <ele>5.6</ele>
        <time>2024-05-07T13:23:03Z</time>
      </trkpt>
      <trkpt lat="47.57877" lon="-3.05208">
        <ele>5.6</ele>
        <time>2024-05-07T13:23:04Z</time>
      </trkpt>
      <trkpt lat="47.57877" lon="-3.05208">
        <ele>5.6</ele>
        <time>2024-05-07T13:23:05Z</time>
      </trkpt>
      <trkpt lat="47.57877" lon="-3.05208">
        <ele>5.6</ele>
        <time>2024-05-07T13:23:06Z</time>
      </trkpt>
      <trkpt lat="47.57877" lon="-3.05208">
        <ele>5.6</ele>
        <time>2024-05-07T13:23:07Z</time>
      </trkpt>
      <trkpt lat="47.57877" lon="-3.05208">
        <ele>5.6</ele>
        <time>2024-05-07T13:23:08Z</time>
      </trkpt>
      <trkpt lat="47.57877" lon="-3.05208">
        <ele>5.6</ele>
        <time>2024-05-07T13:23:09Z</time>
      </trkpt>
      <trkpt lat="47.57877" lon="-3.05208">
        <ele>5.6</ele>
        <time>2024-05-07T13:23:10Z</time>
      </trkpt>
      <trkpt lat="47.57877" lon="-3.05208">
        <ele>5.6</ele>
        <time>2024-05-07T13:23:11Z</time>
      </trkpt>
      <trkpt lat="47.57877" lon="-3.05208">
        <ele>5.6</ele>
        <time>2024-05-07T13:23:12Z</time>
      </trkpt>
      <trkpt lat="47.57877" lon="-3.05208">
        <ele>5.6</ele>
        <time>2024-05-07T13:23:13Z</time>
      </trkpt>
      <trkpt lat="47.57877" lon="-3.05208">
        <ele>5.6</ele>
        <time>2024-05-07T13:23:14Z</time>
      </trkpt>
      <trkpt lat="47.57877" lon="-3.05208">
        <ele>5.6</ele>
        <time>2024-05-07T13:23:15Z</time>
      </trkpt>
      <trkpt lat="47.57877" lon="-3.05208">
        <ele>5.6</ele>
        <time>2024-05-07T13:23:16Z</time>
      </trkpt>
      <trkpt lat="47.57877" lon="-3.05208">
        <ele>5.6</ele>
        <time>2024-05-07T13:23:17Z</time>
      </trkpt>
      <trkpt lat="47.57877" lon="-3.05208">
        <ele>5.6</ele>
        <time>2024-05-07T13:23:18Z</time>
      </trkpt>
      <trkpt lat="47.57877" lon="-3.05208">
        <ele>5.6</ele>
        <time>2024-05-07T13:23:19Z</time>
      </trkpt>
      <trkpt lat="47.57877" lon="-3.05208">
        <ele>5.6</ele>
        <time>2024-05-07T13:23:20Z</time>
      </trkpt>
      <trkpt lat="47.57877" lon="-3.05208">
        <ele>5.6</ele>
        <time>2024-05-07T13:23:21Z</time>
      </trkpt>
      <trkpt lat="47.57877" lon="-3.05208">
        <ele>5.6</ele>
        <time>2024-05-07T13:23:22Z</time>
      </trkpt>
      <trkpt lat="47.57877" lon="-3.05208">
        <ele>5.4</ele>
        <time>2024-05-07T13:23:23Z</time>
      </trkpt>
      <trkpt lat="47.57877" lon="-3.05208">
        <ele>5.4</ele>
        <time>2024-05-07T13:23:24Z</time>
      </trkpt>
      <trkpt lat="47.57877" lon="-3.05208">
        <ele>5.4</ele>
        <time>2024-05-07T13:23:25Z</time>
      </trkpt>
      <trkpt lat="47.57877" lon="-3.05208">
        <ele>5.4</ele>
        <time>2024-05-07T13:23:26Z</time>
      </trkpt>
      <trkpt lat="47.57877" lon="-3.05208">
        <ele>5.4</ele>
        <time>2024-05-07T13:23:27Z</time>
      </trkpt>
      <trkpt lat="47.57877" lon="-3.05208">
        <ele>5.4</ele>
        <time>2024-05-07T13:23:28Z</time>
      </trkpt>
      <trkpt lat="47.57877" lon="-3.05208">
        <ele>5.4</ele>
        <time>2024-05-07T13:23:29Z</time>
      </trkpt>
      <trkpt lat="47.57877" lon="-3.05208">
        <ele>5.4</ele>
        <time>2024-05-07T13:23:30Z</time>
      </trkpt>
      <trkpt lat="47.57877" lon="-3.05208">
        <ele>5.4</ele>
        <time>2024-05-07T13:23:31Z</time>
      </trkpt>
      <trkpt lat="47.57877" lon="-3.05208">
        <ele>5.4</ele>
        <time>2024-05-07T13:23:32Z</time>
      </trkpt>
      <trkpt lat="47.57877" lon="-3.05208">
        <ele>5.4</ele>
        <time>2024-05-07T13:23:33Z</time>
      </trkpt>
      <trkpt lat="47.57877" lon="-3.05208">
        <ele>5.4</ele>
        <time>2024-05-07T13:23:34Z</time>
      </trkpt>
      <trkpt lat="47.57877" lon="-3.05208">
        <ele>5.4</ele>
        <time>2024-05-07T13:23:35Z</time>
      </trkpt>
      <trkpt lat="47.57877" lon="-3.05208">
        <ele>5.6</ele>
        <time>2024-05-07T13:23:36Z</time>
      </trkpt>
      <trkpt lat="47.57877" lon="-3.05208">
        <ele>5.6</ele>
        <time>2024-05-07T13:23:37Z</time>
      </trkpt>
      <trkpt lat="47.57877" lon="-3.05208">
        <ele>5.6</ele>
        <time>2024-05-07T13:23:38Z</time>
      </trkpt>
      <trkpt lat="47.57877" lon="-3.05208">
        <ele>5.6</ele>
        <time>2024-05-07T13:23:39Z</time>
      </trkpt>
      <trkpt lat="47.57877" lon="-3.05208">
        <ele>5.4</ele>
        <time>2024-05-07T13:23:40Z</time>
      </trkpt>
      <trkpt lat="47.57877" lon="-3.05208">
        <ele>5.4</ele>
        <time>2024-05-07T13:23:41Z</time>
      </trkpt>
      <trkpt lat="47.57877" lon="-3.05208">
        <ele>5.4</ele>
        <time>2024-05-07T13:23:42Z</time>
      </trkpt>
      <trkpt lat="47.57877" lon="-3.05208">
        <ele>5.4</ele>
        <time>2024-05-07T13:23:43Z</time>
      </trkpt>
      <trkpt lat="47.57877" lon="-3.05208">
        <ele>5.4</ele>
        <time>2024-05-07T13:23:44Z</time>
      </trkpt>
      <trkpt lat="47.57877" lon="-3.05208">
        <ele>5.4</ele>
        <time>2024-05-07T13:23:45Z</time>
      </trkpt>
      <trkpt lat="47.57877" lon="-3.05208">
        <ele>5.4</ele>
        <time>2024-05-07T13:23:46Z</time>
      </trkpt>
      <trkpt lat="47.57877" lon="-3.05208">
        <ele>5.4</ele>
        <time>2024-05-07T13:23:47Z</time>
      </trkpt>
      <trkpt lat="47.57877" lon="-3.05208">
        <ele>5.4</ele>
        <time>2024-05-07T13:23:48Z</time>
      </trkpt>
      <trkpt lat="47.57877" lon="-3.05208">
        <ele>5.4</ele>
        <time>2024-05-07T13:23:49Z</time>
      </trkpt>
      <trkpt lat="47.57877" lon="-3.05208">
        <ele>5.4</ele>
        <time>2024-05-07T13:23:50Z</time>
      </trkpt>
      <trkpt lat="47.57877" lon="-3.05208">
        <ele>5.4</ele>
        <time>2024-05-07T13:23:51Z</time>
      </trkpt>
      <trkpt lat="47.57877" lon="-3.05208">
        <ele>5.4</ele>
        <time>2024-05-07T13:23:52Z</time>
      </trkpt>
      <trkpt lat="47.57877" lon="-3.05208">
        <ele>5.4</ele>
        <time>2024-05-07T13:23:53Z</time>
      </trkpt>
      <trkpt lat="47.57877" lon="-3.05208">
        <ele>5.4</ele>
        <time>2024-05-07T13:23:54Z</time>
      </trkpt>
      <trkpt lat="47.57877" lon="-3.05208">
        <ele>5.4</ele>
        <time>2024-05-07T13:23:55Z</time>
      </trkpt>
      <trkpt lat="47.57877" lon="-3.05208">
        <ele>5.4</ele>
        <time>2024-05-07T13:23:56Z</time>
      </trkpt>
      <trkpt lat="47.57877" lon="-3.05208">
        <ele>5.4</ele>
        <time>2024-05-07T13:23:57Z</time>
      </trkpt>
      <trkpt lat="47.57877" lon="-3.05208">
        <ele>5.2</ele>
        <time>2024-05-07T13:23:58Z</time>
      </trkpt>
      <trkpt lat="47.57877" lon="-3.05208">
        <ele>5.2</ele>
        <time>2024-05-07T13:23:59Z</time>
      </trkpt>
      <trkpt lat="47.57877" lon="-3.05208">
        <ele>5.2</ele>
        <time>2024-05-07T13:24:00Z</time>
      </trkpt>
      <trkpt lat="47.57877" lon="-3.05208">
        <ele>5.2</ele>
        <time>2024-05-07T13:24:01Z</time>
      </trkpt>
      <trkpt lat="47.57877" lon="-3.05208">
        <ele>5.2</ele>
        <time>2024-05-07T13:24:02Z</time>
      </trkpt>
      <trkpt lat="47.57877" lon="-3.05208">
        <ele>5.2</ele>
        <time>2024-05-07T13:24:03Z</time>
      </trkpt>
      <trkpt lat="47.57877" lon="-3.05208">
        <ele>5.2</ele>
        <time>2024-05-07T13:24:04Z</time>
      </trkpt>
      <trkpt lat="47.57877" lon="-3.05208">
        <ele>5.2</ele>
        <time>2024-05-07T13:24:05Z</time>
      </trkpt>
      <trkpt lat="47.57877" lon="-3.05208">
        <ele>5.2</ele>
        <time>2024-05-07T13:24:06Z</time>
      </trkpt>
      <trkpt lat="47.57877" lon="-3.05208">
        <ele>5.2</ele>
        <time>2024-05-07T13:24:07Z</time>
      </trkpt>
      <trkpt lat="47.57877" lon="-3.05208">
        <ele>5.2</ele>
        <time>2024-05-07T13:24:08Z</time>
      </trkpt>
      <trkpt lat="47.57877" lon="-3.05208">
        <ele>5.2</ele>
        <time>2024-05-07T13:24:09Z</time>
      </trkpt>
      <trkpt lat="47.57877" lon="-3.05208">
        <ele>5.2</ele>
        <time>2024-05-07T13:24:10Z</time>
      </trkpt>
      <trkpt lat="47.57877" lon="-3.05208">
        <ele>5.2</ele>
        <time>2024-05-07T13:24:11Z</time>
      </trkpt>
      <trkpt lat="47.57877" lon="-3.05208">
        <ele>5.2</ele>
        <time>2024-05-07T13:24:12Z</time>
      </trkpt>
      <trkpt lat="47.57877" lon="-3.05208">
        <ele>5.2</ele>
        <time>2024-05-07T13:24:13Z</time>
      </trkpt>
      <trkpt lat="47.57877" lon="-3.05208">
        <ele>5.2</ele>
        <time>2024-05-07T13:24:14Z</time>
      </trkpt>
      <trkpt lat="47.57877" lon="-3.05208">
        <ele>5.2</ele>
        <time>2024-05-07T13:24:15Z</time>
      </trkpt>
      <trkpt lat="47.57877" lon="-3.05208">
        <ele>5</ele>
        <time>2024-05-07T13:24:16Z</time>
      </trkpt>
      <trkpt lat="47.57877" lon="-3.05208">
        <ele>5</ele>
        <time>2024-05-07T13:24:17Z</time>
      </trkpt>
      <trkpt lat="47.57877" lon="-3.05208">
        <ele>5</ele>
        <time>2024-05-07T13:24:18Z</time>
      </trkpt>
      <trkpt lat="47.57877" lon="-3.05208">
        <ele>4.8</ele>
        <time>2024-05-07T13:24:19Z</time>
      </trkpt>
      <trkpt lat="47.57877" lon="-3.05208">
        <ele>4.8</ele>
        <time>2024-05-07T13:24:20Z</time>
      </trkpt>
      <trkpt lat="47.57877" lon="-3.05208">
        <ele>4.8</ele>
        <time>2024-05-07T13:24:21Z</time>
      </trkpt>
      <trkpt lat="47.57877" lon="-3.05208">
        <ele>4.8</ele>
        <time>2024-05-07T13:24:22Z</time>
      </trkpt>
      <trkpt lat="47.57877" lon="-3.05208">
        <ele>4.8</ele>
        <time>2024-05-07T13:24:23Z</time>
      </trkpt>
      <trkpt lat="47.57877" lon="-3.05208">
        <ele>4.8</ele>
        <time>2024-05-07T13:24:24Z</time>
      </trkpt>
      <trkpt lat="47.57877" lon="-3.05208">
        <ele>4.8</ele>
        <time>2024-05-07T13:24:25Z</time>
      </trkpt>
      <trkpt lat="47.57877" lon="-3.05208">
        <ele>5</ele>
        <time>2024-05-07T13:24:26Z</time>
      </trkpt>
      <trkpt lat="47.57877" lon="-3.05208">
        <ele>5</ele>
        <time>2024-05-07T13:24:27Z</time>
      </trkpt>
      <trkpt lat="47.57877" lon="-3.05208">
        <ele>5</ele>
        <time>2024-05-07T13:24:28Z</time>
      </trkpt>
      <trkpt lat="47.57877" lon="-3.05208">
        <ele>5</ele>
        <time>2024-05-07T13:24:29Z</time>
      </trkpt>
      <trkpt lat="47.57877" lon="-3.05208">
        <ele>5.2</ele>
        <time>2024-05-07T13:24:30Z</time>
      </trkpt>
      <trkpt lat="47.57877" lon="-3.05208">
        <ele>5.2</ele>
        <time>2024-05-07T13:24:31Z</time>
      </trkpt>
      <trkpt lat="47.57877" lon="-3.05208">
        <ele>5.2</ele>
        <time>2024-05-07T13:24:32Z</time>
      </trkpt>
      <trkpt lat="47.57877" lon="-3.05208">
        <ele>5.2</ele>
        <time>2024-05-07T13:24:33Z</time>
      </trkpt>
      <trkpt lat="47.57877" lon="-3.05208">
        <ele>5.4</ele>
        <time>2024-05-07T13:24:34Z</time>
      </trkpt>
      <trkpt lat="47.57877" lon="-3.05208">
        <ele>5.4</ele>
        <time>2024-05-07T13:24:35Z</time>
      </trkpt>
      <trkpt lat="47.57877" lon="-3.05208">
        <ele>5.4</ele>
        <time>2024-05-07T13:24:36Z</time>
      </trkpt>
      <trkpt lat="47.57877" lon="-3.05208">
        <ele>5.2</ele>
        <time>2024-05-07T13:24:37Z</time>
      </trkpt>
      <trkpt lat="47.57877" lon="-3.05208">
        <ele>5.4</ele>
        <time>2024-05-07T13:24:38Z</time>
      </trkpt>
      <trkpt lat="47.57877" lon="-3.05208">
        <ele>5.4</ele>
        <time>2024-05-07T13:24:39Z</time>
      </trkpt>
      <trkpt lat="47.57877" lon="-3.05208">
        <ele>5.2</ele>
        <time>2024-05-07T13:24:40Z</time>
      </trkpt>
      <trkpt lat="47.57877" lon="-3.05208">
        <ele>5.2</ele>
        <time>2024-05-07T13:24:41Z</time>
      </trkpt>
      <trkpt lat="47.57877" lon="-3.05208">
        <ele>5.4</ele>
        <time>2024-05-07T13:24:42Z</time>
      </trkpt>
      <trkpt lat="47.57877" lon="-3.05208">
        <ele>5.4</ele>
        <time>2024-05-07T13:24:43Z</time>
      </trkpt>
      <trkpt lat="47.57877" lon="-3.05208">
        <ele>5.4</ele>
        <time>2024-05-07T13:24:44Z</time>
      </trkpt>
      <trkpt lat="47.57877" lon="-3.05208">
        <ele>5.4</ele>
        <time>2024-05-07T13:24:45Z</time>
      </trkpt>
      <trkpt lat="47.57877" lon="-3.05208">
        <ele>5.4</ele>
        <time>2024-05-07T13:24:46Z</time>
      </trkpt>
      <trkpt lat="47.57877" lon="-3.05208">
        <ele>5.4</ele>
        <time>2024-05-07T13:24:47Z</time>
      </trkpt>
      <trkpt lat="47.57877" lon="-3.05208">
        <ele>5.4</ele>
        <time>2024-05-07T13:24:48Z</time>
      </trkpt>
      <trkpt lat="47.57877" lon="-3.05208">
        <ele>5.4</ele>
        <time>2024-05-07T13:24:49Z</time>
      </trkpt>
      <trkpt lat="47.57877" lon="-3.05208">
        <ele>5.4</ele>
        <time>2024-05-07T13:24:50Z</time>
      </trkpt>
      <trkpt lat="47.57877" lon="-3.05208">
        <ele>5.4</ele>
        <time>2024-05-07T13:24:51Z</time>
      </trkpt>
      <trkpt lat="47.57877" lon="-3.05208">
        <ele>5.4</ele>
        <time>2024-05-07T13:24:52Z</time>
      </trkpt>
      <trkpt lat="47.57877" lon="-3.05208">
        <ele>5.4</ele>
        <time>2024-05-07T13:24:53Z</time>
      </trkpt>
      <trkpt lat="47.57877" lon="-3.05208">
        <ele>5.4</ele>
        <time>2024-05-07T13:24:54Z</time>
      </trkpt>
      <trkpt lat="47.57877" lon="-3.05208">
        <ele>5.4</ele>
        <time>2024-05-07T13:24:55Z</time>
      </trkpt>
      <trkpt lat="47.57877" lon="-3.05208">
        <ele>5.4</ele>
        <time>2024-05-07T13:24:56Z</time>
      </trkpt>
      <trkpt lat="47.57877" lon="-3.05208">
        <ele>5.4</ele>
        <time>2024-05-07T13:24:57Z</time>
      </trkpt>
      <trkpt lat="47.57877" lon="-3.05208">
        <ele>5.4</ele>
        <time>2024-05-07T13:24:58Z</time>
      </trkpt>
      <trkpt lat="47.57877" lon="-3.05208">
        <ele>5.6</ele>
        <time>2024-05-07T13:24:59Z</time>
      </trkpt>
      <trkpt lat="47.57877" lon="-3.05208">
        <ele>5.6</ele>
        <time>2024-05-07T13:25:00Z</time>
      </trkpt>
      <trkpt lat="47.57877" lon="-3.05208">
        <ele>5.6</ele>
        <time>2024-05-07T13:25:01Z</time>
      </trkpt>
      <trkpt lat="47.57877" lon="-3.05208">
        <ele>5.6</ele>
        <time>2024-05-07T13:25:02Z</time>
      </trkpt>
      <trkpt lat="47.57877" lon="-3.05208">
        <ele>5.6</ele>
        <time>2024-05-07T13:25:03Z</time>
      </trkpt>
      <trkpt lat="47.57877" lon="-3.05208">
        <ele>5.6</ele>
        <time>2024-05-07T13:25:04Z</time>
      </trkpt>
      <trkpt lat="47.57877" lon="-3.05208">
        <ele>5.6</ele>
        <time>2024-05-07T13:25:05Z</time>
      </trkpt>
      <trkpt lat="47.57877" lon="-3.05208">
        <ele>5.6</ele>
        <time>2024-05-07T13:25:06Z</time>
      </trkpt>
      <trkpt lat="47.57877" lon="-3.05208">
        <ele>5.6</ele>
        <time>2024-05-07T13:25:07Z</time>
      </trkpt>
      <trkpt lat="47.57877" lon="-3.05208">
        <ele>5.6</ele>
        <time>2024-05-07T13:25:08Z</time>
      </trkpt>
      <trkpt lat="47.57877" lon="-3.05208">
        <ele>5.6</ele>
        <time>2024-05-07T13:25:09Z</time>
      </trkpt>
      <trkpt lat="47.57877" lon="-3.05208">
        <ele>5.6</ele>
        <time>2024-05-07T13:25:10Z</time>
      </trkpt>
      <trkpt lat="47.57877" lon="-3.05208">
        <ele>5.6</ele>
        <time>2024-05-07T13:25:11Z</time>
      </trkpt>
      <trkpt lat="47.57877" lon="-3.05208">
        <ele>5.6</ele>
        <time>2024-05-07T13:25:12Z</time>
      </trkpt>
      <trkpt lat="47.57877" lon="-3.05208">
        <ele>5.4</ele>
        <time>2024-05-07T13:25:13Z</time>
      </trkpt>
      <trkpt lat="47.57877" lon="-3.05208">
        <ele>5.4</ele>
        <time>2024-05-07T13:25:14Z</time>
      </trkpt>
      <trkpt lat="47.57877" lon="-3.05208">
        <ele>5.4</ele>
        <time>2024-05-07T13:25:15Z</time>
      </trkpt>
      <trkpt lat="47.57877" lon="-3.05208">
        <ele>5.4</ele>
        <time>2024-05-07T13:25:16Z</time>
      </trkpt>
      <trkpt lat="47.57877" lon="-3.05208">
        <ele>5.4</ele>
        <time>2024-05-07T13:25:17Z</time>
      </trkpt>
      <trkpt lat="47.57877" lon="-3.05208">
        <ele>5.4</ele>
        <time>2024-05-07T13:25:18Z</time>
      </trkpt>
      <trkpt lat="47.57877" lon="-3.05208">
        <ele>5.4</ele>
        <time>2024-05-07T13:25:19Z</time>
      </trkpt>
      <trkpt lat="47.57877" lon="-3.05208">
        <ele>5</ele>
        <time>2024-05-07T13:25:20Z</time>
      </trkpt>
      <trkpt lat="47.57877" lon="-3.05208">
        <ele>5</ele>
        <time>2024-05-07T13:25:21Z</time>
      </trkpt>
      <trkpt lat="47.57877" lon="-3.05208">
        <ele>5</ele>
        <time>2024-05-07T13:25:22Z</time>
      </trkpt>
      <trkpt lat="47.57877" lon="-3.05208">
        <ele>5</ele>
        <time>2024-05-07T13:25:23Z</time>
      </trkpt>
      <trkpt lat="47.57877" lon="-3.05208">
        <ele>5</ele>
        <time>2024-05-07T13:25:24Z</time>
      </trkpt>
      <trkpt lat="47.57877" lon="-3.05208">
        <ele>4.8</ele>
        <time>2024-05-07T13:25:25Z</time>
      </trkpt>
      <trkpt lat="47.57877" lon="-3.05208">
        <ele>4.8</ele>
        <time>2024-05-07T13:25:26Z</time>
      </trkpt>
      <trkpt lat="47.57877" lon="-3.05208">
        <ele>4.8</ele>
        <time>2024-05-07T13:25:27Z</time>
      </trkpt>
      <trkpt lat="47.57877" lon="-3.05208">
        <ele>4.8</ele>
        <time>2024-05-07T13:25:28Z</time>
      </trkpt>
      <trkpt lat="47.57877" lon="-3.05208">
        <ele>4.8</ele>
        <time>2024-05-07T13:25:29Z</time>
      </trkpt>
      <trkpt lat="47.57876" lon="-3.05208">
        <ele>4.8</ele>
        <time>2024-05-07T13:25:30Z</time>
      </trkpt>
      <trkpt lat="47.57876" lon="-3.05208">
        <ele>4.8</ele>
        <time>2024-05-07T13:25:31Z</time>
      </trkpt>
      <trkpt lat="47.57876" lon="-3.05208">
        <ele>4.8</ele>
        <time>2024-05-07T13:25:32Z</time>
      </trkpt>
      <trkpt lat="47.57876" lon="-3.05208">
        <ele>4.8</ele>
        <time>2024-05-07T13:25:33Z</time>
      </trkpt>
      <trkpt lat="47.57876" lon="-3.05208">
        <ele>4.8</ele>
        <time>2024-05-07T13:25:34Z</time>
      </trkpt>
      <trkpt lat="47.57876" lon="-3.05208">
        <ele>4.8</ele>
        <time>2024-05-07T13:25:35Z</time>
      </trkpt>
      <trkpt lat="47.57876" lon="-3.05208">
        <ele>4.8</ele>
        <time>2024-05-07T13:25:36Z</time>
      </trkpt>
      <trkpt lat="47.57876" lon="-3.05208">
        <ele>4.8</ele>
        <time>2024-05-07T13:25:37Z</time>
      </trkpt>
      <trkpt lat="47.57876" lon="-3.05208">
        <ele>5</ele>
        <time>2024-05-07T13:25:38Z</time>
      </trkpt>
      <trkpt lat="47.57876" lon="-3.05208">
        <ele>5</ele>
        <time>2024-05-07T13:25:39Z</time>
      </trkpt>
      <trkpt lat="47.57876" lon="-3.05208">
        <ele>5</ele>
        <time>2024-05-07T13:25:40Z</time>
      </trkpt>
      <trkpt lat="47.57876" lon="-3.05208">
        <ele>5</ele>
        <time>2024-05-07T13:25:41Z</time>
      </trkpt>
      <trkpt lat="47.57876" lon="-3.05208">
        <ele>5</ele>
        <time>2024-05-07T13:25:42Z</time>
      </trkpt>
      <trkpt lat="47.57876" lon="-3.05208">
        <ele>5</ele>
        <time>2024-05-07T13:25:43Z</time>
      </trkpt>
      <trkpt lat="47.57876" lon="-3.05208">
        <ele>5</ele>
        <time>2024-05-07T13:25:44Z</time>
      </trkpt>
      <trkpt lat="47.57876" lon="-3.05208">
        <ele>5</ele>
        <time>2024-05-07T13:25:45Z</time>
      </trkpt>
      <trkpt lat="47.57876" lon="-3.05208">
        <ele>5</ele>
        <time>2024-05-07T13:25:46Z</time>
      </trkpt>
      <trkpt lat="47.57876" lon="-3.05208">
        <ele>5</ele>
        <time>2024-05-07T13:25:47Z</time>
      </trkpt>
      <trkpt lat="47.57876" lon="-3.05208">
        <ele>5</ele>
        <time>2024-05-07T13:25:48Z</time>
      </trkpt>
      <trkpt lat="47.57876" lon="-3.05208">
        <ele>5</ele>
        <time>2024-05-07T13:25:49Z</time>
      </trkpt>
      <trkpt lat="47.57876" lon="-3.05208">
        <ele>5</ele>
        <time>2024-05-07T13:25:50Z</time>
      </trkpt>
      <trkpt lat="47.57876" lon="-3.05208">
        <ele>5</ele>
        <time>2024-05-07T13:25:51Z</time>
      </trkpt>
      <trkpt lat="47.57876" lon="-3.05208">
        <ele>5</ele>
        <time>2024-05-07T13:25:52Z</time>
      </trkpt>
      <trkpt lat="47.57876" lon="-3.05208">
        <ele>5.4</ele>
        <time>2024-05-07T13:25:53Z</time>
      </trkpt>
      <trkpt lat="47.57876" lon="-3.05208">
        <ele>5.4</ele>
        <time>2024-05-07T13:25:54Z</time>
      </trkpt>
      <trkpt lat="47.57876" lon="-3.05208">
        <ele>5.4</ele>
        <time>2024-05-07T13:25:55Z</time>
      </trkpt>
      <trkpt lat="47.57876" lon="-3.05208">
        <ele>5.4</ele>
        <time>2024-05-07T13:25:56Z</time>
      </trkpt>
      <trkpt lat="47.57876" lon="-3.05208">
        <ele>5.4</ele>
        <time>2024-05-07T13:25:57Z</time>
      </trkpt>
      <trkpt lat="47.57876" lon="-3.05208">
        <ele>5.4</ele>
        <time>2024-05-07T13:25:58Z</time>
      </trkpt>
      <trkpt lat="47.57876" lon="-3.05208">
        <ele>5.4</ele>
        <time>2024-05-07T13:25:59Z</time>
      </trkpt>
      <trkpt lat="47.57876" lon="-3.05208">
        <ele>5.4</ele>
        <time>2024-05-07T13:26:00Z</time>
      </trkpt>
      <trkpt lat="47.57876" lon="-3.05208">
        <ele>5.4</ele>
        <time>2024-05-07T13:26:01Z</time>
      </trkpt>
      <trkpt lat="47.57876" lon="-3.05208">
        <ele>5.4</ele>
        <time>2024-05-07T13:26:02Z</time>
      </trkpt>
      <trkpt lat="47.57876" lon="-3.05208">
        <ele>5.4</ele>
        <time>2024-05-07T13:26:03Z</time>
      </trkpt>
      <trkpt lat="47.57876" lon="-3.05208">
        <ele>5</ele>
        <time>2024-05-07T13:26:04Z</time>
      </trkpt>
      <trkpt lat="47.57876" lon="-3.05208">
        <ele>5</ele>
        <time>2024-05-07T13:26:05Z</time>
      </trkpt>
      <trkpt lat="47.57876" lon="-3.05208">
        <ele>5</ele>
        <time>2024-05-07T13:26:06Z</time>
      </trkpt>
      <trkpt lat="47.57876" lon="-3.05208">
        <ele>5</ele>
        <time>2024-05-07T13:26:07Z</time>
      </trkpt>
      <trkpt lat="47.57876" lon="-3.05208">
        <ele>5</ele>
        <time>2024-05-07T13:26:08Z</time>
      </trkpt>
      <trkpt lat="47.57876" lon="-3.05208">
        <ele>5</ele>
        <time>2024-05-07T13:26:09Z</time>
      </trkpt>
      <trkpt lat="47.57876" lon="-3.05208">
        <ele>5</ele>
        <time>2024-05-07T13:26:10Z</time>
      </trkpt>
      <trkpt lat="47.57876" lon="-3.05208">
        <ele>5</ele>
        <time>2024-05-07T13:26:11Z</time>
      </trkpt>
      <trkpt lat="47.57877" lon="-3.05208">
        <ele>5</ele>
        <time>2024-05-07T13:26:12Z</time>
      </trkpt>
      <trkpt lat="47.57877" lon="-3.05208">
        <ele>5</ele>
        <time>2024-05-07T13:26:13Z</time>
      </trkpt>
      <trkpt lat="47.57877" lon="-3.05208">
        <ele>5</ele>
        <time>2024-05-07T13:26:14Z</time>
      </trkpt>
      <trkpt lat="47.57877" lon="-3.05208">
        <ele>5</ele>
        <time>2024-05-07T13:26:15Z</time>
      </trkpt>
      <trkpt lat="47.57877" lon="-3.05208">
        <ele>5</ele>
        <time>2024-05-07T13:26:16Z</time>
      </trkpt>
      <trkpt lat="47.57877" lon="-3.05208">
        <ele>5</ele>
        <time>2024-05-07T13:26:17Z</time>
      </trkpt>
      <trkpt lat="47.57877" lon="-3.05208">
        <ele>5</ele>
        <time>2024-05-07T13:26:18Z</time>
      </trkpt>
      <trkpt lat="47.57877" lon="-3.05208">
        <ele>5</ele>
        <time>2024-05-07T13:26:19Z</time>
      </trkpt>
      <trkpt lat="47.57877" lon="-3.05208">
        <ele>5</ele>
        <time>2024-05-07T13:26:20Z</time>
      </trkpt>
      <trkpt lat="47.57877" lon="-3.05208">
        <ele>5</ele>
        <time>2024-05-07T13:26:21Z</time>
      </trkpt>
      <trkpt lat="47.57877" lon="-3.05208">
        <ele>5</ele>
        <time>2024-05-07T13:26:22Z</time>
      </trkpt>
      <trkpt lat="47.57877" lon="-3.05208">
        <ele>5</ele>
        <time>2024-05-07T13:26:23Z</time>
      </trkpt>
      <trkpt lat="47.57877" lon="-3.05208">
        <ele>5</ele>
        <time>2024-05-07T13:26:24Z</time>
      </trkpt>
      <trkpt lat="47.57877" lon="-3.05208">
        <ele>5</ele>
        <time>2024-05-07T13:26:25Z</time>
      </trkpt>
      <trkpt lat="47.57877" lon="-3.05208">
        <ele>5.2</ele>
        <time>2024-05-07T13:26:26Z</time>
      </trkpt>
      <trkpt lat="47.57877" lon="-3.05208">
        <ele>5.2</ele>
        <time>2024-05-07T13:26:27Z</time>
      </trkpt>
      <trkpt lat="47.57877" lon="-3.05208">
        <ele>5</ele>
        <time>2024-05-07T13:26:28Z</time>
      </trkpt>
      <trkpt lat="47.57877" lon="-3.05208">
        <ele>5</ele>
        <time>2024-05-07T13:26:29Z</time>
      </trkpt>
      <trkpt lat="47.57877" lon="-3.05208">
        <ele>5</ele>
        <time>2024-05-07T13:26:30Z</time>
      </trkpt>
      <trkpt lat="47.57877" lon="-3.05208">
        <ele>5</ele>
        <time>2024-05-07T13:26:31Z</time>
      </trkpt>
      <trkpt lat="47.57877" lon="-3.05208">
        <ele>5</ele>
        <time>2024-05-07T13:26:32Z</time>
      </trkpt>
      <trkpt lat="47.57877" lon="-3.05208">
        <ele>5</ele>
        <time>2024-05-07T13:26:33Z</time>
      </trkpt>
      <trkpt lat="47.57877" lon="-3.05208">
        <ele>5</ele>
        <time>2024-05-07T13:26:34Z</time>
      </trkpt>
      <trkpt lat="47.57877" lon="-3.05208">
        <ele>4.8</ele>
        <time>2024-05-07T13:26:35Z</time>
      </trkpt>
      <trkpt lat="47.57877" lon="-3.05208">
        <ele>4.8</ele>
        <time>2024-05-07T13:26:36Z</time>
      </trkpt>
      <trkpt lat="47.57877" lon="-3.05208">
        <ele>4.8</ele>
        <time>2024-05-07T13:26:37Z</time>
      </trkpt>
      <trkpt lat="47.57877" lon="-3.05208">
        <ele>4.8</ele>
        <time>2024-05-07T13:26:38Z</time>
      </trkpt>
      <trkpt lat="47.57877" lon="-3.05208">
        <ele>4.8</ele>
        <time>2024-05-07T13:26:39Z</time>
      </trkpt>
      <trkpt lat="47.57877" lon="-3.05208">
        <ele>4.8</ele>
        <time>2024-05-07T13:26:40Z</time>
      </trkpt>
      <trkpt lat="47.57877" lon="-3.05208">
        <ele>4.8</ele>
        <time>2024-05-07T13:26:41Z</time>
      </trkpt>
      <trkpt lat="47.57877" lon="-3.05208">
        <ele>4.8</ele>
        <time>2024-05-07T13:26:42Z</time>
      </trkpt>
      <trkpt lat="47.57877" lon="-3.05208">
        <ele>4.8</ele>
        <time>2024-05-07T13:26:43Z</time>
      </trkpt>
      <trkpt lat="47.57877" lon="-3.05208">
        <ele>4.8</ele>
        <time>2024-05-07T13:26:44Z</time>
      </trkpt>
      <trkpt lat="47.57877" lon="-3.05208">
        <ele>4.8</ele>
        <time>2024-05-07T13:26:45Z</time>
      </trkpt>
      <trkpt lat="47.57877" lon="-3.05208">
        <ele>4.8</ele>
        <time>2024-05-07T13:26:46Z</time>
      </trkpt>
      <trkpt lat="47.57877" lon="-3.05208">
        <ele>4.8</ele>
        <time>2024-05-07T13:26:47Z</time>
      </trkpt>
      <trkpt lat="47.57877" lon="-3.05208">
        <ele>4.8</ele>
        <time>2024-05-07T13:26:48Z</time>
      </trkpt>
      <trkpt lat="47.57877" lon="-3.05208">
        <ele>4.6</ele>
        <time>2024-05-07T13:26:49Z</time>
      </trkpt>
      <trkpt lat="47.57877" lon="-3.05208">
        <ele>4.6</ele>
        <time>2024-05-07T13:26:50Z</time>
      </trkpt>
      <trkpt lat="47.57877" lon="-3.05208">
        <ele>4.6</ele>
        <time>2024-05-07T13:26:51Z</time>
      </trkpt>
      <trkpt lat="47.57877" lon="-3.05208">
        <ele>4.6</ele>
        <time>2024-05-07T13:26:52Z</time>
      </trkpt>
      <trkpt lat="47.57877" lon="-3.05208">
        <ele>4.6</ele>
        <time>2024-05-07T13:26:53Z</time>
      </trkpt>
      <trkpt lat="47.57877" lon="-3.05208">
        <ele>4.6</ele>
        <time>2024-05-07T13:26:54Z</time>
      </trkpt>
      <trkpt lat="47.57877" lon="-3.05208">
        <ele>4.6</ele>
        <time>2024-05-07T13:26:55Z</time>
      </trkpt>
      <trkpt lat="47.57877" lon="-3.05208">
        <ele>4.6</ele>
        <time>2024-05-07T13:26:56Z</time>
      </trkpt>
      <trkpt lat="47.57877" lon="-3.05208">
        <ele>4.6</ele>
        <time>2024-05-07T13:26:57Z</time>
      </trkpt>
      <trkpt lat="47.57877" lon="-3.05208">
        <ele>4.6</ele>
        <time>2024-05-07T13:26:58Z</time>
      </trkpt>
      <trkpt lat="47.57877" lon="-3.05208">
        <ele>4.6</ele>
        <time>2024-05-07T13:26:59Z</time>
      </trkpt>
      <trkpt lat="47.57877" lon="-3.05208">
        <ele>4.6</ele>
        <time>2024-05-07T13:27:00Z</time>
      </trkpt>
      <trkpt lat="47.57877" lon="-3.05208">
        <ele>4.6</ele>
        <time>2024-05-07T13:27:01Z</time>
      </trkpt>
      <trkpt lat="47.57877" lon="-3.05208">
        <ele>4.6</ele>
        <time>2024-05-07T13:27:02Z</time>
      </trkpt>
      <trkpt lat="47.57877" lon="-3.05208">
        <ele>4.6</ele>
        <time>2024-05-07T13:27:03Z</time>
      </trkpt>
      <trkpt lat="47.57877" lon="-3.05208">
        <ele>4.6</ele>
        <time>2024-05-07T13:27:04Z</time>
      </trkpt>
      <trkpt lat="47.57877" lon="-3.05208">
        <ele>4.6</ele>
        <time>2024-05-07T13:27:05Z</time>
      </trkpt>
      <trkpt lat="47.57877" lon="-3.05208">
        <ele>4.6</ele>
        <time>2024-05-07T13:27:06Z</time>
      </trkpt>
      <trkpt lat="47.57877" lon="-3.05208">
        <ele>4.6</ele>
        <time>2024-05-07T13:27:07Z</time>
      </trkpt>
      <trkpt lat="47.57877" lon="-3.05208">
        <ele>4.6</ele>
        <time>2024-05-07T13:27:08Z</time>
      </trkpt>
      <trkpt lat="47.57876" lon="-3.05208">
        <ele>4.6</ele>
        <time>2024-05-07T13:27:09Z</time>
      </trkpt>
      <trkpt lat="47.57876" lon="-3.05208">
        <ele>4.6</ele>
        <time>2024-05-07T13:27:10Z</time>
      </trkpt>
      <trkpt lat="47.57876" lon="-3.05208">
        <ele>4.6</ele>
        <time>2024-05-07T13:27:11Z</time>
      </trkpt>
      <trkpt lat="47.57876" lon="-3.05208">
        <ele>4.6</ele>
        <time>2024-05-07T13:27:12Z</time>
      </trkpt>
      <trkpt lat="47.57876" lon="-3.05208">
        <ele>4.6</ele>
        <time>2024-05-07T13:27:13Z</time>
      </trkpt>
      <trkpt lat="47.57876" lon="-3.05208">
        <ele>4.6</ele>
        <time>2024-05-07T13:27:14Z</time>
      </trkpt>
      <trkpt lat="47.57876" lon="-3.05208">
        <ele>4.6</ele>
        <time>2024-05-07T13:27:15Z</time>
      </trkpt>
      <trkpt lat="47.57876" lon="-3.05208">
        <ele>4.8</ele>
        <time>2024-05-07T13:27:16Z</time>
      </trkpt>
      <trkpt lat="47.57876" lon="-3.05208">
        <ele>4.8</ele>
        <time>2024-05-07T13:27:17Z</time>
      </trkpt>
      <trkpt lat="47.57876" lon="-3.05208">
        <ele>4.8</ele>
        <time>2024-05-07T13:27:18Z</time>
      </trkpt>
      <trkpt lat="47.57876" lon="-3.05208">
        <ele>4.8</ele>
        <time>2024-05-07T13:27:19Z</time>
      </trkpt>
      <trkpt lat="47.57876" lon="-3.05208">
        <ele>4.8</ele>
        <time>2024-05-07T13:27:20Z</time>
      </trkpt>
      <trkpt lat="47.57876" lon="-3.05208">
        <ele>4.8</ele>
        <time>2024-05-07T13:27:21Z</time>
      </trkpt>
      <trkpt lat="47.57876" lon="-3.05208">
        <ele>4.8</ele>
        <time>2024-05-07T13:27:22Z</time>
      </trkpt>
      <trkpt lat="47.57876" lon="-3.05208">
        <ele>4.6</ele>
        <time>2024-05-07T13:27:23Z</time>
      </trkpt>
      <trkpt lat="47.57876" lon="-3.05208">
        <ele>4.6</ele>
        <time>2024-05-07T13:27:24Z</time>
      </trkpt>
      <trkpt lat="47.57876" lon="-3.05208">
        <ele>4.6</ele>
        <time>2024-05-07T13:27:25Z</time>
      </trkpt>
      <trkpt lat="47.57876" lon="-3.05208">
        <ele>4.6</ele>
        <time>2024-05-07T13:27:26Z</time>
      </trkpt>
      <trkpt lat="47.57876" lon="-3.05208">
        <ele>4.6</ele>
        <time>2024-05-07T13:27:27Z</time>
      </trkpt>
      <trkpt lat="47.57876" lon="-3.05208">
        <ele>4.6</ele>
        <time>2024-05-07T13:27:28Z</time>
      </trkpt>
      <trkpt lat="47.57876" lon="-3.05208">
        <ele>4.6</ele>
        <time>2024-05-07T13:27:29Z</time>
      </trkpt>
      <trkpt lat="47.57876" lon="-3.05208">
        <ele>4.6</ele>
        <time>2024-05-07T13:27:30Z</time>
      </trkpt>
      <trkpt lat="47.57876" lon="-3.05208">
        <ele>4.6</ele>
        <time>2024-05-07T13:27:31Z</time>
      </trkpt>
      <trkpt lat="47.57876" lon="-3.05208">
        <ele>4.6</ele>
        <time>2024-05-07T13:27:32Z</time>
      </trkpt>
      <trkpt lat="47.57876" lon="-3.05208">
        <ele>4.6</ele>
        <time>2024-05-07T13:27:33Z</time>
      </trkpt>
      <trkpt lat="47.57876" lon="-3.05208">
        <ele>4.6</ele>
        <time>2024-05-07T13:27:34Z</time>
      </trkpt>
      <trkpt lat="47.57876" lon="-3.05208">
        <ele>4.6</ele>
        <time>2024-05-07T13:27:35Z</time>
      </trkpt>
      <trkpt lat="47.57876" lon="-3.05208">
        <ele>4.6</ele>
        <time>2024-05-07T13:27:36Z</time>
      </trkpt>
      <trkpt lat="47.57876" lon="-3.05208">
        <ele>4.6</ele>
        <time>2024-05-07T13:27:37Z</time>
      </trkpt>
      <trkpt lat="47.57876" lon="-3.05208">
        <ele>4.6</ele>
        <time>2024-05-07T13:27:38Z</time>
      </trkpt>
      <trkpt lat="47.57876" lon="-3.05208">
        <ele>4.6</ele>
        <time>2024-05-07T13:27:39Z</time>
      </trkpt>
      <trkpt lat="47.57876" lon="-3.05208">
        <ele>4.6</ele>
        <time>2024-05-07T13:27:40Z</time>
      </trkpt>
      <trkpt lat="47.57876" lon="-3.05208">
        <ele>4.4</ele>
        <time>2024-05-07T13:27:41Z</time>
      </trkpt>
      <trkpt lat="47.57876" lon="-3.05208">
        <ele>4.6</ele>
        <time>2024-05-07T13:27:42Z</time>
      </trkpt>
      <trkpt lat="47.57876" lon="-3.05208">
        <ele>4.4</ele>
        <time>2024-05-07T13:27:43Z</time>
      </trkpt>
      <trkpt lat="47.57876" lon="-3.05207">
        <ele>4.4</ele>
        <time>2024-05-07T13:27:44Z</time>
      </trkpt>
      <trkpt lat="47.57875" lon="-3.05206">
        <ele>4.2</ele>
        <time>2024-05-07T13:27:45Z</time>
      </trkpt>
      <trkpt lat="47.57875" lon="-3.05206">
        <ele>4.2</ele>
        <time>2024-05-07T13:27:46Z</time>
      </trkpt>
      <trkpt lat="47.57875" lon="-3.05206">
        <ele>4.2</ele>
        <time>2024-05-07T13:27:47Z</time>
      </trkpt>
      <trkpt lat="47.57875" lon="-3.05206">
        <ele>4.2</ele>
        <time>2024-05-07T13:27:48Z</time>
      </trkpt>
      <trkpt lat="47.5787" lon="-3.05206">
        <ele>4.2</ele>
        <time>2024-05-07T13:27:49Z</time>
      </trkpt>
      <trkpt lat="47.57868" lon="-3.05205">
        <ele>4.2</ele>
        <time>2024-05-07T13:27:50Z</time>
      </trkpt>
      <trkpt lat="47.57868" lon="-3.05205">
        <ele>4.6</ele>
        <time>2024-05-07T13:27:51Z</time>
      </trkpt>
      <trkpt lat="47.57868" lon="-3.05205">
        <ele>5</ele>
        <time>2024-05-07T13:27:52Z</time>
      </trkpt>
      <trkpt lat="47.57868" lon="-3.05205">
        <ele>5</ele>
        <time>2024-05-07T13:27:53Z</time>
      </trkpt>
      <trkpt lat="47.57868" lon="-3.05205">
        <ele>5.2</ele>
        <time>2024-05-07T13:27:54Z</time>
      </trkpt>
      <trkpt lat="47.57868" lon="-3.05205">
        <ele>5.2</ele>
        <time>2024-05-07T13:27:55Z</time>
      </trkpt>
      <trkpt lat="47.57868" lon="-3.05205">
        <ele>5.4</ele>
        <time>2024-05-07T13:27:56Z</time>
      </trkpt>
    </trkseg>
  </trk>
</gpx>